<?xml version="1.0" encoding="UTF-8" standalone="no" ?>
<gpx xmlns="http://www.topografix.com/GPX/1/1" xmlns:xsi="http://www.w3.org/2001/XMLSchema-instance" xsi:schemaLocation="http://www.topografix.com/GPX/1/1 http://www.topografix.com/GPX/1/1/gpx.xsd" version="1.1" creator="VisuGPX - https://www.visugpx.com">
  <metadata>
    <name>Gardiole-Calanque de l'Oule-Devenson-Auberge Fontasse - Gardiole</name>
    <desc><![CDATA[21 avril 2016]]></desc>
  </metadata>
  <trk>
    <name><![CDATA[APR-21-16 03:21:46 PM]]></name>
    <trkseg>
      <trkpt lat="43.23068" lon="5.35467">
        <ele>17.44</ele>
        <time>2016-04-20T15:41:23Z</time>
      </trkpt>
      <trkpt lat="43.23069" lon="5.35467">
        <ele>16.96</ele>
        <time>2016-04-20T15:41:40Z</time>
      </trkpt>
      <trkpt lat="43.23068" lon="5.35467">
        <ele>16.96</ele>
        <time>2016-04-20T15:42:16Z</time>
      </trkpt>
      <trkpt lat="43.23069" lon="5.35467">
        <ele>17.44</ele>
        <time>2016-04-20T15:42:42Z</time>
      </trkpt>
      <trkpt lat="43.23071" lon="5.35466">
        <ele>17.92</ele>
        <time>2016-04-20T15:42:47Z</time>
      </trkpt>
      <trkpt lat="43.23098" lon="5.35477">
        <ele>17.44</ele>
        <time>2016-04-20T15:42:59Z</time>
      </trkpt>
      <trkpt lat="43.231" lon="5.35476">
        <ele>17.44</ele>
        <time>2016-04-20T15:43:04Z</time>
      </trkpt>
      <trkpt lat="43.23098" lon="5.35481">
        <ele>16.96</ele>
        <time>2016-04-20T15:43:13Z</time>
      </trkpt>
      <trkpt lat="43.23103" lon="5.3549">
        <ele>16.96</ele>
        <time>2016-04-20T15:43:16Z</time>
      </trkpt>
      <trkpt lat="43.23166" lon="5.35542">
        <ele>15.04</ele>
        <time>2016-04-20T15:43:27Z</time>
      </trkpt>
      <trkpt lat="43.23237" lon="5.35602">
        <ele>13.6</ele>
        <time>2016-04-20T15:43:38Z</time>
      </trkpt>
      <trkpt lat="43.23243" lon="5.35611">
        <ele>13.6</ele>
        <time>2016-04-20T15:43:39Z</time>
      </trkpt>
      <trkpt lat="43.23309" lon="5.35749">
        <ele>15.52</ele>
        <time>2016-04-20T15:43:51Z</time>
      </trkpt>
      <trkpt lat="43.23407" lon="5.35894">
        <ele>17.44</ele>
        <time>2016-04-20T15:44:04Z</time>
      </trkpt>
      <trkpt lat="43.23498" lon="5.36023">
        <ele>17.44</ele>
        <time>2016-04-20T15:44:16Z</time>
      </trkpt>
      <trkpt lat="43.23589" lon="5.36153">
        <ele>17.44</ele>
        <time>2016-04-20T15:44:30Z</time>
      </trkpt>
      <trkpt lat="43.23596" lon="5.36163">
        <ele>16.96</ele>
        <time>2016-04-20T15:44:36Z</time>
      </trkpt>
      <trkpt lat="43.23603" lon="5.36171">
        <ele>16.48</ele>
        <time>2016-04-20T15:44:47Z</time>
      </trkpt>
      <trkpt lat="43.23606" lon="5.36175">
        <ele>16.48</ele>
        <time>2016-04-20T15:44:48Z</time>
      </trkpt>
      <trkpt lat="43.23612" lon="5.36185">
        <ele>16</ele>
        <time>2016-04-20T15:44:50Z</time>
      </trkpt>
      <trkpt lat="43.23663" lon="5.36251">
        <ele>14.56</ele>
        <time>2016-04-20T15:45:01Z</time>
      </trkpt>
      <trkpt lat="43.23725" lon="5.36346">
        <ele>13.6</ele>
        <time>2016-04-20T15:45:14Z</time>
      </trkpt>
      <trkpt lat="43.23809" lon="5.36449">
        <ele>14.08</ele>
        <time>2016-04-20T15:45:28Z</time>
      </trkpt>
      <trkpt lat="43.23858" lon="5.36503">
        <ele>13.12</ele>
        <time>2016-04-20T15:45:38Z</time>
      </trkpt>
      <trkpt lat="43.23864" lon="5.3651">
        <ele>11.19</ele>
        <time>2016-04-20T15:45:49Z</time>
      </trkpt>
      <trkpt lat="43.23873" lon="5.36523">
        <ele>10.71</ele>
        <time>2016-04-20T15:46:13Z</time>
      </trkpt>
      <trkpt lat="43.23894" lon="5.36548">
        <ele>12.15</ele>
        <time>2016-04-20T15:46:26Z</time>
      </trkpt>
      <trkpt lat="43.239" lon="5.36555">
        <ele>14.56</ele>
        <time>2016-04-20T15:46:43Z</time>
      </trkpt>
      <trkpt lat="43.23903" lon="5.3656">
        <ele>16.96</ele>
        <time>2016-04-20T15:47:04Z</time>
      </trkpt>
      <trkpt lat="43.23915" lon="5.36576">
        <ele>17.92</ele>
        <time>2016-04-20T15:47:14Z</time>
      </trkpt>
      <trkpt lat="43.2393" lon="5.36596">
        <ele>17.92</ele>
        <time>2016-04-20T15:47:31Z</time>
      </trkpt>
      <trkpt lat="43.23982" lon="5.36658">
        <ele>18.4</ele>
        <time>2016-04-20T15:47:47Z</time>
      </trkpt>
      <trkpt lat="43.23984" lon="5.3666">
        <ele>18.88</ele>
        <time>2016-04-20T15:47:59Z</time>
      </trkpt>
      <trkpt lat="43.23985" lon="5.36662">
        <ele>18.88</ele>
        <time>2016-04-20T15:48:00Z</time>
      </trkpt>
      <trkpt lat="43.23986" lon="5.36664">
        <ele>18.88</ele>
        <time>2016-04-20T15:48:01Z</time>
      </trkpt>
      <trkpt lat="43.24" lon="5.36682">
        <ele>17.44</ele>
        <time>2016-04-20T15:48:15Z</time>
      </trkpt>
      <trkpt lat="43.24006" lon="5.3669">
        <ele>16</ele>
        <time>2016-04-20T15:48:43Z</time>
      </trkpt>
      <trkpt lat="43.24022" lon="5.36712">
        <ele>16</ele>
        <time>2016-04-20T15:49:04Z</time>
      </trkpt>
      <trkpt lat="43.24068" lon="5.36766">
        <ele>16.48</ele>
        <time>2016-04-20T15:49:16Z</time>
      </trkpt>
      <trkpt lat="43.24072" lon="5.36768">
        <ele>16.96</ele>
        <time>2016-04-20T15:49:28Z</time>
      </trkpt>
      <trkpt lat="43.24072" lon="5.36768">
        <ele>16.96</ele>
        <time>2016-04-20T15:49:30Z</time>
      </trkpt>
      <trkpt lat="43.24077" lon="5.36779">
        <ele>17.44</ele>
        <time>2016-04-20T15:49:34Z</time>
      </trkpt>
      <trkpt lat="43.24115" lon="5.36826">
        <ele>14.56</ele>
        <time>2016-04-20T15:49:45Z</time>
      </trkpt>
      <trkpt lat="43.24121" lon="5.36837">
        <ele>13.6</ele>
        <time>2016-04-20T15:49:56Z</time>
      </trkpt>
      <trkpt lat="43.24138" lon="5.36851">
        <ele>15.04</ele>
        <time>2016-04-20T15:50:13Z</time>
      </trkpt>
      <trkpt lat="43.24149" lon="5.36864">
        <ele>15.04</ele>
        <time>2016-04-20T15:50:26Z</time>
      </trkpt>
      <trkpt lat="43.24169" lon="5.36884">
        <ele>16</ele>
        <time>2016-04-20T15:50:41Z</time>
      </trkpt>
      <trkpt lat="43.24186" lon="5.36896">
        <ele>20.32</ele>
        <time>2016-04-20T15:50:55Z</time>
      </trkpt>
      <trkpt lat="43.24216" lon="5.36914">
        <ele>21.29</ele>
        <time>2016-04-20T15:51:08Z</time>
      </trkpt>
      <trkpt lat="43.24245" lon="5.3694">
        <ele>19.84</ele>
        <time>2016-04-20T15:51:21Z</time>
      </trkpt>
      <trkpt lat="43.24282" lon="5.36981">
        <ele>16.48</ele>
        <time>2016-04-20T15:51:37Z</time>
      </trkpt>
      <trkpt lat="43.24301" lon="5.37005">
        <ele>16.48</ele>
        <time>2016-04-20T15:51:47Z</time>
      </trkpt>
      <trkpt lat="43.24312" lon="5.3702">
        <ele>16.48</ele>
        <time>2016-04-20T15:51:51Z</time>
      </trkpt>
      <trkpt lat="43.24352" lon="5.37058">
        <ele>12.15</ele>
        <time>2016-04-20T15:52:04Z</time>
      </trkpt>
      <trkpt lat="43.2438" lon="5.37085">
        <ele>11.19</ele>
        <time>2016-04-20T15:52:10Z</time>
      </trkpt>
      <trkpt lat="43.24384" lon="5.37092">
        <ele>11.19</ele>
        <time>2016-04-20T15:52:11Z</time>
      </trkpt>
      <trkpt lat="43.24389" lon="5.37099">
        <ele>10.71</ele>
        <time>2016-04-20T15:52:12Z</time>
      </trkpt>
      <trkpt lat="43.24454" lon="5.37225">
        <ele>7.35</ele>
        <time>2016-04-20T15:52:25Z</time>
      </trkpt>
      <trkpt lat="43.24463" lon="5.37243">
        <ele>7.35</ele>
        <time>2016-04-20T15:52:27Z</time>
      </trkpt>
      <trkpt lat="43.24495" lon="5.3728">
        <ele>4.94</ele>
        <time>2016-04-20T15:52:37Z</time>
      </trkpt>
      <trkpt lat="43.24501" lon="5.3729">
        <ele>3.02</ele>
        <time>2016-04-20T15:52:46Z</time>
      </trkpt>
      <trkpt lat="43.24521" lon="5.37309">
        <ele>0.62</ele>
        <time>2016-04-20T15:52:54Z</time>
      </trkpt>
      <trkpt lat="43.24544" lon="5.37329">
        <ele>-0.82</ele>
        <time>2016-04-20T15:53:02Z</time>
      </trkpt>
      <trkpt lat="43.24557" lon="5.37339">
        <ele>-2.75</ele>
        <time>2016-04-20T15:53:09Z</time>
      </trkpt>
      <trkpt lat="43.2458" lon="5.37358">
        <ele>-3.23</ele>
        <time>2016-04-20T15:53:15Z</time>
      </trkpt>
      <trkpt lat="43.2459" lon="5.37372">
        <ele>-3.23</ele>
        <time>2016-04-20T15:53:17Z</time>
      </trkpt>
      <trkpt lat="43.24594" lon="5.37382">
        <ele>-3.71</ele>
        <time>2016-04-20T15:53:18Z</time>
      </trkpt>
      <trkpt lat="43.24602" lon="5.37403">
        <ele>-3.71</ele>
        <time>2016-04-20T15:53:20Z</time>
      </trkpt>
      <trkpt lat="43.24608" lon="5.37409">
        <ele>-4.19</ele>
        <time>2016-04-20T15:53:21Z</time>
      </trkpt>
      <trkpt lat="43.24614" lon="5.37411">
        <ele>-4.19</ele>
        <time>2016-04-20T15:53:22Z</time>
      </trkpt>
      <trkpt lat="43.24619" lon="5.37409">
        <ele>-4.19</ele>
        <time>2016-04-20T15:53:23Z</time>
      </trkpt>
      <trkpt lat="43.24625" lon="5.37403">
        <ele>-4.19</ele>
        <time>2016-04-20T15:53:24Z</time>
      </trkpt>
      <trkpt lat="43.24631" lon="5.37396">
        <ele>-4.19</ele>
        <time>2016-04-20T15:53:25Z</time>
      </trkpt>
      <trkpt lat="43.24638" lon="5.37391">
        <ele>-4.19</ele>
        <time>2016-04-20T15:53:26Z</time>
      </trkpt>
      <trkpt lat="43.24645" lon="5.37389">
        <ele>-4.67</ele>
        <time>2016-04-20T15:53:27Z</time>
      </trkpt>
      <trkpt lat="43.24653" lon="5.37388">
        <ele>-4.67</ele>
        <time>2016-04-20T15:53:28Z</time>
      </trkpt>
      <trkpt lat="43.24661" lon="5.37389">
        <ele>-4.67</ele>
        <time>2016-04-20T15:53:29Z</time>
      </trkpt>
      <trkpt lat="43.24669" lon="5.37391">
        <ele>-5.15</ele>
        <time>2016-04-20T15:53:30Z</time>
      </trkpt>
      <trkpt lat="43.2472" lon="5.37403">
        <ele>-4.19</ele>
        <time>2016-04-20T15:53:38Z</time>
      </trkpt>
      <trkpt lat="43.24731" lon="5.37409">
        <ele>-4.19</ele>
        <time>2016-04-20T15:53:40Z</time>
      </trkpt>
      <trkpt lat="43.24737" lon="5.37413">
        <ele>-4.19</ele>
        <time>2016-04-20T15:53:41Z</time>
      </trkpt>
      <trkpt lat="43.24741" lon="5.37418">
        <ele>-4.19</ele>
        <time>2016-04-20T15:53:42Z</time>
      </trkpt>
      <trkpt lat="43.24758" lon="5.3744">
        <ele>-2.27</ele>
        <time>2016-04-20T15:53:51Z</time>
      </trkpt>
      <trkpt lat="43.24775" lon="5.3746">
        <ele>-1.79</ele>
        <time>2016-04-20T15:54:05Z</time>
      </trkpt>
      <trkpt lat="43.24779" lon="5.37466">
        <ele>-1.3</ele>
        <time>2016-04-20T15:54:15Z</time>
      </trkpt>
      <trkpt lat="43.24796" lon="5.37486">
        <ele>-0.82</ele>
        <time>2016-04-20T15:54:38Z</time>
      </trkpt>
      <trkpt lat="43.24801" lon="5.3749">
        <ele>-0.82</ele>
        <time>2016-04-20T15:54:39Z</time>
      </trkpt>
      <trkpt lat="43.24808" lon="5.37492">
        <ele>-0.34</ele>
        <time>2016-04-20T15:54:40Z</time>
      </trkpt>
      <trkpt lat="43.24887" lon="5.37504">
        <ele>1.1</ele>
        <time>2016-04-20T15:54:48Z</time>
      </trkpt>
      <trkpt lat="43.25023" lon="5.37539">
        <ele>1.1</ele>
        <time>2016-04-20T15:54:59Z</time>
      </trkpt>
      <trkpt lat="43.2516" lon="5.37569">
        <ele>-1.3</ele>
        <time>2016-04-20T15:55:11Z</time>
      </trkpt>
      <trkpt lat="43.25242" lon="5.37587">
        <ele>-2.27</ele>
        <time>2016-04-20T15:55:21Z</time>
      </trkpt>
      <trkpt lat="43.25308" lon="5.37601">
        <ele>-1.79</ele>
        <time>2016-04-20T15:55:30Z</time>
      </trkpt>
      <trkpt lat="43.25393" lon="5.37619">
        <ele>-2.27</ele>
        <time>2016-04-20T15:55:41Z</time>
      </trkpt>
      <trkpt lat="43.25401" lon="5.3762">
        <ele>-2.75</ele>
        <time>2016-04-20T15:55:50Z</time>
      </trkpt>
      <trkpt lat="43.2541" lon="5.37624">
        <ele>-2.27</ele>
        <time>2016-04-20T15:56:03Z</time>
      </trkpt>
      <trkpt lat="43.25424" lon="5.3763">
        <ele>-1.79</ele>
        <time>2016-04-20T15:56:16Z</time>
      </trkpt>
      <trkpt lat="43.25443" lon="5.37647">
        <ele>-1.79</ele>
        <time>2016-04-20T15:56:22Z</time>
      </trkpt>
      <trkpt lat="43.25448" lon="5.3765">
        <ele>-1.79</ele>
        <time>2016-04-20T15:56:23Z</time>
      </trkpt>
      <trkpt lat="43.25454" lon="5.37651">
        <ele>-1.79</ele>
        <time>2016-04-20T15:56:24Z</time>
      </trkpt>
      <trkpt lat="43.25459" lon="5.3765">
        <ele>-1.3</ele>
        <time>2016-04-20T15:56:25Z</time>
      </trkpt>
      <trkpt lat="43.25465" lon="5.37647">
        <ele>-1.3</ele>
        <time>2016-04-20T15:56:26Z</time>
      </trkpt>
      <trkpt lat="43.25472" lon="5.37645">
        <ele>-1.3</ele>
        <time>2016-04-20T15:56:27Z</time>
      </trkpt>
      <trkpt lat="43.2548" lon="5.37643">
        <ele>-1.3</ele>
        <time>2016-04-20T15:56:28Z</time>
      </trkpt>
      <trkpt lat="43.25488" lon="5.37643">
        <ele>-1.3</ele>
        <time>2016-04-20T15:56:29Z</time>
      </trkpt>
      <trkpt lat="43.25496" lon="5.37643">
        <ele>-1.3</ele>
        <time>2016-04-20T15:56:30Z</time>
      </trkpt>
      <trkpt lat="43.25504" lon="5.37645">
        <ele>-1.3</ele>
        <time>2016-04-20T15:56:31Z</time>
      </trkpt>
      <trkpt lat="43.25626" lon="5.37669">
        <ele>-2.27</ele>
        <time>2016-04-20T15:56:48Z</time>
      </trkpt>
      <trkpt lat="43.25751" lon="5.37649">
        <ele>-1.79</ele>
        <time>2016-04-20T15:57:01Z</time>
      </trkpt>
      <trkpt lat="43.25891" lon="5.37598">
        <ele>1.1</ele>
        <time>2016-04-20T15:57:17Z</time>
      </trkpt>
      <trkpt lat="43.2601" lon="5.3755">
        <ele>2.06</ele>
        <time>2016-04-20T15:57:34Z</time>
      </trkpt>
      <trkpt lat="43.26102" lon="5.3751">
        <ele>3.98</ele>
        <time>2016-04-20T15:57:45Z</time>
      </trkpt>
      <trkpt lat="43.26178" lon="5.37485">
        <ele>3.98</ele>
        <time>2016-04-20T15:57:57Z</time>
      </trkpt>
      <trkpt lat="43.26194" lon="5.37487">
        <ele>3.5</ele>
        <time>2016-04-20T15:58:03Z</time>
      </trkpt>
      <trkpt lat="43.26198" lon="5.37485">
        <ele>3.5</ele>
        <time>2016-04-20T15:58:04Z</time>
      </trkpt>
      <trkpt lat="43.26203" lon="5.37483">
        <ele>3.5</ele>
        <time>2016-04-20T15:58:05Z</time>
      </trkpt>
      <trkpt lat="43.26263" lon="5.37445">
        <ele>2.06</ele>
        <time>2016-04-20T15:58:13Z</time>
      </trkpt>
      <trkpt lat="43.26359" lon="5.37401">
        <ele>2.06</ele>
        <time>2016-04-20T15:58:24Z</time>
      </trkpt>
      <trkpt lat="43.26402" lon="5.37383">
        <ele>1.58</ele>
        <time>2016-04-20T15:58:33Z</time>
      </trkpt>
      <trkpt lat="43.26412" lon="5.37379">
        <ele>1.58</ele>
        <time>2016-04-20T15:58:43Z</time>
      </trkpt>
      <trkpt lat="43.2647" lon="5.37351">
        <ele>1.58</ele>
        <time>2016-04-20T15:58:51Z</time>
      </trkpt>
      <trkpt lat="43.26592" lon="5.37299">
        <ele>1.1</ele>
        <time>2016-04-20T15:59:05Z</time>
      </trkpt>
      <trkpt lat="43.26715" lon="5.37248">
        <ele>1.1</ele>
        <time>2016-04-20T15:59:18Z</time>
      </trkpt>
      <trkpt lat="43.26803" lon="5.3717">
        <ele>0.62</ele>
        <time>2016-04-20T15:59:27Z</time>
      </trkpt>
      <trkpt lat="43.26867" lon="5.37072">
        <ele>1.1</ele>
        <time>2016-04-20T15:59:35Z</time>
      </trkpt>
      <trkpt lat="43.26899" lon="5.36971">
        <ele>2.54</ele>
        <time>2016-04-20T15:59:42Z</time>
      </trkpt>
      <trkpt lat="43.26901" lon="5.36956">
        <ele>3.02</ele>
        <time>2016-04-20T15:59:43Z</time>
      </trkpt>
      <trkpt lat="43.26902" lon="5.36941">
        <ele>3.5</ele>
        <time>2016-04-20T15:59:44Z</time>
      </trkpt>
      <trkpt lat="43.26902" lon="5.36927">
        <ele>3.5</ele>
        <time>2016-04-20T15:59:45Z</time>
      </trkpt>
      <trkpt lat="43.26901" lon="5.36914">
        <ele>3.98</ele>
        <time>2016-04-20T15:59:46Z</time>
      </trkpt>
      <trkpt lat="43.26896" lon="5.36859">
        <ele>6.39</ele>
        <time>2016-04-20T15:59:50Z</time>
      </trkpt>
      <trkpt lat="43.26897" lon="5.36846">
        <ele>6.87</ele>
        <time>2016-04-20T15:59:51Z</time>
      </trkpt>
      <trkpt lat="43.26899" lon="5.36832">
        <ele>7.35</ele>
        <time>2016-04-20T15:59:52Z</time>
      </trkpt>
      <trkpt lat="43.26903" lon="5.36817">
        <ele>7.35</ele>
        <time>2016-04-20T15:59:53Z</time>
      </trkpt>
      <trkpt lat="43.26908" lon="5.36802">
        <ele>7.83</ele>
        <time>2016-04-20T15:59:54Z</time>
      </trkpt>
      <trkpt lat="43.26964" lon="5.36656">
        <ele>10.71</ele>
        <time>2016-04-20T16:00:05Z</time>
      </trkpt>
      <trkpt lat="43.26992" lon="5.36613">
        <ele>11.19</ele>
        <time>2016-04-20T16:00:09Z</time>
      </trkpt>
      <trkpt lat="43.26998" lon="5.36601">
        <ele>11.67</ele>
        <time>2016-04-20T16:00:10Z</time>
      </trkpt>
      <trkpt lat="43.27003" lon="5.36587">
        <ele>11.67</ele>
        <time>2016-04-20T16:00:11Z</time>
      </trkpt>
      <trkpt lat="43.27007" lon="5.36572">
        <ele>11.67</ele>
        <time>2016-04-20T16:00:12Z</time>
      </trkpt>
      <trkpt lat="43.2701" lon="5.36557">
        <ele>11.67</ele>
        <time>2016-04-20T16:00:13Z</time>
      </trkpt>
      <trkpt lat="43.27013" lon="5.36542">
        <ele>11.67</ele>
        <time>2016-04-20T16:00:14Z</time>
      </trkpt>
      <trkpt lat="43.2704" lon="5.36393">
        <ele>12.15</ele>
        <time>2016-04-20T16:00:26Z</time>
      </trkpt>
      <trkpt lat="43.27044" lon="5.36375">
        <ele>12.63</ele>
        <time>2016-04-20T16:00:28Z</time>
      </trkpt>
      <trkpt lat="43.27047" lon="5.36369">
        <ele>12.63</ele>
        <time>2016-04-20T16:00:29Z</time>
      </trkpt>
      <trkpt lat="43.2705" lon="5.36364">
        <ele>12.63</ele>
        <time>2016-04-20T16:00:30Z</time>
      </trkpt>
      <trkpt lat="43.27052" lon="5.3636">
        <ele>12.63</ele>
        <time>2016-04-20T16:00:31Z</time>
      </trkpt>
      <trkpt lat="43.27054" lon="5.36359">
        <ele>13.12</ele>
        <time>2016-04-20T16:00:32Z</time>
      </trkpt>
      <trkpt lat="43.27055" lon="5.36358">
        <ele>13.12</ele>
        <time>2016-04-20T16:00:33Z</time>
      </trkpt>
      <trkpt lat="43.27057" lon="5.36354">
        <ele>12.63</ele>
        <time>2016-04-20T16:00:48Z</time>
      </trkpt>
      <trkpt lat="43.27058" lon="5.36352">
        <ele>12.15</ele>
        <time>2016-04-20T16:00:49Z</time>
      </trkpt>
      <trkpt lat="43.2706" lon="5.36348">
        <ele>12.15</ele>
        <time>2016-04-20T16:00:50Z</time>
      </trkpt>
      <trkpt lat="43.27064" lon="5.36344">
        <ele>12.15</ele>
        <time>2016-04-20T16:00:51Z</time>
      </trkpt>
      <trkpt lat="43.27068" lon="5.36338">
        <ele>12.15</ele>
        <time>2016-04-20T16:00:52Z</time>
      </trkpt>
      <trkpt lat="43.27073" lon="5.36333">
        <ele>11.67</ele>
        <time>2016-04-20T16:00:53Z</time>
      </trkpt>
      <trkpt lat="43.27101" lon="5.36305">
        <ele>10.71</ele>
        <time>2016-04-20T16:00:57Z</time>
      </trkpt>
      <trkpt lat="43.27109" lon="5.363">
        <ele>10.71</ele>
        <time>2016-04-20T16:00:58Z</time>
      </trkpt>
      <trkpt lat="43.27118" lon="5.36296">
        <ele>10.23</ele>
        <time>2016-04-20T16:00:59Z</time>
      </trkpt>
      <trkpt lat="43.27125" lon="5.36294">
        <ele>10.23</ele>
        <time>2016-04-20T16:01:00Z</time>
      </trkpt>
      <trkpt lat="43.27133" lon="5.36293">
        <ele>10.23</ele>
        <time>2016-04-20T16:01:01Z</time>
      </trkpt>
      <trkpt lat="43.27228" lon="5.36277">
        <ele>10.23</ele>
        <time>2016-04-20T16:01:12Z</time>
      </trkpt>
      <trkpt lat="43.27238" lon="5.36279">
        <ele>10.23</ele>
        <time>2016-04-20T16:01:13Z</time>
      </trkpt>
      <trkpt lat="43.27311" lon="5.36302">
        <ele>9.27</ele>
        <time>2016-04-20T16:01:21Z</time>
      </trkpt>
      <trkpt lat="43.2732" lon="5.36302">
        <ele>8.79</ele>
        <time>2016-04-20T16:01:22Z</time>
      </trkpt>
      <trkpt lat="43.2733" lon="5.36298">
        <ele>8.79</ele>
        <time>2016-04-20T16:01:23Z</time>
      </trkpt>
      <trkpt lat="43.27339" lon="5.36292">
        <ele>8.31</ele>
        <time>2016-04-20T16:01:24Z</time>
      </trkpt>
      <trkpt lat="43.27347" lon="5.36286">
        <ele>7.83</ele>
        <time>2016-04-20T16:01:25Z</time>
      </trkpt>
      <trkpt lat="43.27356" lon="5.36279">
        <ele>7.35</ele>
        <time>2016-04-20T16:01:26Z</time>
      </trkpt>
      <trkpt lat="43.27423" lon="5.36216">
        <ele>4.94</ele>
        <time>2016-04-20T16:01:34Z</time>
      </trkpt>
      <trkpt lat="43.2743" lon="5.36207">
        <ele>4.94</ele>
        <time>2016-04-20T16:01:35Z</time>
      </trkpt>
      <trkpt lat="43.27437" lon="5.36197">
        <ele>4.46</ele>
        <time>2016-04-20T16:01:36Z</time>
      </trkpt>
      <trkpt lat="43.27442" lon="5.36186">
        <ele>4.46</ele>
        <time>2016-04-20T16:01:37Z</time>
      </trkpt>
      <trkpt lat="43.27447" lon="5.36173">
        <ele>4.46</ele>
        <time>2016-04-20T16:01:38Z</time>
      </trkpt>
      <trkpt lat="43.2745" lon="5.36162">
        <ele>4.46</ele>
        <time>2016-04-20T16:01:39Z</time>
      </trkpt>
      <trkpt lat="43.27453" lon="5.36152">
        <ele>4.46</ele>
        <time>2016-04-20T16:01:40Z</time>
      </trkpt>
      <trkpt lat="43.27455" lon="5.36142">
        <ele>3.98</ele>
        <time>2016-04-20T16:01:41Z</time>
      </trkpt>
      <trkpt lat="43.27462" lon="5.36109">
        <ele>2.54</ele>
        <time>2016-04-20T16:01:48Z</time>
      </trkpt>
      <trkpt lat="43.27461" lon="5.36091">
        <ele>1.1</ele>
        <time>2016-04-20T16:01:54Z</time>
      </trkpt>
      <trkpt lat="43.27469" lon="5.36055">
        <ele>1.1</ele>
        <time>2016-04-20T16:01:58Z</time>
      </trkpt>
      <trkpt lat="43.27472" lon="5.36047">
        <ele>1.1</ele>
        <time>2016-04-20T16:01:59Z</time>
      </trkpt>
      <trkpt lat="43.27476" lon="5.36039">
        <ele>1.1</ele>
        <time>2016-04-20T16:02:00Z</time>
      </trkpt>
      <trkpt lat="43.27481" lon="5.36033">
        <ele>1.1</ele>
        <time>2016-04-20T16:02:01Z</time>
      </trkpt>
      <trkpt lat="43.27487" lon="5.36028">
        <ele>1.58</ele>
        <time>2016-04-20T16:02:02Z</time>
      </trkpt>
      <trkpt lat="43.27493" lon="5.36024">
        <ele>1.58</ele>
        <time>2016-04-20T16:02:03Z</time>
      </trkpt>
      <trkpt lat="43.275" lon="5.36022">
        <ele>1.58</ele>
        <time>2016-04-20T16:02:04Z</time>
      </trkpt>
      <trkpt lat="43.27505" lon="5.36021">
        <ele>1.58</ele>
        <time>2016-04-20T16:02:05Z</time>
      </trkpt>
      <trkpt lat="43.27511" lon="5.3602">
        <ele>1.58</ele>
        <time>2016-04-20T16:02:06Z</time>
      </trkpt>
      <trkpt lat="43.27536" lon="5.3602">
        <ele>2.06</ele>
        <time>2016-04-20T16:02:10Z</time>
      </trkpt>
      <trkpt lat="43.27548" lon="5.36024">
        <ele>2.54</ele>
        <time>2016-04-20T16:02:12Z</time>
      </trkpt>
      <trkpt lat="43.27553" lon="5.36028">
        <ele>2.54</ele>
        <time>2016-04-20T16:02:13Z</time>
      </trkpt>
      <trkpt lat="43.27558" lon="5.36033">
        <ele>2.54</ele>
        <time>2016-04-20T16:02:14Z</time>
      </trkpt>
      <trkpt lat="43.27563" lon="5.3604">
        <ele>3.02</ele>
        <time>2016-04-20T16:02:15Z</time>
      </trkpt>
      <trkpt lat="43.27566" lon="5.36047">
        <ele>3.02</ele>
        <time>2016-04-20T16:02:16Z</time>
      </trkpt>
      <trkpt lat="43.2757" lon="5.36055">
        <ele>3.02</ele>
        <time>2016-04-20T16:02:17Z</time>
      </trkpt>
      <trkpt lat="43.27573" lon="5.36063">
        <ele>3.02</ele>
        <time>2016-04-20T16:02:18Z</time>
      </trkpt>
      <trkpt lat="43.27576" lon="5.36069">
        <ele>3.02</ele>
        <time>2016-04-20T16:02:19Z</time>
      </trkpt>
      <trkpt lat="43.27578" lon="5.36074">
        <ele>3.02</ele>
        <time>2016-04-20T16:02:20Z</time>
      </trkpt>
      <trkpt lat="43.27587" lon="5.3609">
        <ele>2.06</ele>
        <time>2016-04-20T16:02:29Z</time>
      </trkpt>
      <trkpt lat="43.27621" lon="5.36119">
        <ele>0.62</ele>
        <time>2016-04-20T16:02:38Z</time>
      </trkpt>
      <trkpt lat="43.27632" lon="5.36126">
        <ele>1.1</ele>
        <time>2016-04-20T16:02:41Z</time>
      </trkpt>
      <trkpt lat="43.27674" lon="5.36162">
        <ele>3.02</ele>
        <time>2016-04-20T16:02:53Z</time>
      </trkpt>
      <trkpt lat="43.277" lon="5.36176">
        <ele>4.46</ele>
        <time>2016-04-20T16:02:58Z</time>
      </trkpt>
      <trkpt lat="43.27731" lon="5.36194">
        <ele>5.42</ele>
        <time>2016-04-20T16:03:04Z</time>
      </trkpt>
      <trkpt lat="43.27736" lon="5.36197">
        <ele>5.42</ele>
        <time>2016-04-20T16:03:05Z</time>
      </trkpt>
      <trkpt lat="43.27802" lon="5.36267">
        <ele>7.83</ele>
        <time>2016-04-20T16:03:18Z</time>
      </trkpt>
      <trkpt lat="43.27838" lon="5.363">
        <ele>11.67</ele>
        <time>2016-04-20T16:03:27Z</time>
      </trkpt>
      <trkpt lat="43.27849" lon="5.36309">
        <ele>14.08</ele>
        <time>2016-04-20T16:03:47Z</time>
      </trkpt>
      <trkpt lat="43.27917" lon="5.36337">
        <ele>19.36</ele>
        <time>2016-04-20T16:03:57Z</time>
      </trkpt>
      <trkpt lat="43.27975" lon="5.36361">
        <ele>22.73</ele>
        <time>2016-04-20T16:04:03Z</time>
      </trkpt>
      <trkpt lat="43.27984" lon="5.36367">
        <ele>23.21</ele>
        <time>2016-04-20T16:04:04Z</time>
      </trkpt>
      <trkpt lat="43.27993" lon="5.36375">
        <ele>24.17</ele>
        <time>2016-04-20T16:04:05Z</time>
      </trkpt>
      <trkpt lat="43.28001" lon="5.36385">
        <ele>25.13</ele>
        <time>2016-04-20T16:04:06Z</time>
      </trkpt>
      <trkpt lat="43.28009" lon="5.36397">
        <ele>26.09</ele>
        <time>2016-04-20T16:04:07Z</time>
      </trkpt>
      <trkpt lat="43.28015" lon="5.36408">
        <ele>27.05</ele>
        <time>2016-04-20T16:04:08Z</time>
      </trkpt>
      <trkpt lat="43.2802" lon="5.36421">
        <ele>28.02</ele>
        <time>2016-04-20T16:04:09Z</time>
      </trkpt>
      <trkpt lat="43.28024" lon="5.36434">
        <ele>28.5</ele>
        <time>2016-04-20T16:04:10Z</time>
      </trkpt>
      <trkpt lat="43.28026" lon="5.36449">
        <ele>28.98</ele>
        <time>2016-04-20T16:04:11Z</time>
      </trkpt>
      <trkpt lat="43.28029" lon="5.36462">
        <ele>29.46</ele>
        <time>2016-04-20T16:04:12Z</time>
      </trkpt>
      <trkpt lat="43.28045" lon="5.36528">
        <ele>32.34</ele>
        <time>2016-04-20T16:04:18Z</time>
      </trkpt>
      <trkpt lat="43.28068" lon="5.36625">
        <ele>39.07</ele>
        <time>2016-04-20T16:04:31Z</time>
      </trkpt>
      <trkpt lat="43.28103" lon="5.36705">
        <ele>46.28</ele>
        <time>2016-04-20T16:04:43Z</time>
      </trkpt>
      <trkpt lat="43.28104" lon="5.36712">
        <ele>46.76</ele>
        <time>2016-04-20T16:04:44Z</time>
      </trkpt>
      <trkpt lat="43.28103" lon="5.36718">
        <ele>47.72</ele>
        <time>2016-04-20T16:04:45Z</time>
      </trkpt>
      <trkpt lat="43.28092" lon="5.36797">
        <ele>53.97</ele>
        <time>2016-04-20T16:04:59Z</time>
      </trkpt>
      <trkpt lat="43.28091" lon="5.36802">
        <ele>54.45</ele>
        <time>2016-04-20T16:05:00Z</time>
      </trkpt>
      <trkpt lat="43.28089" lon="5.36808">
        <ele>54.93</ele>
        <time>2016-04-20T16:05:01Z</time>
      </trkpt>
      <trkpt lat="43.28087" lon="5.36813">
        <ele>54.93</ele>
        <time>2016-04-20T16:05:02Z</time>
      </trkpt>
      <trkpt lat="43.28084" lon="5.36818">
        <ele>55.41</ele>
        <time>2016-04-20T16:05:03Z</time>
      </trkpt>
      <trkpt lat="43.28079" lon="5.36825">
        <ele>56.37</ele>
        <time>2016-04-20T16:05:04Z</time>
      </trkpt>
      <trkpt lat="43.28073" lon="5.36833">
        <ele>56.86</ele>
        <time>2016-04-20T16:05:05Z</time>
      </trkpt>
      <trkpt lat="43.28069" lon="5.36838">
        <ele>57.34</ele>
        <time>2016-04-20T16:05:06Z</time>
      </trkpt>
      <trkpt lat="43.28064" lon="5.36844">
        <ele>57.82</ele>
        <time>2016-04-20T16:05:07Z</time>
      </trkpt>
      <trkpt lat="43.28051" lon="5.36858">
        <ele>60.22</ele>
        <time>2016-04-20T16:05:10Z</time>
      </trkpt>
      <trkpt lat="43.28048" lon="5.36864">
        <ele>60.7</ele>
        <time>2016-04-20T16:05:11Z</time>
      </trkpt>
      <trkpt lat="43.28046" lon="5.36871">
        <ele>61.18</ele>
        <time>2016-04-20T16:05:12Z</time>
      </trkpt>
      <trkpt lat="43.28046" lon="5.36878">
        <ele>61.66</ele>
        <time>2016-04-20T16:05:13Z</time>
      </trkpt>
      <trkpt lat="43.28047" lon="5.36885">
        <ele>62.14</ele>
        <time>2016-04-20T16:05:14Z</time>
      </trkpt>
      <trkpt lat="43.28049" lon="5.36892">
        <ele>63.1</ele>
        <time>2016-04-20T16:05:15Z</time>
      </trkpt>
      <trkpt lat="43.28052" lon="5.36897">
        <ele>63.58</ele>
        <time>2016-04-20T16:05:16Z</time>
      </trkpt>
      <trkpt lat="43.28055" lon="5.369">
        <ele>64.07</ele>
        <time>2016-04-20T16:05:17Z</time>
      </trkpt>
      <trkpt lat="43.28059" lon="5.36902">
        <ele>65.03</ele>
        <time>2016-04-20T16:05:18Z</time>
      </trkpt>
      <trkpt lat="43.28063" lon="5.36901">
        <ele>65.51</ele>
        <time>2016-04-20T16:05:19Z</time>
      </trkpt>
      <trkpt lat="43.28067" lon="5.36899">
        <ele>65.99</ele>
        <time>2016-04-20T16:05:20Z</time>
      </trkpt>
      <trkpt lat="43.28072" lon="5.36896">
        <ele>66.47</ele>
        <time>2016-04-20T16:05:21Z</time>
      </trkpt>
      <trkpt lat="43.28112" lon="5.36895">
        <ele>68.87</ele>
        <time>2016-04-20T16:05:32Z</time>
      </trkpt>
      <trkpt lat="43.28129" lon="5.36902">
        <ele>69.83</ele>
        <time>2016-04-20T16:05:35Z</time>
      </trkpt>
      <trkpt lat="43.28134" lon="5.36902">
        <ele>69.83</ele>
        <time>2016-04-20T16:05:36Z</time>
      </trkpt>
      <trkpt lat="43.2814" lon="5.369">
        <ele>69.83</ele>
        <time>2016-04-20T16:05:37Z</time>
      </trkpt>
      <trkpt lat="43.28146" lon="5.3689">
        <ele>71.27</ele>
        <time>2016-04-20T16:05:39Z</time>
      </trkpt>
      <trkpt lat="43.28148" lon="5.36882">
        <ele>71.76</ele>
        <time>2016-04-20T16:05:40Z</time>
      </trkpt>
      <trkpt lat="43.28149" lon="5.36873">
        <ele>71.76</ele>
        <time>2016-04-20T16:05:41Z</time>
      </trkpt>
      <trkpt lat="43.28149" lon="5.36864">
        <ele>72.24</ele>
        <time>2016-04-20T16:05:42Z</time>
      </trkpt>
      <trkpt lat="43.28149" lon="5.36854">
        <ele>72.72</ele>
        <time>2016-04-20T16:05:43Z</time>
      </trkpt>
      <trkpt lat="43.28149" lon="5.36826">
        <ele>74.16</ele>
        <time>2016-04-20T16:05:46Z</time>
      </trkpt>
      <trkpt lat="43.28151" lon="5.36818">
        <ele>74.64</ele>
        <time>2016-04-20T16:05:47Z</time>
      </trkpt>
      <trkpt lat="43.28153" lon="5.36812">
        <ele>74.64</ele>
        <time>2016-04-20T16:05:48Z</time>
      </trkpt>
      <trkpt lat="43.2816" lon="5.36794">
        <ele>79.45</ele>
        <time>2016-04-20T16:05:57Z</time>
      </trkpt>
      <trkpt lat="43.28166" lon="5.36781">
        <ele>81.85</ele>
        <time>2016-04-20T16:06:02Z</time>
      </trkpt>
      <trkpt lat="43.28182" lon="5.36763">
        <ele>83.77</ele>
        <time>2016-04-20T16:06:06Z</time>
      </trkpt>
      <trkpt lat="43.28188" lon="5.36759">
        <ele>84.25</ele>
        <time>2016-04-20T16:06:07Z</time>
      </trkpt>
      <trkpt lat="43.28194" lon="5.36759">
        <ele>84.25</ele>
        <time>2016-04-20T16:06:08Z</time>
      </trkpt>
      <trkpt lat="43.28199" lon="5.36761">
        <ele>84.73</ele>
        <time>2016-04-20T16:06:09Z</time>
      </trkpt>
      <trkpt lat="43.28203" lon="5.36764">
        <ele>85.21</ele>
        <time>2016-04-20T16:06:10Z</time>
      </trkpt>
      <trkpt lat="43.28207" lon="5.36768">
        <ele>85.69</ele>
        <time>2016-04-20T16:06:11Z</time>
      </trkpt>
      <trkpt lat="43.28236" lon="5.368">
        <ele>86.18</ele>
        <time>2016-04-20T16:06:16Z</time>
      </trkpt>
      <trkpt lat="43.28261" lon="5.36819">
        <ele>86.66</ele>
        <time>2016-04-20T16:06:21Z</time>
      </trkpt>
      <trkpt lat="43.28266" lon="5.3682">
        <ele>86.66</ele>
        <time>2016-04-20T16:06:22Z</time>
      </trkpt>
      <trkpt lat="43.2827" lon="5.36821">
        <ele>86.66</ele>
        <time>2016-04-20T16:06:23Z</time>
      </trkpt>
      <trkpt lat="43.28275" lon="5.3682">
        <ele>86.18</ele>
        <time>2016-04-20T16:06:24Z</time>
      </trkpt>
      <trkpt lat="43.28279" lon="5.36818">
        <ele>86.18</ele>
        <time>2016-04-20T16:06:25Z</time>
      </trkpt>
      <trkpt lat="43.28283" lon="5.36816">
        <ele>86.18</ele>
        <time>2016-04-20T16:06:26Z</time>
      </trkpt>
      <trkpt lat="43.28289" lon="5.3681">
        <ele>86.18</ele>
        <time>2016-04-20T16:06:27Z</time>
      </trkpt>
      <trkpt lat="43.28295" lon="5.36804">
        <ele>86.18</ele>
        <time>2016-04-20T16:06:28Z</time>
      </trkpt>
      <trkpt lat="43.28309" lon="5.36791">
        <ele>86.18</ele>
        <time>2016-04-20T16:06:31Z</time>
      </trkpt>
      <trkpt lat="43.28333" lon="5.36773">
        <ele>86.18</ele>
        <time>2016-04-20T16:06:36Z</time>
      </trkpt>
      <trkpt lat="43.28394" lon="5.36746">
        <ele>84.73</ele>
        <time>2016-04-20T16:06:45Z</time>
      </trkpt>
      <trkpt lat="43.28401" lon="5.36747">
        <ele>84.73</ele>
        <time>2016-04-20T16:06:46Z</time>
      </trkpt>
      <trkpt lat="43.28416" lon="5.3675">
        <ele>83.77</ele>
        <time>2016-04-20T16:06:48Z</time>
      </trkpt>
      <trkpt lat="43.28431" lon="5.36758">
        <ele>82.81</ele>
        <time>2016-04-20T16:06:50Z</time>
      </trkpt>
      <trkpt lat="43.28437" lon="5.36764">
        <ele>82.81</ele>
        <time>2016-04-20T16:06:51Z</time>
      </trkpt>
      <trkpt lat="43.28442" lon="5.36771">
        <ele>82.33</ele>
        <time>2016-04-20T16:06:52Z</time>
      </trkpt>
      <trkpt lat="43.28448" lon="5.36779">
        <ele>81.85</ele>
        <time>2016-04-20T16:06:53Z</time>
      </trkpt>
      <trkpt lat="43.28454" lon="5.36789">
        <ele>81.37</ele>
        <time>2016-04-20T16:06:54Z</time>
      </trkpt>
      <trkpt lat="43.2846" lon="5.36799">
        <ele>81.37</ele>
        <time>2016-04-20T16:06:55Z</time>
      </trkpt>
      <trkpt lat="43.28464" lon="5.36811">
        <ele>80.89</ele>
        <time>2016-04-20T16:06:56Z</time>
      </trkpt>
      <trkpt lat="43.28469" lon="5.36824">
        <ele>79.93</ele>
        <time>2016-04-20T16:06:57Z</time>
      </trkpt>
      <trkpt lat="43.2849" lon="5.36884">
        <ele>78</ele>
        <time>2016-04-20T16:07:03Z</time>
      </trkpt>
      <trkpt lat="43.28494" lon="5.36887">
        <ele>78</ele>
        <time>2016-04-20T16:07:04Z</time>
      </trkpt>
      <trkpt lat="43.28498" lon="5.36886">
        <ele>78</ele>
        <time>2016-04-20T16:07:05Z</time>
      </trkpt>
      <trkpt lat="43.28502" lon="5.36881">
        <ele>78</ele>
        <time>2016-04-20T16:07:06Z</time>
      </trkpt>
      <trkpt lat="43.28505" lon="5.36873">
        <ele>78</ele>
        <time>2016-04-20T16:07:07Z</time>
      </trkpt>
      <trkpt lat="43.28507" lon="5.36861">
        <ele>77.52</ele>
        <time>2016-04-20T16:07:08Z</time>
      </trkpt>
      <trkpt lat="43.28507" lon="5.36848">
        <ele>77.52</ele>
        <time>2016-04-20T16:07:09Z</time>
      </trkpt>
      <trkpt lat="43.28504" lon="5.36836">
        <ele>77.04</ele>
        <time>2016-04-20T16:07:10Z</time>
      </trkpt>
      <trkpt lat="43.28501" lon="5.36823">
        <ele>76.56</ele>
        <time>2016-04-20T16:07:11Z</time>
      </trkpt>
      <trkpt lat="43.28494" lon="5.36785">
        <ele>75.12</ele>
        <time>2016-04-20T16:07:14Z</time>
      </trkpt>
      <trkpt lat="43.28496" lon="5.36774">
        <ele>74.16</ele>
        <time>2016-04-20T16:07:15Z</time>
      </trkpt>
      <trkpt lat="43.28499" lon="5.36764">
        <ele>73.68</ele>
        <time>2016-04-20T16:07:16Z</time>
      </trkpt>
      <trkpt lat="43.28504" lon="5.36756">
        <ele>73.2</ele>
        <time>2016-04-20T16:07:17Z</time>
      </trkpt>
      <trkpt lat="43.2851" lon="5.36747">
        <ele>73.2</ele>
        <time>2016-04-20T16:07:18Z</time>
      </trkpt>
      <trkpt lat="43.28517" lon="5.36739">
        <ele>73.2</ele>
        <time>2016-04-20T16:07:19Z</time>
      </trkpt>
      <trkpt lat="43.28524" lon="5.36732">
        <ele>73.2</ele>
        <time>2016-04-20T16:07:20Z</time>
      </trkpt>
      <trkpt lat="43.28532" lon="5.36726">
        <ele>73.2</ele>
        <time>2016-04-20T16:07:21Z</time>
      </trkpt>
      <trkpt lat="43.2854" lon="5.36722">
        <ele>73.2</ele>
        <time>2016-04-20T16:07:22Z</time>
      </trkpt>
      <trkpt lat="43.28548" lon="5.36718">
        <ele>73.2</ele>
        <time>2016-04-20T16:07:23Z</time>
      </trkpt>
      <trkpt lat="43.28557" lon="5.36715">
        <ele>73.2</ele>
        <time>2016-04-20T16:07:24Z</time>
      </trkpt>
      <trkpt lat="43.28649" lon="5.36686">
        <ele>72.72</ele>
        <time>2016-04-20T16:07:37Z</time>
      </trkpt>
      <trkpt lat="43.28652" lon="5.36682">
        <ele>72.72</ele>
        <time>2016-04-20T16:07:38Z</time>
      </trkpt>
      <trkpt lat="43.28655" lon="5.36679">
        <ele>72.72</ele>
        <time>2016-04-20T16:07:39Z</time>
      </trkpt>
      <trkpt lat="43.28669" lon="5.36668">
        <ele>73.2</ele>
        <time>2016-04-20T16:07:50Z</time>
      </trkpt>
      <trkpt lat="43.28718" lon="5.36679">
        <ele>72.24</ele>
        <time>2016-04-20T16:07:58Z</time>
      </trkpt>
      <trkpt lat="43.28773" lon="5.3667">
        <ele>72.24</ele>
        <time>2016-04-20T16:08:05Z</time>
      </trkpt>
      <trkpt lat="43.28776" lon="5.3667">
        <ele>72.24</ele>
        <time>2016-04-20T16:08:06Z</time>
      </trkpt>
      <trkpt lat="43.28785" lon="5.36675">
        <ele>72.72</ele>
        <time>2016-04-20T16:08:16Z</time>
      </trkpt>
      <trkpt lat="43.28784" lon="5.36673">
        <ele>72.24</ele>
        <time>2016-04-20T16:09:14Z</time>
      </trkpt>
      <trkpt lat="43.28785" lon="5.36673">
        <ele>71.76</ele>
        <time>2016-04-20T16:09:15Z</time>
      </trkpt>
      <trkpt lat="43.28787" lon="5.36672">
        <ele>71.76</ele>
        <time>2016-04-20T16:09:16Z</time>
      </trkpt>
      <trkpt lat="43.28804" lon="5.36672">
        <ele>68.87</ele>
        <time>2016-04-20T16:09:25Z</time>
      </trkpt>
      <trkpt lat="43.28811" lon="5.3667">
        <ele>65.51</ele>
        <time>2016-04-20T16:09:41Z</time>
      </trkpt>
      <trkpt lat="43.28877" lon="5.36646">
        <ele>60.22</ele>
        <time>2016-04-20T16:09:53Z</time>
      </trkpt>
      <trkpt lat="43.28994" lon="5.36574">
        <ele>59.74</ele>
        <time>2016-04-20T16:10:17Z</time>
      </trkpt>
      <trkpt lat="43.28922" lon="5.36617">
        <ele>58.3</ele>
        <time>2016-04-20T16:10:26Z</time>
      </trkpt>
      <trkpt lat="43.28908" lon="5.3662">
        <ele>58.3</ele>
        <time>2016-04-20T16:10:45Z</time>
      </trkpt>
      <trkpt lat="43.28911" lon="5.3662">
        <ele>58.3</ele>
        <time>2016-04-20T16:10:52Z</time>
      </trkpt>
      <trkpt lat="43.28901" lon="5.36609">
        <ele>56.37</ele>
        <time>2016-04-20T16:10:57Z</time>
      </trkpt>
      <trkpt lat="43.2887" lon="5.36553">
        <ele>51.09</ele>
        <time>2016-04-20T16:11:08Z</time>
      </trkpt>
      <trkpt lat="43.28864" lon="5.3653">
        <ele>50.13</ele>
        <time>2016-04-20T16:11:15Z</time>
      </trkpt>
      <trkpt lat="43.28862" lon="5.36524">
        <ele>50.13</ele>
        <time>2016-04-20T16:11:16Z</time>
      </trkpt>
      <trkpt lat="43.28859" lon="5.36517">
        <ele>50.13</ele>
        <time>2016-04-20T16:11:17Z</time>
      </trkpt>
      <trkpt lat="43.28838" lon="5.3646">
        <ele>51.57</ele>
        <time>2016-04-20T16:11:25Z</time>
      </trkpt>
      <trkpt lat="43.28784" lon="5.36426">
        <ele>50.13</ele>
        <time>2016-04-20T16:19:04Z</time>
      </trkpt>
      <trkpt lat="43.28786" lon="5.36404">
        <ele>53.49</ele>
        <time>2016-04-20T16:19:51Z</time>
      </trkpt>
      <trkpt lat="43.28795" lon="5.36384">
        <ele>46.76</ele>
        <time>2016-04-20T16:20:23Z</time>
      </trkpt>
      <trkpt lat="43.23714" lon="5.49936">
        <ele>247.2</ele>
        <time>2016-04-21T08:24:58Z</time>
      </trkpt>
      <trkpt lat="43.23709" lon="5.49925">
        <ele>237.58</ele>
        <time>2016-04-21T08:25:09Z</time>
      </trkpt>
      <trkpt lat="43.23705" lon="5.49926">
        <ele>235.66</ele>
        <time>2016-04-21T08:25:14Z</time>
      </trkpt>
      <trkpt lat="43.23668" lon="5.49956">
        <ele>228.93</ele>
        <time>2016-04-21T08:25:29Z</time>
      </trkpt>
      <trkpt lat="43.23618" lon="5.49974">
        <ele>227.97</ele>
        <time>2016-04-21T08:25:43Z</time>
      </trkpt>
      <trkpt lat="43.2356" lon="5.49982">
        <ele>225.09</ele>
        <time>2016-04-21T08:25:58Z</time>
      </trkpt>
      <trkpt lat="43.23549" lon="5.49982">
        <ele>224.61</ele>
        <time>2016-04-21T08:26:00Z</time>
      </trkpt>
      <trkpt lat="43.23545" lon="5.49983">
        <ele>224.12</ele>
        <time>2016-04-21T08:26:01Z</time>
      </trkpt>
      <trkpt lat="43.23541" lon="5.49985">
        <ele>223.64</ele>
        <time>2016-04-21T08:26:02Z</time>
      </trkpt>
      <trkpt lat="43.23536" lon="5.49989">
        <ele>223.16</ele>
        <time>2016-04-21T08:26:03Z</time>
      </trkpt>
      <trkpt lat="43.23532" lon="5.49993">
        <ele>222.68</ele>
        <time>2016-04-21T08:26:04Z</time>
      </trkpt>
      <trkpt lat="43.23527" lon="5.49999">
        <ele>222.68</ele>
        <time>2016-04-21T08:26:05Z</time>
      </trkpt>
      <trkpt lat="43.23504" lon="5.50019">
        <ele>222.2</ele>
        <time>2016-04-21T08:26:09Z</time>
      </trkpt>
      <trkpt lat="43.23498" lon="5.50023">
        <ele>222.2</ele>
        <time>2016-04-21T08:26:10Z</time>
      </trkpt>
      <trkpt lat="43.23492" lon="5.50026">
        <ele>222.2</ele>
        <time>2016-04-21T08:26:11Z</time>
      </trkpt>
      <trkpt lat="43.23462" lon="5.50036">
        <ele>220.76</ele>
        <time>2016-04-21T08:26:17Z</time>
      </trkpt>
      <trkpt lat="43.23458" lon="5.50036">
        <ele>220.76</ele>
        <time>2016-04-21T08:26:18Z</time>
      </trkpt>
      <trkpt lat="43.23454" lon="5.50034">
        <ele>220.76</ele>
        <time>2016-04-21T08:26:19Z</time>
      </trkpt>
      <trkpt lat="43.23451" lon="5.50031">
        <ele>220.76</ele>
        <time>2016-04-21T08:26:20Z</time>
      </trkpt>
      <trkpt lat="43.23449" lon="5.50026">
        <ele>220.28</ele>
        <time>2016-04-21T08:26:21Z</time>
      </trkpt>
      <trkpt lat="43.23447" lon="5.5002">
        <ele>220.28</ele>
        <time>2016-04-21T08:26:22Z</time>
      </trkpt>
      <trkpt lat="43.23447" lon="5.50013">
        <ele>219.8</ele>
        <time>2016-04-21T08:26:23Z</time>
      </trkpt>
      <trkpt lat="43.23447" lon="5.50005">
        <ele>219.8</ele>
        <time>2016-04-21T08:26:24Z</time>
      </trkpt>
      <trkpt lat="43.23447" lon="5.49995">
        <ele>219.32</ele>
        <time>2016-04-21T08:26:25Z</time>
      </trkpt>
      <trkpt lat="43.23461" lon="5.49845">
        <ele>213.07</ele>
        <time>2016-04-21T08:26:40Z</time>
      </trkpt>
      <trkpt lat="43.23462" lon="5.4983">
        <ele>212.11</ele>
        <time>2016-04-21T08:26:42Z</time>
      </trkpt>
      <trkpt lat="43.23479" lon="5.49737">
        <ele>207.3</ele>
        <time>2016-04-21T08:26:52Z</time>
      </trkpt>
      <trkpt lat="43.23479" lon="5.49729">
        <ele>206.82</ele>
        <time>2016-04-21T08:26:53Z</time>
      </trkpt>
      <trkpt lat="43.23476" lon="5.49722">
        <ele>206.34</ele>
        <time>2016-04-21T08:26:54Z</time>
      </trkpt>
      <trkpt lat="43.23471" lon="5.49716">
        <ele>205.86</ele>
        <time>2016-04-21T08:26:55Z</time>
      </trkpt>
      <trkpt lat="43.23465" lon="5.4971">
        <ele>205.38</ele>
        <time>2016-04-21T08:26:56Z</time>
      </trkpt>
      <trkpt lat="43.23395" lon="5.49641">
        <ele>201.53</ele>
        <time>2016-04-21T08:27:07Z</time>
      </trkpt>
      <trkpt lat="43.2339" lon="5.49633">
        <ele>201.05</ele>
        <time>2016-04-21T08:27:08Z</time>
      </trkpt>
      <trkpt lat="43.23386" lon="5.49625">
        <ele>200.57</ele>
        <time>2016-04-21T08:27:09Z</time>
      </trkpt>
      <trkpt lat="43.23379" lon="5.49603">
        <ele>199.13</ele>
        <time>2016-04-21T08:27:12Z</time>
      </trkpt>
      <trkpt lat="43.23378" lon="5.49597">
        <ele>198.17</ele>
        <time>2016-04-21T08:27:13Z</time>
      </trkpt>
      <trkpt lat="43.23378" lon="5.4959">
        <ele>197.69</ele>
        <time>2016-04-21T08:27:14Z</time>
      </trkpt>
      <trkpt lat="43.2338" lon="5.49584">
        <ele>197.21</ele>
        <time>2016-04-21T08:27:15Z</time>
      </trkpt>
      <trkpt lat="43.23383" lon="5.4958">
        <ele>196.73</ele>
        <time>2016-04-21T08:27:16Z</time>
      </trkpt>
      <trkpt lat="43.23387" lon="5.49576">
        <ele>196.25</ele>
        <time>2016-04-21T08:27:17Z</time>
      </trkpt>
      <trkpt lat="43.23392" lon="5.49573">
        <ele>196.25</ele>
        <time>2016-04-21T08:27:18Z</time>
      </trkpt>
      <trkpt lat="43.23398" lon="5.4957">
        <ele>195.77</ele>
        <time>2016-04-21T08:27:19Z</time>
      </trkpt>
      <trkpt lat="43.23414" lon="5.49559">
        <ele>194.32</ele>
        <time>2016-04-21T08:27:22Z</time>
      </trkpt>
      <trkpt lat="43.23417" lon="5.49555">
        <ele>193.84</ele>
        <time>2016-04-21T08:27:23Z</time>
      </trkpt>
      <trkpt lat="43.23418" lon="5.49549">
        <ele>193.36</ele>
        <time>2016-04-21T08:27:24Z</time>
      </trkpt>
      <trkpt lat="43.23416" lon="5.49545">
        <ele>192.88</ele>
        <time>2016-04-21T08:27:25Z</time>
      </trkpt>
      <trkpt lat="43.23414" lon="5.49542">
        <ele>192.88</ele>
        <time>2016-04-21T08:27:26Z</time>
      </trkpt>
      <trkpt lat="43.23411" lon="5.49541">
        <ele>192.4</ele>
        <time>2016-04-21T08:27:27Z</time>
      </trkpt>
      <trkpt lat="43.23406" lon="5.49542">
        <ele>192.4</ele>
        <time>2016-04-21T08:27:28Z</time>
      </trkpt>
      <trkpt lat="43.23402" lon="5.49544">
        <ele>191.92</ele>
        <time>2016-04-21T08:27:29Z</time>
      </trkpt>
      <trkpt lat="43.23397" lon="5.49547">
        <ele>191.44</ele>
        <time>2016-04-21T08:27:30Z</time>
      </trkpt>
      <trkpt lat="43.23361" lon="5.49563">
        <ele>188.56</ele>
        <time>2016-04-21T08:27:36Z</time>
      </trkpt>
      <trkpt lat="43.23356" lon="5.49567">
        <ele>188.08</ele>
        <time>2016-04-21T08:27:37Z</time>
      </trkpt>
      <trkpt lat="43.23353" lon="5.49573">
        <ele>187.59</ele>
        <time>2016-04-21T08:27:38Z</time>
      </trkpt>
      <trkpt lat="43.23352" lon="5.4958">
        <ele>187.11</ele>
        <time>2016-04-21T08:27:39Z</time>
      </trkpt>
      <trkpt lat="43.23351" lon="5.49588">
        <ele>186.63</ele>
        <time>2016-04-21T08:27:40Z</time>
      </trkpt>
      <trkpt lat="43.23351" lon="5.49596">
        <ele>186.15</ele>
        <time>2016-04-21T08:27:41Z</time>
      </trkpt>
      <trkpt lat="43.23352" lon="5.49604">
        <ele>186.15</ele>
        <time>2016-04-21T08:27:42Z</time>
      </trkpt>
      <trkpt lat="43.23376" lon="5.49682">
        <ele>183.75</ele>
        <time>2016-04-21T08:27:51Z</time>
      </trkpt>
      <trkpt lat="43.2338" lon="5.49689">
        <ele>183.75</ele>
        <time>2016-04-21T08:27:52Z</time>
      </trkpt>
      <trkpt lat="43.23384" lon="5.49695">
        <ele>183.75</ele>
        <time>2016-04-21T08:27:53Z</time>
      </trkpt>
      <trkpt lat="43.23401" lon="5.4972">
        <ele>182.79</ele>
        <time>2016-04-21T08:27:57Z</time>
      </trkpt>
      <trkpt lat="43.23408" lon="5.49734">
        <ele>182.79</ele>
        <time>2016-04-21T08:27:59Z</time>
      </trkpt>
      <trkpt lat="43.2341" lon="5.49741">
        <ele>182.79</ele>
        <time>2016-04-21T08:28:00Z</time>
      </trkpt>
      <trkpt lat="43.23411" lon="5.49747">
        <ele>182.79</ele>
        <time>2016-04-21T08:28:01Z</time>
      </trkpt>
      <trkpt lat="43.23412" lon="5.49754">
        <ele>182.79</ele>
        <time>2016-04-21T08:28:02Z</time>
      </trkpt>
      <trkpt lat="43.23411" lon="5.4976">
        <ele>183.27</ele>
        <time>2016-04-21T08:28:03Z</time>
      </trkpt>
      <trkpt lat="43.2341" lon="5.49765">
        <ele>183.27</ele>
        <time>2016-04-21T08:28:04Z</time>
      </trkpt>
      <trkpt lat="43.23408" lon="5.49771">
        <ele>183.27</ele>
        <time>2016-04-21T08:28:05Z</time>
      </trkpt>
      <trkpt lat="43.23406" lon="5.49776">
        <ele>182.79</ele>
        <time>2016-04-21T08:28:06Z</time>
      </trkpt>
      <trkpt lat="43.23389" lon="5.49816">
        <ele>180.87</ele>
        <time>2016-04-21T08:28:12Z</time>
      </trkpt>
      <trkpt lat="43.23384" lon="5.49823">
        <ele>180.87</ele>
        <time>2016-04-21T08:28:13Z</time>
      </trkpt>
      <trkpt lat="43.23379" lon="5.49828">
        <ele>180.38</ele>
        <time>2016-04-21T08:28:14Z</time>
      </trkpt>
      <trkpt lat="43.23361" lon="5.49841">
        <ele>179.9</ele>
        <time>2016-04-21T08:28:17Z</time>
      </trkpt>
      <trkpt lat="43.23357" lon="5.49847">
        <ele>179.42</ele>
        <time>2016-04-21T08:28:18Z</time>
      </trkpt>
      <trkpt lat="43.23354" lon="5.49853">
        <ele>179.42</ele>
        <time>2016-04-21T08:28:19Z</time>
      </trkpt>
      <trkpt lat="43.23353" lon="5.49861">
        <ele>179.42</ele>
        <time>2016-04-21T08:28:20Z</time>
      </trkpt>
      <trkpt lat="43.23353" lon="5.49869">
        <ele>179.42</ele>
        <time>2016-04-21T08:28:21Z</time>
      </trkpt>
      <trkpt lat="43.23355" lon="5.49879">
        <ele>179.42</ele>
        <time>2016-04-21T08:28:22Z</time>
      </trkpt>
      <trkpt lat="43.23357" lon="5.49889">
        <ele>178.94</ele>
        <time>2016-04-21T08:28:23Z</time>
      </trkpt>
      <trkpt lat="43.23361" lon="5.49899">
        <ele>178.94</ele>
        <time>2016-04-21T08:28:24Z</time>
      </trkpt>
      <trkpt lat="43.23369" lon="5.49931">
        <ele>178.94</ele>
        <time>2016-04-21T08:28:27Z</time>
      </trkpt>
      <trkpt lat="43.2337" lon="5.49942">
        <ele>178.46</ele>
        <time>2016-04-21T08:28:28Z</time>
      </trkpt>
      <trkpt lat="43.2337" lon="5.49952">
        <ele>178.46</ele>
        <time>2016-04-21T08:28:29Z</time>
      </trkpt>
      <trkpt lat="43.2337" lon="5.49962">
        <ele>177.98</ele>
        <time>2016-04-21T08:28:30Z</time>
      </trkpt>
      <trkpt lat="43.23367" lon="5.49971">
        <ele>177.5</ele>
        <time>2016-04-21T08:28:31Z</time>
      </trkpt>
      <trkpt lat="43.23364" lon="5.49979">
        <ele>177.5</ele>
        <time>2016-04-21T08:28:32Z</time>
      </trkpt>
      <trkpt lat="43.23359" lon="5.49986">
        <ele>177.02</ele>
        <time>2016-04-21T08:28:33Z</time>
      </trkpt>
      <trkpt lat="43.23355" lon="5.49991">
        <ele>176.54</ele>
        <time>2016-04-21T08:28:34Z</time>
      </trkpt>
      <trkpt lat="43.2335" lon="5.49996">
        <ele>176.06</ele>
        <time>2016-04-21T08:28:35Z</time>
      </trkpt>
      <trkpt lat="43.23344" lon="5.5">
        <ele>175.58</ele>
        <time>2016-04-21T08:28:36Z</time>
      </trkpt>
      <trkpt lat="43.23339" lon="5.50004">
        <ele>175.58</ele>
        <time>2016-04-21T08:28:37Z</time>
      </trkpt>
      <trkpt lat="43.23268" lon="5.50065">
        <ele>172.21</ele>
        <time>2016-04-21T08:28:49Z</time>
      </trkpt>
      <trkpt lat="43.23263" lon="5.50072">
        <ele>171.73</ele>
        <time>2016-04-21T08:28:50Z</time>
      </trkpt>
      <trkpt lat="43.23259" lon="5.5008">
        <ele>171.73</ele>
        <time>2016-04-21T08:28:51Z</time>
      </trkpt>
      <trkpt lat="43.23241" lon="5.50111">
        <ele>171.73</ele>
        <time>2016-04-21T08:28:55Z</time>
      </trkpt>
      <trkpt lat="43.23235" lon="5.50116">
        <ele>172.21</ele>
        <time>2016-04-21T08:28:56Z</time>
      </trkpt>
      <trkpt lat="43.2323" lon="5.50121">
        <ele>171.73</ele>
        <time>2016-04-21T08:28:57Z</time>
      </trkpt>
      <trkpt lat="43.23224" lon="5.50123">
        <ele>171.73</ele>
        <time>2016-04-21T08:28:58Z</time>
      </trkpt>
      <trkpt lat="43.23218" lon="5.50125">
        <ele>171.73</ele>
        <time>2016-04-21T08:28:59Z</time>
      </trkpt>
      <trkpt lat="43.23212" lon="5.50125">
        <ele>171.25</ele>
        <time>2016-04-21T08:29:00Z</time>
      </trkpt>
      <trkpt lat="43.23206" lon="5.50124">
        <ele>171.25</ele>
        <time>2016-04-21T08:29:01Z</time>
      </trkpt>
      <trkpt lat="43.23199" lon="5.50123">
        <ele>171.25</ele>
        <time>2016-04-21T08:29:02Z</time>
      </trkpt>
      <trkpt lat="43.23185" lon="5.5012">
        <ele>170.77</ele>
        <time>2016-04-21T08:29:04Z</time>
      </trkpt>
      <trkpt lat="43.23178" lon="5.50121">
        <ele>170.77</ele>
        <time>2016-04-21T08:29:05Z</time>
      </trkpt>
      <trkpt lat="43.23166" lon="5.50125">
        <ele>170.29</ele>
        <time>2016-04-21T08:29:07Z</time>
      </trkpt>
      <trkpt lat="43.23161" lon="5.50128">
        <ele>170.29</ele>
        <time>2016-04-21T08:29:08Z</time>
      </trkpt>
      <trkpt lat="43.23152" lon="5.50131">
        <ele>170.29</ele>
        <time>2016-04-21T08:29:10Z</time>
      </trkpt>
      <trkpt lat="43.23148" lon="5.50131">
        <ele>170.29</ele>
        <time>2016-04-21T08:29:11Z</time>
      </trkpt>
      <trkpt lat="43.23126" lon="5.50104">
        <ele>170.29</ele>
        <time>2016-04-21T08:29:19Z</time>
      </trkpt>
      <trkpt lat="43.23102" lon="5.50044">
        <ele>170.77</ele>
        <time>2016-04-21T08:29:26Z</time>
      </trkpt>
      <trkpt lat="43.23098" lon="5.50039">
        <ele>171.25</ele>
        <time>2016-04-21T08:29:27Z</time>
      </trkpt>
      <trkpt lat="43.23095" lon="5.50034">
        <ele>171.25</ele>
        <time>2016-04-21T08:29:28Z</time>
      </trkpt>
      <trkpt lat="43.2309" lon="5.50029">
        <ele>171.73</ele>
        <time>2016-04-21T08:29:29Z</time>
      </trkpt>
      <trkpt lat="43.23086" lon="5.50024">
        <ele>172.21</ele>
        <time>2016-04-21T08:29:30Z</time>
      </trkpt>
      <trkpt lat="43.23081" lon="5.5002">
        <ele>172.21</ele>
        <time>2016-04-21T08:29:31Z</time>
      </trkpt>
      <trkpt lat="43.23077" lon="5.50017">
        <ele>172.21</ele>
        <time>2016-04-21T08:29:32Z</time>
      </trkpt>
      <trkpt lat="43.23072" lon="5.50013">
        <ele>172.69</ele>
        <time>2016-04-21T08:29:33Z</time>
      </trkpt>
      <trkpt lat="43.23029" lon="5.49975">
        <ele>173.66</ele>
        <time>2016-04-21T08:29:40Z</time>
      </trkpt>
      <trkpt lat="43.23025" lon="5.49969">
        <ele>174.14</ele>
        <time>2016-04-21T08:29:41Z</time>
      </trkpt>
      <trkpt lat="43.23022" lon="5.49961">
        <ele>174.14</ele>
        <time>2016-04-21T08:29:42Z</time>
      </trkpt>
      <trkpt lat="43.2302" lon="5.4995">
        <ele>173.66</ele>
        <time>2016-04-21T08:29:43Z</time>
      </trkpt>
      <trkpt lat="43.23018" lon="5.49938">
        <ele>173.66</ele>
        <time>2016-04-21T08:29:44Z</time>
      </trkpt>
      <trkpt lat="43.23013" lon="5.49833">
        <ele>174.14</ele>
        <time>2016-04-21T08:29:51Z</time>
      </trkpt>
      <trkpt lat="43.23015" lon="5.49808">
        <ele>174.14</ele>
        <time>2016-04-21T08:29:56Z</time>
      </trkpt>
      <trkpt lat="43.23015" lon="5.49726">
        <ele>175.58</ele>
        <time>2016-04-21T08:30:04Z</time>
      </trkpt>
      <trkpt lat="43.23016" lon="5.49622">
        <ele>177.5</ele>
        <time>2016-04-21T08:30:13Z</time>
      </trkpt>
      <trkpt lat="43.23014" lon="5.49614">
        <ele>177.98</ele>
        <time>2016-04-21T08:30:14Z</time>
      </trkpt>
      <trkpt lat="43.2301" lon="5.49609">
        <ele>177.98</ele>
        <time>2016-04-21T08:30:15Z</time>
      </trkpt>
      <trkpt lat="43.23005" lon="5.49607">
        <ele>179.42</ele>
        <time>2016-04-21T08:30:16Z</time>
      </trkpt>
      <trkpt lat="43.22999" lon="5.49607">
        <ele>180.38</ele>
        <time>2016-04-21T08:30:17Z</time>
      </trkpt>
      <trkpt lat="43.22993" lon="5.49609">
        <ele>180.87</ele>
        <time>2016-04-21T08:30:18Z</time>
      </trkpt>
      <trkpt lat="43.22989" lon="5.49612">
        <ele>181.83</ele>
        <time>2016-04-21T08:30:19Z</time>
      </trkpt>
      <trkpt lat="43.22984" lon="5.49617">
        <ele>182.31</ele>
        <time>2016-04-21T08:30:20Z</time>
      </trkpt>
      <trkpt lat="43.2298" lon="5.49625">
        <ele>182.79</ele>
        <time>2016-04-21T08:30:21Z</time>
      </trkpt>
      <trkpt lat="43.22977" lon="5.49635">
        <ele>183.27</ele>
        <time>2016-04-21T08:30:22Z</time>
      </trkpt>
      <trkpt lat="43.22974" lon="5.49646">
        <ele>183.75</ele>
        <time>2016-04-21T08:30:23Z</time>
      </trkpt>
      <trkpt lat="43.22946" lon="5.49721">
        <ele>186.63</ele>
        <time>2016-04-21T08:30:30Z</time>
      </trkpt>
      <trkpt lat="43.22942" lon="5.49734">
        <ele>187.11</ele>
        <time>2016-04-21T08:30:31Z</time>
      </trkpt>
      <trkpt lat="43.22939" lon="5.49748">
        <ele>187.59</ele>
        <time>2016-04-21T08:30:32Z</time>
      </trkpt>
      <trkpt lat="43.22938" lon="5.49763">
        <ele>188.08</ele>
        <time>2016-04-21T08:30:33Z</time>
      </trkpt>
      <trkpt lat="43.22937" lon="5.49781">
        <ele>188.56</ele>
        <time>2016-04-21T08:30:34Z</time>
      </trkpt>
      <trkpt lat="43.22935" lon="5.49817">
        <ele>189.04</ele>
        <time>2016-04-21T08:30:36Z</time>
      </trkpt>
      <trkpt lat="43.22926" lon="5.49908">
        <ele>193.36</ele>
        <time>2016-04-21T08:30:42Z</time>
      </trkpt>
      <trkpt lat="43.22926" lon="5.49942">
        <ele>199.61</ele>
        <time>2016-04-21T08:30:48Z</time>
      </trkpt>
      <trkpt lat="43.22925" lon="5.50014">
        <ele>202.49</ele>
        <time>2016-04-21T08:30:55Z</time>
      </trkpt>
      <trkpt lat="43.22927" lon="5.50026">
        <ele>203.46</ele>
        <time>2016-04-21T08:30:56Z</time>
      </trkpt>
      <trkpt lat="43.22929" lon="5.50037">
        <ele>203.94</ele>
        <time>2016-04-21T08:30:57Z</time>
      </trkpt>
      <trkpt lat="43.2295" lon="5.50139">
        <ele>209.22</ele>
        <time>2016-04-21T08:31:06Z</time>
      </trkpt>
      <trkpt lat="43.22954" lon="5.5015">
        <ele>209.7</ele>
        <time>2016-04-21T08:31:07Z</time>
      </trkpt>
      <trkpt lat="43.22964" lon="5.50169">
        <ele>211.63</ele>
        <time>2016-04-21T08:31:09Z</time>
      </trkpt>
      <trkpt lat="43.2298" lon="5.50277">
        <ele>218.84</ele>
        <time>2016-04-21T08:31:19Z</time>
      </trkpt>
      <trkpt lat="43.22955" lon="5.50378">
        <ele>224.12</ele>
        <time>2016-04-21T08:31:29Z</time>
      </trkpt>
      <trkpt lat="43.22945" lon="5.50396">
        <ele>226.53</ele>
        <time>2016-04-21T08:31:35Z</time>
      </trkpt>
      <trkpt lat="43.22921" lon="5.50429">
        <ele>227.97</ele>
        <time>2016-04-21T08:31:42Z</time>
      </trkpt>
      <trkpt lat="43.22882" lon="5.50479">
        <ele>231.81</ele>
        <time>2016-04-21T08:31:50Z</time>
      </trkpt>
      <trkpt lat="43.22878" lon="5.50482">
        <ele>232.3</ele>
        <time>2016-04-21T08:31:51Z</time>
      </trkpt>
      <trkpt lat="43.22875" lon="5.50482">
        <ele>232.78</ele>
        <time>2016-04-21T08:31:52Z</time>
      </trkpt>
      <trkpt lat="43.22872" lon="5.50478">
        <ele>233.26</ele>
        <time>2016-04-21T08:31:53Z</time>
      </trkpt>
      <trkpt lat="43.22871" lon="5.50473">
        <ele>233.26</ele>
        <time>2016-04-21T08:31:54Z</time>
      </trkpt>
      <trkpt lat="43.22871" lon="5.50466">
        <ele>233.74</ele>
        <time>2016-04-21T08:31:55Z</time>
      </trkpt>
      <trkpt lat="43.22871" lon="5.50458">
        <ele>233.74</ele>
        <time>2016-04-21T08:31:56Z</time>
      </trkpt>
      <trkpt lat="43.22879" lon="5.50336">
        <ele>235.66</ele>
        <time>2016-04-21T08:32:07Z</time>
      </trkpt>
      <trkpt lat="43.22879" lon="5.502">
        <ele>239.51</ele>
        <time>2016-04-21T08:32:19Z</time>
      </trkpt>
      <trkpt lat="43.22876" lon="5.50194">
        <ele>239.99</ele>
        <time>2016-04-21T08:32:20Z</time>
      </trkpt>
      <trkpt lat="43.22872" lon="5.50192">
        <ele>240.47</ele>
        <time>2016-04-21T08:32:21Z</time>
      </trkpt>
      <trkpt lat="43.22869" lon="5.50195">
        <ele>241.43</ele>
        <time>2016-04-21T08:32:22Z</time>
      </trkpt>
      <trkpt lat="43.22867" lon="5.50201">
        <ele>242.39</ele>
        <time>2016-04-21T08:32:23Z</time>
      </trkpt>
      <trkpt lat="43.22867" lon="5.50208">
        <ele>243.83</ele>
        <time>2016-04-21T08:32:24Z</time>
      </trkpt>
      <trkpt lat="43.22866" lon="5.50238">
        <ele>246.23</ele>
        <time>2016-04-21T08:32:27Z</time>
      </trkpt>
      <trkpt lat="43.22864" lon="5.50249">
        <ele>247.2</ele>
        <time>2016-04-21T08:32:28Z</time>
      </trkpt>
      <trkpt lat="43.22861" lon="5.50259">
        <ele>247.68</ele>
        <time>2016-04-21T08:32:29Z</time>
      </trkpt>
      <trkpt lat="43.22825" lon="5.50344">
        <ele>253.44</ele>
        <time>2016-04-21T08:32:40Z</time>
      </trkpt>
      <trkpt lat="43.22778" lon="5.50401">
        <ele>256.33</ele>
        <time>2016-04-21T08:32:49Z</time>
      </trkpt>
      <trkpt lat="43.22755" lon="5.50423">
        <ele>258.25</ele>
        <time>2016-04-21T08:32:53Z</time>
      </trkpt>
      <trkpt lat="43.2275" lon="5.50426">
        <ele>258.25</ele>
        <time>2016-04-21T08:32:54Z</time>
      </trkpt>
      <trkpt lat="43.22746" lon="5.50428">
        <ele>258.73</ele>
        <time>2016-04-21T08:32:55Z</time>
      </trkpt>
      <trkpt lat="43.22742" lon="5.50429">
        <ele>259.21</ele>
        <time>2016-04-21T08:32:56Z</time>
      </trkpt>
      <trkpt lat="43.22738" lon="5.50429">
        <ele>259.69</ele>
        <time>2016-04-21T08:32:57Z</time>
      </trkpt>
      <trkpt lat="43.22735" lon="5.50428">
        <ele>260.17</ele>
        <time>2016-04-21T08:32:58Z</time>
      </trkpt>
      <trkpt lat="43.22733" lon="5.50425">
        <ele>260.65</ele>
        <time>2016-04-21T08:32:59Z</time>
      </trkpt>
      <trkpt lat="43.22732" lon="5.50422">
        <ele>261.14</ele>
        <time>2016-04-21T08:33:00Z</time>
      </trkpt>
      <trkpt lat="43.22731" lon="5.50418">
        <ele>261.62</ele>
        <time>2016-04-21T08:33:01Z</time>
      </trkpt>
      <trkpt lat="43.22731" lon="5.50416">
        <ele>262.1</ele>
        <time>2016-04-21T08:33:02Z</time>
      </trkpt>
      <trkpt lat="43.22731" lon="5.50413">
        <ele>262.1</ele>
        <time>2016-04-21T08:33:03Z</time>
      </trkpt>
      <trkpt lat="43.2273" lon="5.50411">
        <ele>262.58</ele>
        <time>2016-04-21T08:33:04Z</time>
      </trkpt>
      <trkpt lat="43.22729" lon="5.5041">
        <ele>262.58</ele>
        <time>2016-04-21T08:33:05Z</time>
      </trkpt>
      <trkpt lat="43.22728" lon="5.50408">
        <ele>262.58</ele>
        <time>2016-04-21T08:33:06Z</time>
      </trkpt>
      <trkpt lat="43.22727" lon="5.50407">
        <ele>263.06</ele>
        <time>2016-04-21T08:33:25Z</time>
      </trkpt>
      <trkpt lat="43.22726" lon="5.50406">
        <ele>262.58</ele>
        <time>2016-04-21T08:35:35Z</time>
      </trkpt>
      <trkpt lat="43.22725" lon="5.50407">
        <ele>262.1</ele>
        <time>2016-04-21T08:35:45Z</time>
      </trkpt>
      <trkpt lat="43.22722" lon="5.50405">
        <ele>260.65</ele>
        <time>2016-04-21T08:36:13Z</time>
      </trkpt>
      <trkpt lat="43.2271" lon="5.50395">
        <ele>260.65</ele>
        <time>2016-04-21T08:36:27Z</time>
      </trkpt>
      <trkpt lat="43.22697" lon="5.50374">
        <ele>259.21</ele>
        <time>2016-04-21T08:36:42Z</time>
      </trkpt>
      <trkpt lat="43.22696" lon="5.50372">
        <ele>258.73</ele>
        <time>2016-04-21T08:36:44Z</time>
      </trkpt>
      <trkpt lat="43.22686" lon="5.50354">
        <ele>255.37</ele>
        <time>2016-04-21T08:36:59Z</time>
      </trkpt>
      <trkpt lat="43.22683" lon="5.50346">
        <ele>255.85</ele>
        <time>2016-04-21T08:37:13Z</time>
      </trkpt>
      <trkpt lat="43.22675" lon="5.50337">
        <ele>254.89</ele>
        <time>2016-04-21T08:37:21Z</time>
      </trkpt>
      <trkpt lat="43.2267" lon="5.50325">
        <ele>255.37</ele>
        <time>2016-04-21T08:37:29Z</time>
      </trkpt>
      <trkpt lat="43.22669" lon="5.50324">
        <ele>255.37</ele>
        <time>2016-04-21T08:37:30Z</time>
      </trkpt>
      <trkpt lat="43.22668" lon="5.50322">
        <ele>255.37</ele>
        <time>2016-04-21T08:37:31Z</time>
      </trkpt>
      <trkpt lat="43.22657" lon="5.50307">
        <ele>256.33</ele>
        <time>2016-04-21T08:37:43Z</time>
      </trkpt>
      <trkpt lat="43.22646" lon="5.50289">
        <ele>255.85</ele>
        <time>2016-04-21T08:37:58Z</time>
      </trkpt>
      <trkpt lat="43.22634" lon="5.50279">
        <ele>255.37</ele>
        <time>2016-04-21T08:38:12Z</time>
      </trkpt>
      <trkpt lat="43.22617" lon="5.50271">
        <ele>255.37</ele>
        <time>2016-04-21T08:38:24Z</time>
      </trkpt>
      <trkpt lat="43.22604" lon="5.5027">
        <ele>256.81</ele>
        <time>2016-04-21T08:38:36Z</time>
      </trkpt>
      <trkpt lat="43.22603" lon="5.5027">
        <ele>256.33</ele>
        <time>2016-04-21T08:38:37Z</time>
      </trkpt>
      <trkpt lat="43.22601" lon="5.50271">
        <ele>256.33</ele>
        <time>2016-04-21T08:38:38Z</time>
      </trkpt>
      <trkpt lat="43.22594" lon="5.50273">
        <ele>255.85</ele>
        <time>2016-04-21T08:38:44Z</time>
      </trkpt>
      <trkpt lat="43.22575" lon="5.50272">
        <ele>255.85</ele>
        <time>2016-04-21T08:38:58Z</time>
      </trkpt>
      <trkpt lat="43.22561" lon="5.50273">
        <ele>252.48</ele>
        <time>2016-04-21T08:39:11Z</time>
      </trkpt>
      <trkpt lat="43.22543" lon="5.50271">
        <ele>251.04</ele>
        <time>2016-04-21T08:39:25Z</time>
      </trkpt>
      <trkpt lat="43.22542" lon="5.50271">
        <ele>251.04</ele>
        <time>2016-04-21T08:39:26Z</time>
      </trkpt>
      <trkpt lat="43.2254" lon="5.50271">
        <ele>251.04</ele>
        <time>2016-04-21T08:39:27Z</time>
      </trkpt>
      <trkpt lat="43.22531" lon="5.50272">
        <ele>251.52</ele>
        <time>2016-04-21T08:39:33Z</time>
      </trkpt>
      <trkpt lat="43.22519" lon="5.50273">
        <ele>250.56</ele>
        <time>2016-04-21T08:39:47Z</time>
      </trkpt>
      <trkpt lat="43.22497" lon="5.50275">
        <ele>247.2</ele>
        <time>2016-04-21T08:40:03Z</time>
      </trkpt>
      <trkpt lat="43.22478" lon="5.50274">
        <ele>246.23</ele>
        <time>2016-04-21T08:40:19Z</time>
      </trkpt>
      <trkpt lat="43.22459" lon="5.50278">
        <ele>244.31</ele>
        <time>2016-04-21T08:40:35Z</time>
      </trkpt>
      <trkpt lat="43.22433" lon="5.50277">
        <ele>244.31</ele>
        <time>2016-04-21T08:40:54Z</time>
      </trkpt>
      <trkpt lat="43.22424" lon="5.50274">
        <ele>244.79</ele>
        <time>2016-04-21T08:41:02Z</time>
      </trkpt>
      <trkpt lat="43.22422" lon="5.50273">
        <ele>244.79</ele>
        <time>2016-04-21T08:41:03Z</time>
      </trkpt>
      <trkpt lat="43.22411" lon="5.50265">
        <ele>244.31</ele>
        <time>2016-04-21T08:41:12Z</time>
      </trkpt>
      <trkpt lat="43.2241" lon="5.50264">
        <ele>244.31</ele>
        <time>2016-04-21T08:41:13Z</time>
      </trkpt>
      <trkpt lat="43.2241" lon="5.50262">
        <ele>244.31</ele>
        <time>2016-04-21T08:41:14Z</time>
      </trkpt>
      <trkpt lat="43.22403" lon="5.50249">
        <ele>241.91</ele>
        <time>2016-04-21T08:41:28Z</time>
      </trkpt>
      <trkpt lat="43.22403" lon="5.50238">
        <ele>241.43</ele>
        <time>2016-04-21T08:41:38Z</time>
      </trkpt>
      <trkpt lat="43.22405" lon="5.50218">
        <ele>239.02</ele>
        <time>2016-04-21T08:41:51Z</time>
      </trkpt>
      <trkpt lat="43.22407" lon="5.50204">
        <ele>237.58</ele>
        <time>2016-04-21T08:41:59Z</time>
      </trkpt>
      <trkpt lat="43.22408" lon="5.50202">
        <ele>237.58</ele>
        <time>2016-04-21T08:42:00Z</time>
      </trkpt>
      <trkpt lat="43.22408" lon="5.50194">
        <ele>236.14</ele>
        <time>2016-04-21T08:42:08Z</time>
      </trkpt>
      <trkpt lat="43.22408" lon="5.50192">
        <ele>236.14</ele>
        <time>2016-04-21T08:42:09Z</time>
      </trkpt>
      <trkpt lat="43.22408" lon="5.5019">
        <ele>236.14</ele>
        <time>2016-04-21T08:42:10Z</time>
      </trkpt>
      <trkpt lat="43.22407" lon="5.50188">
        <ele>236.14</ele>
        <time>2016-04-21T08:42:11Z</time>
      </trkpt>
      <trkpt lat="43.22407" lon="5.50187">
        <ele>235.66</ele>
        <time>2016-04-21T08:42:12Z</time>
      </trkpt>
      <trkpt lat="43.22406" lon="5.50185">
        <ele>235.66</ele>
        <time>2016-04-21T08:42:13Z</time>
      </trkpt>
      <trkpt lat="43.22404" lon="5.5018">
        <ele>235.18</ele>
        <time>2016-04-21T08:42:18Z</time>
      </trkpt>
      <trkpt lat="43.22395" lon="5.50167">
        <ele>235.66</ele>
        <time>2016-04-21T08:42:28Z</time>
      </trkpt>
      <trkpt lat="43.22379" lon="5.50163">
        <ele>235.18</ele>
        <time>2016-04-21T08:42:41Z</time>
      </trkpt>
      <trkpt lat="43.22364" lon="5.50159">
        <ele>233.74</ele>
        <time>2016-04-21T08:42:54Z</time>
      </trkpt>
      <trkpt lat="43.22343" lon="5.50166">
        <ele>229.89</ele>
        <time>2016-04-21T08:43:12Z</time>
      </trkpt>
      <trkpt lat="43.22327" lon="5.50169">
        <ele>227.49</ele>
        <time>2016-04-21T08:43:24Z</time>
      </trkpt>
      <trkpt lat="43.22326" lon="5.50169">
        <ele>227.49</ele>
        <time>2016-04-21T08:43:25Z</time>
      </trkpt>
      <trkpt lat="43.2231" lon="5.50176">
        <ele>226.53</ele>
        <time>2016-04-21T08:43:39Z</time>
      </trkpt>
      <trkpt lat="43.22304" lon="5.50178">
        <ele>226.05</ele>
        <time>2016-04-21T08:43:49Z</time>
      </trkpt>
      <trkpt lat="43.22304" lon="5.50179">
        <ele>225.57</ele>
        <time>2016-04-21T08:44:10Z</time>
      </trkpt>
      <trkpt lat="43.22301" lon="5.50176">
        <ele>227.01</ele>
        <time>2016-04-21T08:44:41Z</time>
      </trkpt>
      <trkpt lat="43.223" lon="5.50176">
        <ele>227.01</ele>
        <time>2016-04-21T08:44:42Z</time>
      </trkpt>
      <trkpt lat="43.22298" lon="5.50177">
        <ele>227.01</ele>
        <time>2016-04-21T08:44:43Z</time>
      </trkpt>
      <trkpt lat="43.22297" lon="5.50178">
        <ele>227.01</ele>
        <time>2016-04-21T08:44:44Z</time>
      </trkpt>
      <trkpt lat="43.22295" lon="5.50179">
        <ele>226.53</ele>
        <time>2016-04-21T08:44:47Z</time>
      </trkpt>
      <trkpt lat="43.22294" lon="5.50181">
        <ele>226.05</ele>
        <time>2016-04-21T08:44:48Z</time>
      </trkpt>
      <trkpt lat="43.22282" lon="5.50186">
        <ele>221.72</ele>
        <time>2016-04-21T08:45:01Z</time>
      </trkpt>
      <trkpt lat="43.22271" lon="5.50189">
        <ele>220.28</ele>
        <time>2016-04-21T08:45:10Z</time>
      </trkpt>
      <trkpt lat="43.22257" lon="5.50188">
        <ele>219.8</ele>
        <time>2016-04-21T08:45:22Z</time>
      </trkpt>
      <trkpt lat="43.22257" lon="5.50187">
        <ele>219.32</ele>
        <time>2016-04-21T08:45:23Z</time>
      </trkpt>
      <trkpt lat="43.22256" lon="5.50186">
        <ele>218.84</ele>
        <time>2016-04-21T08:45:24Z</time>
      </trkpt>
      <trkpt lat="43.22255" lon="5.50184">
        <ele>218.84</ele>
        <time>2016-04-21T08:45:25Z</time>
      </trkpt>
      <trkpt lat="43.22246" lon="5.50166">
        <ele>218.36</ele>
        <time>2016-04-21T08:45:38Z</time>
      </trkpt>
      <trkpt lat="43.22236" lon="5.50144">
        <ele>223.16</ele>
        <time>2016-04-21T08:45:54Z</time>
      </trkpt>
      <trkpt lat="43.22226" lon="5.50127">
        <ele>225.09</ele>
        <time>2016-04-21T08:46:08Z</time>
      </trkpt>
      <trkpt lat="43.22213" lon="5.50111">
        <ele>224.12</ele>
        <time>2016-04-21T08:46:20Z</time>
      </trkpt>
      <trkpt lat="43.22209" lon="5.50109">
        <ele>224.61</ele>
        <time>2016-04-21T08:46:29Z</time>
      </trkpt>
      <trkpt lat="43.22206" lon="5.50109">
        <ele>224.12</ele>
        <time>2016-04-21T08:46:31Z</time>
      </trkpt>
      <trkpt lat="43.22205" lon="5.50109">
        <ele>224.12</ele>
        <time>2016-04-21T08:46:32Z</time>
      </trkpt>
      <trkpt lat="43.22203" lon="5.50109">
        <ele>223.64</ele>
        <time>2016-04-21T08:46:33Z</time>
      </trkpt>
      <trkpt lat="43.22202" lon="5.50109">
        <ele>223.16</ele>
        <time>2016-04-21T08:46:34Z</time>
      </trkpt>
      <trkpt lat="43.222" lon="5.50109">
        <ele>223.16</ele>
        <time>2016-04-21T08:46:35Z</time>
      </trkpt>
      <trkpt lat="43.22194" lon="5.50111">
        <ele>221.72</ele>
        <time>2016-04-21T08:46:45Z</time>
      </trkpt>
      <trkpt lat="43.22192" lon="5.5011">
        <ele>221.72</ele>
        <time>2016-04-21T08:46:46Z</time>
      </trkpt>
      <trkpt lat="43.22181" lon="5.50108">
        <ele>219.32</ele>
        <time>2016-04-21T08:46:57Z</time>
      </trkpt>
      <trkpt lat="43.22171" lon="5.50107">
        <ele>217.88</ele>
        <time>2016-04-21T08:47:11Z</time>
      </trkpt>
      <trkpt lat="43.2216" lon="5.50107">
        <ele>214.99</ele>
        <time>2016-04-21T08:47:23Z</time>
      </trkpt>
      <trkpt lat="43.22155" lon="5.50108">
        <ele>214.51</ele>
        <time>2016-04-21T08:47:28Z</time>
      </trkpt>
      <trkpt lat="43.22144" lon="5.50111">
        <ele>212.11</ele>
        <time>2016-04-21T08:47:42Z</time>
      </trkpt>
      <trkpt lat="43.22141" lon="5.50112">
        <ele>211.15</ele>
        <time>2016-04-21T08:47:53Z</time>
      </trkpt>
      <trkpt lat="43.22141" lon="5.50112">
        <ele>211.15</ele>
        <time>2016-04-21T08:47:54Z</time>
      </trkpt>
      <trkpt lat="43.22141" lon="5.5011">
        <ele>211.15</ele>
        <time>2016-04-21T08:47:55Z</time>
      </trkpt>
      <trkpt lat="43.2214" lon="5.50105">
        <ele>211.15</ele>
        <time>2016-04-21T08:47:58Z</time>
      </trkpt>
      <trkpt lat="43.22134" lon="5.50086">
        <ele>209.22</ele>
        <time>2016-04-21T08:48:10Z</time>
      </trkpt>
      <trkpt lat="43.22133" lon="5.50079">
        <ele>208.74</ele>
        <time>2016-04-21T08:48:14Z</time>
      </trkpt>
      <trkpt lat="43.22133" lon="5.50077">
        <ele>208.74</ele>
        <time>2016-04-21T08:48:15Z</time>
      </trkpt>
      <trkpt lat="43.22133" lon="5.50076">
        <ele>208.74</ele>
        <time>2016-04-21T08:48:16Z</time>
      </trkpt>
      <trkpt lat="43.22133" lon="5.50074">
        <ele>208.74</ele>
        <time>2016-04-21T08:48:17Z</time>
      </trkpt>
      <trkpt lat="43.22132" lon="5.50073">
        <ele>208.26</ele>
        <time>2016-04-21T08:48:18Z</time>
      </trkpt>
      <trkpt lat="43.2213" lon="5.50054">
        <ele>207.3</ele>
        <time>2016-04-21T08:48:31Z</time>
      </trkpt>
      <trkpt lat="43.22129" lon="5.50052">
        <ele>207.3</ele>
        <time>2016-04-21T08:48:32Z</time>
      </trkpt>
      <trkpt lat="43.22129" lon="5.5005">
        <ele>207.3</ele>
        <time>2016-04-21T08:48:33Z</time>
      </trkpt>
      <trkpt lat="43.2213" lon="5.50048">
        <ele>207.3</ele>
        <time>2016-04-21T08:48:34Z</time>
      </trkpt>
      <trkpt lat="43.2213" lon="5.50046">
        <ele>207.78</ele>
        <time>2016-04-21T08:48:35Z</time>
      </trkpt>
      <trkpt lat="43.22131" lon="5.50044">
        <ele>207.78</ele>
        <time>2016-04-21T08:48:36Z</time>
      </trkpt>
      <trkpt lat="43.22131" lon="5.50042">
        <ele>207.78</ele>
        <time>2016-04-21T08:48:37Z</time>
      </trkpt>
      <trkpt lat="43.22128" lon="5.50027">
        <ele>206.82</ele>
        <time>2016-04-21T08:48:49Z</time>
      </trkpt>
      <trkpt lat="43.22126" lon="5.50006">
        <ele>207.78</ele>
        <time>2016-04-21T08:49:01Z</time>
      </trkpt>
      <trkpt lat="43.22126" lon="5.50003">
        <ele>206.82</ele>
        <time>2016-04-21T08:49:04Z</time>
      </trkpt>
      <trkpt lat="43.22124" lon="5.49983">
        <ele>205.38</ele>
        <time>2016-04-21T08:49:16Z</time>
      </trkpt>
      <trkpt lat="43.22125" lon="5.49982">
        <ele>205.38</ele>
        <time>2016-04-21T08:49:19Z</time>
      </trkpt>
      <trkpt lat="43.22128" lon="5.49979">
        <ele>206.34</ele>
        <time>2016-04-21T08:49:30Z</time>
      </trkpt>
      <trkpt lat="43.22125" lon="5.4998">
        <ele>206.34</ele>
        <time>2016-04-21T08:49:57Z</time>
      </trkpt>
      <trkpt lat="43.22123" lon="5.49969">
        <ele>203.94</ele>
        <time>2016-04-21T08:50:08Z</time>
      </trkpt>
      <trkpt lat="43.2212" lon="5.49953">
        <ele>200.09</ele>
        <time>2016-04-21T08:50:15Z</time>
      </trkpt>
      <trkpt lat="43.22126" lon="5.49938">
        <ele>196.25</ele>
        <time>2016-04-21T08:50:27Z</time>
      </trkpt>
      <trkpt lat="43.22133" lon="5.49924">
        <ele>195.77</ele>
        <time>2016-04-21T08:50:40Z</time>
      </trkpt>
      <trkpt lat="43.22136" lon="5.49913">
        <ele>195.77</ele>
        <time>2016-04-21T08:50:45Z</time>
      </trkpt>
      <trkpt lat="43.22137" lon="5.49908">
        <ele>195.77</ele>
        <time>2016-04-21T08:50:47Z</time>
      </trkpt>
      <trkpt lat="43.22139" lon="5.49903">
        <ele>195.77</ele>
        <time>2016-04-21T08:50:53Z</time>
      </trkpt>
      <trkpt lat="43.22138" lon="5.49883">
        <ele>198.65</ele>
        <time>2016-04-21T08:51:05Z</time>
      </trkpt>
      <trkpt lat="43.22135" lon="5.4987">
        <ele>201.53</ele>
        <time>2016-04-21T08:51:16Z</time>
      </trkpt>
      <trkpt lat="43.22129" lon="5.49866">
        <ele>202.01</ele>
        <time>2016-04-21T08:51:21Z</time>
      </trkpt>
      <trkpt lat="43.22115" lon="5.4987">
        <ele>202.98</ele>
        <time>2016-04-21T08:51:35Z</time>
      </trkpt>
      <trkpt lat="43.22103" lon="5.49875">
        <ele>206.82</ele>
        <time>2016-04-21T08:51:48Z</time>
      </trkpt>
      <trkpt lat="43.22088" lon="5.49877">
        <ele>207.78</ele>
        <time>2016-04-21T08:52:00Z</time>
      </trkpt>
      <trkpt lat="43.22073" lon="5.4988">
        <ele>209.7</ele>
        <time>2016-04-21T08:52:12Z</time>
      </trkpt>
      <trkpt lat="43.22051" lon="5.49888">
        <ele>209.22</ele>
        <time>2016-04-21T08:52:28Z</time>
      </trkpt>
      <trkpt lat="43.22032" lon="5.49894">
        <ele>208.26</ele>
        <time>2016-04-21T08:52:42Z</time>
      </trkpt>
      <trkpt lat="43.22022" lon="5.49902">
        <ele>208.26</ele>
        <time>2016-04-21T08:52:53Z</time>
      </trkpt>
      <trkpt lat="43.22001" lon="5.49912">
        <ele>208.26</ele>
        <time>2016-04-21T08:53:07Z</time>
      </trkpt>
      <trkpt lat="43.21983" lon="5.49915">
        <ele>206.34</ele>
        <time>2016-04-21T08:53:21Z</time>
      </trkpt>
      <trkpt lat="43.21982" lon="5.49915">
        <ele>206.34</ele>
        <time>2016-04-21T08:53:22Z</time>
      </trkpt>
      <trkpt lat="43.21968" lon="5.49917">
        <ele>205.86</ele>
        <time>2016-04-21T08:53:37Z</time>
      </trkpt>
      <trkpt lat="43.21961" lon="5.49915">
        <ele>205.86</ele>
        <time>2016-04-21T08:53:41Z</time>
      </trkpt>
      <trkpt lat="43.21941" lon="5.49898">
        <ele>206.82</ele>
        <time>2016-04-21T08:53:53Z</time>
      </trkpt>
      <trkpt lat="43.21939" lon="5.49896">
        <ele>207.78</ele>
        <time>2016-04-21T08:53:55Z</time>
      </trkpt>
      <trkpt lat="43.21928" lon="5.49882">
        <ele>210.19</ele>
        <time>2016-04-21T08:54:09Z</time>
      </trkpt>
      <trkpt lat="43.21927" lon="5.49879">
        <ele>210.19</ele>
        <time>2016-04-21T08:54:11Z</time>
      </trkpt>
      <trkpt lat="43.21925" lon="5.49878">
        <ele>209.7</ele>
        <time>2016-04-21T08:54:13Z</time>
      </trkpt>
      <trkpt lat="43.2191" lon="5.49861">
        <ele>207.3</ele>
        <time>2016-04-21T08:54:28Z</time>
      </trkpt>
      <trkpt lat="43.21905" lon="5.49856">
        <ele>206.82</ele>
        <time>2016-04-21T08:54:32Z</time>
      </trkpt>
      <trkpt lat="43.21896" lon="5.49848">
        <ele>205.86</ele>
        <time>2016-04-21T08:54:46Z</time>
      </trkpt>
      <trkpt lat="43.21887" lon="5.49839">
        <ele>204.9</ele>
        <time>2016-04-21T08:54:53Z</time>
      </trkpt>
      <trkpt lat="43.21884" lon="5.49829">
        <ele>203.46</ele>
        <time>2016-04-21T08:55:01Z</time>
      </trkpt>
      <trkpt lat="43.21883" lon="5.49806">
        <ele>201.53</ele>
        <time>2016-04-21T08:55:11Z</time>
      </trkpt>
      <trkpt lat="43.21888" lon="5.49793">
        <ele>197.69</ele>
        <time>2016-04-21T08:55:24Z</time>
      </trkpt>
      <trkpt lat="43.219" lon="5.49774">
        <ele>195.77</ele>
        <time>2016-04-21T08:55:36Z</time>
      </trkpt>
      <trkpt lat="43.21901" lon="5.49769">
        <ele>196.73</ele>
        <time>2016-04-21T08:55:39Z</time>
      </trkpt>
      <trkpt lat="43.21906" lon="5.49758">
        <ele>196.73</ele>
        <time>2016-04-21T08:55:44Z</time>
      </trkpt>
      <trkpt lat="43.21907" lon="5.49748">
        <ele>191.44</ele>
        <time>2016-04-21T08:55:56Z</time>
      </trkpt>
      <trkpt lat="43.21904" lon="5.49745">
        <ele>190.96</ele>
        <time>2016-04-21T08:56:01Z</time>
      </trkpt>
      <trkpt lat="43.21902" lon="5.49744">
        <ele>190.48</ele>
        <time>2016-04-21T08:56:03Z</time>
      </trkpt>
      <trkpt lat="43.21885" lon="5.49736">
        <ele>189.52</ele>
        <time>2016-04-21T08:56:15Z</time>
      </trkpt>
      <trkpt lat="43.21867" lon="5.49733">
        <ele>185.67</ele>
        <time>2016-04-21T08:56:30Z</time>
      </trkpt>
      <trkpt lat="43.21863" lon="5.49734">
        <ele>184.71</ele>
        <time>2016-04-21T08:56:33Z</time>
      </trkpt>
      <trkpt lat="43.21856" lon="5.49731">
        <ele>184.71</ele>
        <time>2016-04-21T08:56:38Z</time>
      </trkpt>
      <trkpt lat="43.21848" lon="5.49731">
        <ele>186.15</ele>
        <time>2016-04-21T08:56:51Z</time>
      </trkpt>
      <trkpt lat="43.21848" lon="5.49731">
        <ele>186.15</ele>
        <time>2016-04-21T08:56:52Z</time>
      </trkpt>
      <trkpt lat="43.21828" lon="5.49735">
        <ele>187.59</ele>
        <time>2016-04-21T08:57:02Z</time>
      </trkpt>
      <trkpt lat="43.21813" lon="5.49738">
        <ele>186.15</ele>
        <time>2016-04-21T08:57:13Z</time>
      </trkpt>
      <trkpt lat="43.21807" lon="5.49734">
        <ele>185.19</ele>
        <time>2016-04-21T08:57:23Z</time>
      </trkpt>
      <trkpt lat="43.2182" lon="5.49719">
        <ele>182.31</ele>
        <time>2016-04-21T08:57:38Z</time>
      </trkpt>
      <trkpt lat="43.21821" lon="5.49717">
        <ele>180.87</ele>
        <time>2016-04-21T08:57:42Z</time>
      </trkpt>
      <trkpt lat="43.21822" lon="5.49712">
        <ele>179.42</ele>
        <time>2016-04-21T08:57:45Z</time>
      </trkpt>
      <trkpt lat="43.2183" lon="5.49698">
        <ele>173.66</ele>
        <time>2016-04-21T08:57:58Z</time>
      </trkpt>
      <trkpt lat="43.21832" lon="5.49696">
        <ele>173.17</ele>
        <time>2016-04-21T08:58:01Z</time>
      </trkpt>
      <trkpt lat="43.21843" lon="5.49682">
        <ele>167.89</ele>
        <time>2016-04-21T08:58:13Z</time>
      </trkpt>
      <trkpt lat="43.21843" lon="5.4968">
        <ele>167.41</ele>
        <time>2016-04-21T08:58:16Z</time>
      </trkpt>
      <trkpt lat="43.21854" lon="5.4966">
        <ele>161.64</ele>
        <time>2016-04-21T08:58:29Z</time>
      </trkpt>
      <trkpt lat="43.21854" lon="5.49658">
        <ele>162.12</ele>
        <time>2016-04-21T08:58:31Z</time>
      </trkpt>
      <trkpt lat="43.2186" lon="5.49644">
        <ele>163.08</ele>
        <time>2016-04-21T08:58:42Z</time>
      </trkpt>
      <trkpt lat="43.21861" lon="5.49642">
        <ele>163.56</ele>
        <time>2016-04-21T08:58:45Z</time>
      </trkpt>
      <trkpt lat="43.21869" lon="5.49629">
        <ele>162.6</ele>
        <time>2016-04-21T08:58:57Z</time>
      </trkpt>
      <trkpt lat="43.2188" lon="5.49623">
        <ele>161.64</ele>
        <time>2016-04-21T08:59:06Z</time>
      </trkpt>
      <trkpt lat="43.21881" lon="5.49623">
        <ele>162.12</ele>
        <time>2016-04-21T08:59:12Z</time>
      </trkpt>
      <trkpt lat="43.21884" lon="5.49613">
        <ele>162.12</ele>
        <time>2016-04-21T08:59:17Z</time>
      </trkpt>
      <trkpt lat="43.21883" lon="5.49606">
        <ele>162.6</ele>
        <time>2016-04-21T08:59:22Z</time>
      </trkpt>
      <trkpt lat="43.21881" lon="5.49604">
        <ele>162.6</ele>
        <time>2016-04-21T08:59:24Z</time>
      </trkpt>
      <trkpt lat="43.21874" lon="5.49604">
        <ele>163.08</ele>
        <time>2016-04-21T08:59:35Z</time>
      </trkpt>
      <trkpt lat="43.21867" lon="5.49605">
        <ele>163.56</ele>
        <time>2016-04-21T08:59:39Z</time>
      </trkpt>
      <trkpt lat="43.2185" lon="5.49606">
        <ele>162.6</ele>
        <time>2016-04-21T08:59:50Z</time>
      </trkpt>
      <trkpt lat="43.21849" lon="5.49606">
        <ele>163.08</ele>
        <time>2016-04-21T09:00:02Z</time>
      </trkpt>
      <trkpt lat="43.21848" lon="5.49607">
        <ele>163.08</ele>
        <time>2016-04-21T09:00:14Z</time>
      </trkpt>
      <trkpt lat="43.21838" lon="5.49615">
        <ele>162.6</ele>
        <time>2016-04-21T09:00:24Z</time>
      </trkpt>
      <trkpt lat="43.21826" lon="5.49626">
        <ele>161.16</ele>
        <time>2016-04-21T09:00:36Z</time>
      </trkpt>
      <trkpt lat="43.21815" lon="5.4964">
        <ele>159.72</ele>
        <time>2016-04-21T09:00:48Z</time>
      </trkpt>
      <trkpt lat="43.21813" lon="5.49643">
        <ele>159.72</ele>
        <time>2016-04-21T09:00:51Z</time>
      </trkpt>
      <trkpt lat="43.21799" lon="5.49643">
        <ele>159.24</ele>
        <time>2016-04-21T09:01:04Z</time>
      </trkpt>
      <trkpt lat="43.2179" lon="5.49648">
        <ele>158.75</ele>
        <time>2016-04-21T09:01:10Z</time>
      </trkpt>
      <trkpt lat="43.21788" lon="5.4965">
        <ele>157.79</ele>
        <time>2016-04-21T09:01:16Z</time>
      </trkpt>
      <trkpt lat="43.2178" lon="5.49656">
        <ele>156.83</ele>
        <time>2016-04-21T09:01:20Z</time>
      </trkpt>
      <trkpt lat="43.21774" lon="5.49667">
        <ele>154.43</ele>
        <time>2016-04-21T09:01:25Z</time>
      </trkpt>
      <trkpt lat="43.21772" lon="5.49673">
        <ele>152.03</ele>
        <time>2016-04-21T09:01:29Z</time>
      </trkpt>
      <trkpt lat="43.21768" lon="5.49676">
        <ele>151.06</ele>
        <time>2016-04-21T09:01:33Z</time>
      </trkpt>
      <trkpt lat="43.21754" lon="5.49672">
        <ele>150.1</ele>
        <time>2016-04-21T09:01:46Z</time>
      </trkpt>
      <trkpt lat="43.21747" lon="5.4966">
        <ele>151.54</ele>
        <time>2016-04-21T09:01:57Z</time>
      </trkpt>
      <trkpt lat="43.21746" lon="5.49661">
        <ele>152.03</ele>
        <time>2016-04-21T09:02:01Z</time>
      </trkpt>
      <trkpt lat="43.21742" lon="5.49653">
        <ele>152.03</ele>
        <time>2016-04-21T09:02:05Z</time>
      </trkpt>
      <trkpt lat="43.21737" lon="5.49632">
        <ele>149.14</ele>
        <time>2016-04-21T09:02:19Z</time>
      </trkpt>
      <trkpt lat="43.21727" lon="5.49612">
        <ele>147.7</ele>
        <time>2016-04-21T09:02:29Z</time>
      </trkpt>
      <trkpt lat="43.21725" lon="5.49609">
        <ele>147.7</ele>
        <time>2016-04-21T09:02:36Z</time>
      </trkpt>
      <trkpt lat="43.21722" lon="5.49598">
        <ele>147.7</ele>
        <time>2016-04-21T09:02:41Z</time>
      </trkpt>
      <trkpt lat="43.21719" lon="5.49589">
        <ele>148.18</ele>
        <time>2016-04-21T09:02:45Z</time>
      </trkpt>
      <trkpt lat="43.21718" lon="5.49585">
        <ele>148.66</ele>
        <time>2016-04-21T09:02:47Z</time>
      </trkpt>
      <trkpt lat="43.21715" lon="5.49581">
        <ele>148.66</ele>
        <time>2016-04-21T09:02:54Z</time>
      </trkpt>
      <trkpt lat="43.21715" lon="5.49577">
        <ele>148.66</ele>
        <time>2016-04-21T09:02:57Z</time>
      </trkpt>
      <trkpt lat="43.21706" lon="5.49555">
        <ele>148.66</ele>
        <time>2016-04-21T09:03:08Z</time>
      </trkpt>
      <trkpt lat="43.21701" lon="5.49547">
        <ele>148.18</ele>
        <time>2016-04-21T09:03:19Z</time>
      </trkpt>
      <trkpt lat="43.21688" lon="5.49525">
        <ele>145.3</ele>
        <time>2016-04-21T09:03:30Z</time>
      </trkpt>
      <trkpt lat="43.21681" lon="5.49514">
        <ele>142.89</ele>
        <time>2016-04-21T09:03:40Z</time>
      </trkpt>
      <trkpt lat="43.21677" lon="5.4951">
        <ele>142.41</ele>
        <time>2016-04-21T09:03:43Z</time>
      </trkpt>
      <trkpt lat="43.21675" lon="5.49504">
        <ele>141.93</ele>
        <time>2016-04-21T09:03:49Z</time>
      </trkpt>
      <trkpt lat="43.21663" lon="5.49484">
        <ele>138.09</ele>
        <time>2016-04-21T09:04:01Z</time>
      </trkpt>
      <trkpt lat="43.21659" lon="5.49473">
        <ele>135.2</ele>
        <time>2016-04-21T09:04:12Z</time>
      </trkpt>
      <trkpt lat="43.21643" lon="5.4945">
        <ele>133.76</ele>
        <time>2016-04-21T09:04:25Z</time>
      </trkpt>
      <trkpt lat="43.2164" lon="5.49453">
        <ele>132.8</ele>
        <time>2016-04-21T09:04:31Z</time>
      </trkpt>
      <trkpt lat="43.21631" lon="5.49457">
        <ele>131.84</ele>
        <time>2016-04-21T09:04:36Z</time>
      </trkpt>
      <trkpt lat="43.21614" lon="5.4946">
        <ele>130.88</ele>
        <time>2016-04-21T09:04:51Z</time>
      </trkpt>
      <trkpt lat="43.21599" lon="5.49459">
        <ele>130.4</ele>
        <time>2016-04-21T09:05:02Z</time>
      </trkpt>
      <trkpt lat="43.21599" lon="5.49459">
        <ele>130.4</ele>
        <time>2016-04-21T09:05:03Z</time>
      </trkpt>
      <trkpt lat="43.21596" lon="5.49458">
        <ele>130.4</ele>
        <time>2016-04-21T09:05:05Z</time>
      </trkpt>
      <trkpt lat="43.21584" lon="5.49449">
        <ele>128.95</ele>
        <time>2016-04-21T09:05:17Z</time>
      </trkpt>
      <trkpt lat="43.21585" lon="5.49449">
        <ele>128.47</ele>
        <time>2016-04-21T09:05:22Z</time>
      </trkpt>
      <trkpt lat="43.21568" lon="5.49438">
        <ele>129.92</ele>
        <time>2016-04-21T09:05:33Z</time>
      </trkpt>
      <trkpt lat="43.21556" lon="5.49421">
        <ele>127.03</ele>
        <time>2016-04-21T09:05:46Z</time>
      </trkpt>
      <trkpt lat="43.21554" lon="5.49419">
        <ele>126.55</ele>
        <time>2016-04-21T09:05:47Z</time>
      </trkpt>
      <trkpt lat="43.2154" lon="5.49412">
        <ele>123.19</ele>
        <time>2016-04-21T09:06:00Z</time>
      </trkpt>
      <trkpt lat="43.21538" lon="5.49411">
        <ele>123.19</ele>
        <time>2016-04-21T09:06:05Z</time>
      </trkpt>
      <trkpt lat="43.21531" lon="5.49414">
        <ele>122.22</ele>
        <time>2016-04-21T09:06:10Z</time>
      </trkpt>
      <trkpt lat="43.21515" lon="5.49418">
        <ele>119.82</ele>
        <time>2016-04-21T09:06:24Z</time>
      </trkpt>
      <trkpt lat="43.21496" lon="5.49428">
        <ele>120.78</ele>
        <time>2016-04-21T09:06:39Z</time>
      </trkpt>
      <trkpt lat="43.21489" lon="5.49422">
        <ele>122.71</ele>
        <time>2016-04-21T09:06:45Z</time>
      </trkpt>
      <trkpt lat="43.21488" lon="5.49411">
        <ele>122.22</ele>
        <time>2016-04-21T09:07:01Z</time>
      </trkpt>
      <trkpt lat="43.21488" lon="5.4941">
        <ele>122.22</ele>
        <time>2016-04-21T09:07:27Z</time>
      </trkpt>
      <trkpt lat="43.21488" lon="5.4941">
        <ele>122.22</ele>
        <time>2016-04-21T09:08:18Z</time>
      </trkpt>
      <trkpt lat="43.21485" lon="5.49403">
        <ele>121.26</ele>
        <time>2016-04-21T09:08:57Z</time>
      </trkpt>
      <trkpt lat="43.21484" lon="5.49394">
        <ele>119.82</ele>
        <time>2016-04-21T09:09:10Z</time>
      </trkpt>
      <trkpt lat="43.21479" lon="5.49391">
        <ele>122.22</ele>
        <time>2016-04-21T09:09:23Z</time>
      </trkpt>
      <trkpt lat="43.21472" lon="5.49386">
        <ele>124.15</ele>
        <time>2016-04-21T09:09:38Z</time>
      </trkpt>
      <trkpt lat="43.21471" lon="5.49383">
        <ele>126.07</ele>
        <time>2016-04-21T09:09:52Z</time>
      </trkpt>
      <trkpt lat="43.21467" lon="5.49379">
        <ele>128.95</ele>
        <time>2016-04-21T09:10:07Z</time>
      </trkpt>
      <trkpt lat="43.21467" lon="5.4937">
        <ele>130.4</ele>
        <time>2016-04-21T09:10:18Z</time>
      </trkpt>
      <trkpt lat="43.21467" lon="5.49366">
        <ele>133.76</ele>
        <time>2016-04-21T09:10:32Z</time>
      </trkpt>
      <trkpt lat="43.21466" lon="5.49356">
        <ele>135.2</ele>
        <time>2016-04-21T09:10:45Z</time>
      </trkpt>
      <trkpt lat="43.21464" lon="5.49352">
        <ele>136.16</ele>
        <time>2016-04-21T09:10:54Z</time>
      </trkpt>
      <trkpt lat="43.21464" lon="5.49343">
        <ele>137.61</ele>
        <time>2016-04-21T09:11:07Z</time>
      </trkpt>
      <trkpt lat="43.21459" lon="5.49343">
        <ele>138.57</ele>
        <time>2016-04-21T09:11:19Z</time>
      </trkpt>
      <trkpt lat="43.21454" lon="5.4934">
        <ele>139.53</ele>
        <time>2016-04-21T09:11:34Z</time>
      </trkpt>
      <trkpt lat="43.21449" lon="5.49332">
        <ele>142.41</ele>
        <time>2016-04-21T09:11:48Z</time>
      </trkpt>
      <trkpt lat="43.21445" lon="5.49337">
        <ele>144.82</ele>
        <time>2016-04-21T09:12:00Z</time>
      </trkpt>
      <trkpt lat="43.21442" lon="5.49346">
        <ele>147.22</ele>
        <time>2016-04-21T09:12:13Z</time>
      </trkpt>
      <trkpt lat="43.21437" lon="5.49348">
        <ele>151.06</ele>
        <time>2016-04-21T09:12:25Z</time>
      </trkpt>
      <trkpt lat="43.21431" lon="5.49351">
        <ele>155.39</ele>
        <time>2016-04-21T09:12:39Z</time>
      </trkpt>
      <trkpt lat="43.2143" lon="5.49357">
        <ele>157.31</ele>
        <time>2016-04-21T09:12:54Z</time>
      </trkpt>
      <trkpt lat="43.21422" lon="5.49359">
        <ele>158.75</ele>
        <time>2016-04-21T09:13:03Z</time>
      </trkpt>
      <trkpt lat="43.21416" lon="5.49364">
        <ele>158.27</ele>
        <time>2016-04-21T09:13:17Z</time>
      </trkpt>
      <trkpt lat="43.21415" lon="5.49356">
        <ele>159.72</ele>
        <time>2016-04-21T09:13:29Z</time>
      </trkpt>
      <trkpt lat="43.21412" lon="5.49359">
        <ele>160.68</ele>
        <time>2016-04-21T09:13:40Z</time>
      </trkpt>
      <trkpt lat="43.21409" lon="5.49363">
        <ele>161.64</ele>
        <time>2016-04-21T09:13:47Z</time>
      </trkpt>
      <trkpt lat="43.21402" lon="5.4937">
        <ele>163.56</ele>
        <time>2016-04-21T09:14:02Z</time>
      </trkpt>
      <trkpt lat="43.21394" lon="5.49377">
        <ele>165</ele>
        <time>2016-04-21T09:14:16Z</time>
      </trkpt>
      <trkpt lat="43.21383" lon="5.49384">
        <ele>168.85</ele>
        <time>2016-04-21T09:14:32Z</time>
      </trkpt>
      <trkpt lat="43.21372" lon="5.49393">
        <ele>169.81</ele>
        <time>2016-04-21T09:14:46Z</time>
      </trkpt>
      <trkpt lat="43.2137" lon="5.49395">
        <ele>169.81</ele>
        <time>2016-04-21T09:14:49Z</time>
      </trkpt>
      <trkpt lat="43.21358" lon="5.49402">
        <ele>172.21</ele>
        <time>2016-04-21T09:15:03Z</time>
      </trkpt>
      <trkpt lat="43.21344" lon="5.494">
        <ele>173.17</ele>
        <time>2016-04-21T09:15:14Z</time>
      </trkpt>
      <trkpt lat="43.21335" lon="5.49397">
        <ele>174.14</ele>
        <time>2016-04-21T09:15:26Z</time>
      </trkpt>
      <trkpt lat="43.21319" lon="5.494">
        <ele>174.14</ele>
        <time>2016-04-21T09:15:41Z</time>
      </trkpt>
      <trkpt lat="43.21312" lon="5.49399">
        <ele>173.66</ele>
        <time>2016-04-21T09:15:48Z</time>
      </trkpt>
      <trkpt lat="43.21303" lon="5.49394">
        <ele>172.21</ele>
        <time>2016-04-21T09:15:58Z</time>
      </trkpt>
      <trkpt lat="43.21296" lon="5.49394">
        <ele>172.69</ele>
        <time>2016-04-21T09:16:04Z</time>
      </trkpt>
      <trkpt lat="43.21279" lon="5.49389">
        <ele>172.69</ele>
        <time>2016-04-21T09:16:18Z</time>
      </trkpt>
      <trkpt lat="43.21276" lon="5.49386">
        <ele>172.69</ele>
        <time>2016-04-21T09:16:21Z</time>
      </trkpt>
      <trkpt lat="43.21261" lon="5.49372">
        <ele>173.17</ele>
        <time>2016-04-21T09:16:36Z</time>
      </trkpt>
      <trkpt lat="43.2125" lon="5.49358">
        <ele>174.62</ele>
        <time>2016-04-21T09:16:46Z</time>
      </trkpt>
      <trkpt lat="43.2124" lon="5.49346">
        <ele>175.1</ele>
        <time>2016-04-21T09:16:57Z</time>
      </trkpt>
      <trkpt lat="43.21233" lon="5.49337">
        <ele>177.5</ele>
        <time>2016-04-21T09:17:07Z</time>
      </trkpt>
      <trkpt lat="43.21224" lon="5.49327">
        <ele>178.46</ele>
        <time>2016-04-21T09:17:18Z</time>
      </trkpt>
      <trkpt lat="43.21212" lon="5.49311">
        <ele>177.98</ele>
        <time>2016-04-21T09:17:28Z</time>
      </trkpt>
      <trkpt lat="43.21203" lon="5.49292">
        <ele>177.98</ele>
        <time>2016-04-21T09:17:41Z</time>
      </trkpt>
      <trkpt lat="43.21196" lon="5.49283">
        <ele>177.98</ele>
        <time>2016-04-21T09:17:52Z</time>
      </trkpt>
      <trkpt lat="43.21186" lon="5.49266">
        <ele>176.06</ele>
        <time>2016-04-21T09:18:05Z</time>
      </trkpt>
      <trkpt lat="43.21179" lon="5.49249">
        <ele>177.5</ele>
        <time>2016-04-21T09:18:14Z</time>
      </trkpt>
      <trkpt lat="43.21176" lon="5.49247">
        <ele>178.46</ele>
        <time>2016-04-21T09:18:20Z</time>
      </trkpt>
      <trkpt lat="43.2117" lon="5.49231">
        <ele>179.42</ele>
        <time>2016-04-21T09:18:30Z</time>
      </trkpt>
      <trkpt lat="43.21167" lon="5.49212">
        <ele>177.5</ele>
        <time>2016-04-21T09:18:44Z</time>
      </trkpt>
      <trkpt lat="43.21167" lon="5.49198">
        <ele>176.06</ele>
        <time>2016-04-21T09:18:56Z</time>
      </trkpt>
      <trkpt lat="43.21167" lon="5.49195">
        <ele>175.58</ele>
        <time>2016-04-21T09:18:57Z</time>
      </trkpt>
      <trkpt lat="43.21168" lon="5.49187">
        <ele>175.58</ele>
        <time>2016-04-21T09:19:00Z</time>
      </trkpt>
      <trkpt lat="43.21167" lon="5.49162">
        <ele>172.21</ele>
        <time>2016-04-21T09:19:16Z</time>
      </trkpt>
      <trkpt lat="43.2117" lon="5.49148">
        <ele>170.77</ele>
        <time>2016-04-21T09:19:28Z</time>
      </trkpt>
      <trkpt lat="43.21175" lon="5.49131">
        <ele>169.81</ele>
        <time>2016-04-21T09:19:39Z</time>
      </trkpt>
      <trkpt lat="43.21179" lon="5.49114">
        <ele>167.41</ele>
        <time>2016-04-21T09:19:48Z</time>
      </trkpt>
      <trkpt lat="43.2118" lon="5.49107">
        <ele>165.48</ele>
        <time>2016-04-21T09:19:55Z</time>
      </trkpt>
      <trkpt lat="43.21183" lon="5.49095">
        <ele>164.04</ele>
        <time>2016-04-21T09:20:00Z</time>
      </trkpt>
      <trkpt lat="43.21189" lon="5.49076">
        <ele>165.96</ele>
        <time>2016-04-21T09:20:11Z</time>
      </trkpt>
      <trkpt lat="43.21189" lon="5.49075">
        <ele>166.45</ele>
        <time>2016-04-21T09:20:13Z</time>
      </trkpt>
      <trkpt lat="43.21194" lon="5.49057">
        <ele>166.93</ele>
        <time>2016-04-21T09:20:23Z</time>
      </trkpt>
      <trkpt lat="43.21195" lon="5.49051">
        <ele>166.45</ele>
        <time>2016-04-21T09:20:29Z</time>
      </trkpt>
      <trkpt lat="43.21194" lon="5.49049">
        <ele>165.96</ele>
        <time>2016-04-21T09:20:33Z</time>
      </trkpt>
      <trkpt lat="43.21198" lon="5.49034">
        <ele>165.48</ele>
        <time>2016-04-21T09:20:40Z</time>
      </trkpt>
      <trkpt lat="43.21198" lon="5.49028">
        <ele>165.48</ele>
        <time>2016-04-21T09:20:42Z</time>
      </trkpt>
      <trkpt lat="43.21192" lon="5.49023">
        <ele>167.41</ele>
        <time>2016-04-21T09:20:52Z</time>
      </trkpt>
      <trkpt lat="43.2119" lon="5.49024">
        <ele>168.37</ele>
        <time>2016-04-21T09:20:58Z</time>
      </trkpt>
      <trkpt lat="43.21176" lon="5.49028">
        <ele>168.37</ele>
        <time>2016-04-21T09:21:07Z</time>
      </trkpt>
      <trkpt lat="43.21172" lon="5.4903">
        <ele>167.89</ele>
        <time>2016-04-21T09:21:14Z</time>
      </trkpt>
      <trkpt lat="43.21152" lon="5.49042">
        <ele>167.89</ele>
        <time>2016-04-21T09:21:27Z</time>
      </trkpt>
      <trkpt lat="43.21135" lon="5.49052">
        <ele>168.85</ele>
        <time>2016-04-21T09:21:40Z</time>
      </trkpt>
      <trkpt lat="43.21121" lon="5.49056">
        <ele>167.89</ele>
        <time>2016-04-21T09:21:52Z</time>
      </trkpt>
      <trkpt lat="43.2112" lon="5.49057">
        <ele>167.89</ele>
        <time>2016-04-21T09:21:54Z</time>
      </trkpt>
      <trkpt lat="43.21108" lon="5.49064">
        <ele>168.37</ele>
        <time>2016-04-21T09:22:06Z</time>
      </trkpt>
      <trkpt lat="43.21097" lon="5.49071">
        <ele>170.29</ele>
        <time>2016-04-21T09:22:16Z</time>
      </trkpt>
      <trkpt lat="43.21083" lon="5.49076">
        <ele>171.73</ele>
        <time>2016-04-21T09:22:27Z</time>
      </trkpt>
      <trkpt lat="43.21069" lon="5.49088">
        <ele>175.1</ele>
        <time>2016-04-21T09:22:39Z</time>
      </trkpt>
      <trkpt lat="43.21052" lon="5.49097">
        <ele>176.06</ele>
        <time>2016-04-21T09:22:54Z</time>
      </trkpt>
      <trkpt lat="43.21048" lon="5.49098">
        <ele>175.1</ele>
        <time>2016-04-21T09:22:58Z</time>
      </trkpt>
      <trkpt lat="43.21032" lon="5.49112">
        <ele>174.62</ele>
        <time>2016-04-21T09:23:13Z</time>
      </trkpt>
      <trkpt lat="43.21028" lon="5.49118">
        <ele>174.62</ele>
        <time>2016-04-21T09:23:19Z</time>
      </trkpt>
      <trkpt lat="43.21014" lon="5.49127">
        <ele>174.14</ele>
        <time>2016-04-21T09:23:34Z</time>
      </trkpt>
      <trkpt lat="43.21004" lon="5.49127">
        <ele>171.25</ele>
        <time>2016-04-21T09:23:46Z</time>
      </trkpt>
      <trkpt lat="43.21007" lon="5.49113">
        <ele>169.33</ele>
        <time>2016-04-21T09:24:01Z</time>
      </trkpt>
      <trkpt lat="43.21008" lon="5.49111">
        <ele>168.85</ele>
        <time>2016-04-21T09:24:04Z</time>
      </trkpt>
      <trkpt lat="43.21015" lon="5.4909">
        <ele>169.33</ele>
        <time>2016-04-21T09:24:18Z</time>
      </trkpt>
      <trkpt lat="43.21018" lon="5.49069">
        <ele>169.33</ele>
        <time>2016-04-21T09:24:33Z</time>
      </trkpt>
      <trkpt lat="43.21019" lon="5.49051">
        <ele>165.96</ele>
        <time>2016-04-21T09:24:45Z</time>
      </trkpt>
      <trkpt lat="43.21021" lon="5.49046">
        <ele>165.96</ele>
        <time>2016-04-21T09:24:58Z</time>
      </trkpt>
      <trkpt lat="43.21027" lon="5.49029">
        <ele>163.56</ele>
        <time>2016-04-21T09:25:08Z</time>
      </trkpt>
      <trkpt lat="43.21033" lon="5.4902">
        <ele>162.12</ele>
        <time>2016-04-21T09:25:18Z</time>
      </trkpt>
      <trkpt lat="43.21042" lon="5.49009">
        <ele>160.68</ele>
        <time>2016-04-21T09:25:34Z</time>
      </trkpt>
      <trkpt lat="43.21044" lon="5.49007">
        <ele>161.16</ele>
        <time>2016-04-21T09:26:14Z</time>
      </trkpt>
      <trkpt lat="43.21048" lon="5.48999">
        <ele>162.12</ele>
        <time>2016-04-21T09:26:24Z</time>
      </trkpt>
      <trkpt lat="43.21053" lon="5.48989">
        <ele>161.64</ele>
        <time>2016-04-21T09:26:32Z</time>
      </trkpt>
      <trkpt lat="43.21057" lon="5.48979">
        <ele>159.72</ele>
        <time>2016-04-21T09:26:37Z</time>
      </trkpt>
      <trkpt lat="43.21063" lon="5.48971">
        <ele>156.83</ele>
        <time>2016-04-21T09:26:45Z</time>
      </trkpt>
      <trkpt lat="43.21067" lon="5.48957">
        <ele>153.95</ele>
        <time>2016-04-21T09:26:57Z</time>
      </trkpt>
      <trkpt lat="43.21071" lon="5.4894">
        <ele>151.54</ele>
        <time>2016-04-21T09:27:08Z</time>
      </trkpt>
      <trkpt lat="43.21071" lon="5.48938">
        <ele>151.06</ele>
        <time>2016-04-21T09:27:10Z</time>
      </trkpt>
      <trkpt lat="43.21072" lon="5.48915">
        <ele>149.62</ele>
        <time>2016-04-21T09:27:24Z</time>
      </trkpt>
      <trkpt lat="43.21072" lon="5.48898">
        <ele>150.58</ele>
        <time>2016-04-21T09:27:33Z</time>
      </trkpt>
      <trkpt lat="43.21063" lon="5.48885">
        <ele>152.03</ele>
        <time>2016-04-21T09:27:47Z</time>
      </trkpt>
      <trkpt lat="43.2106" lon="5.48884">
        <ele>152.03</ele>
        <time>2016-04-21T09:27:51Z</time>
      </trkpt>
      <trkpt lat="43.21052" lon="5.48876">
        <ele>150.1</ele>
        <time>2016-04-21T09:28:04Z</time>
      </trkpt>
      <trkpt lat="43.21048" lon="5.4886">
        <ele>146.74</ele>
        <time>2016-04-21T09:28:16Z</time>
      </trkpt>
      <trkpt lat="43.21052" lon="5.48849">
        <ele>144.82</ele>
        <time>2016-04-21T09:28:26Z</time>
      </trkpt>
      <trkpt lat="43.21066" lon="5.48838">
        <ele>146.26</ele>
        <time>2016-04-21T09:28:38Z</time>
      </trkpt>
      <trkpt lat="43.21075" lon="5.48829">
        <ele>148.66</ele>
        <time>2016-04-21T09:28:49Z</time>
      </trkpt>
      <trkpt lat="43.21085" lon="5.48817">
        <ele>146.74</ele>
        <time>2016-04-21T09:29:02Z</time>
      </trkpt>
      <trkpt lat="43.2109" lon="5.48812">
        <ele>145.78</ele>
        <time>2016-04-21T09:29:12Z</time>
      </trkpt>
      <trkpt lat="43.21103" lon="5.48804">
        <ele>145.3</ele>
        <time>2016-04-21T09:29:22Z</time>
      </trkpt>
      <trkpt lat="43.21102" lon="5.48804">
        <ele>144.82</ele>
        <time>2016-04-21T09:29:25Z</time>
      </trkpt>
      <trkpt lat="43.21106" lon="5.48788">
        <ele>142.41</ele>
        <time>2016-04-21T09:29:34Z</time>
      </trkpt>
      <trkpt lat="43.21102" lon="5.48786">
        <ele>141.93</ele>
        <time>2016-04-21T09:29:39Z</time>
      </trkpt>
      <trkpt lat="43.21092" lon="5.48786">
        <ele>138.57</ele>
        <time>2016-04-21T09:29:50Z</time>
      </trkpt>
      <trkpt lat="43.21085" lon="5.4879">
        <ele>135.2</ele>
        <time>2016-04-21T09:30:03Z</time>
      </trkpt>
      <trkpt lat="43.21069" lon="5.48792">
        <ele>134.24</ele>
        <time>2016-04-21T09:30:17Z</time>
      </trkpt>
      <trkpt lat="43.21056" lon="5.48796">
        <ele>132.8</ele>
        <time>2016-04-21T09:30:28Z</time>
      </trkpt>
      <trkpt lat="43.21042" lon="5.48797">
        <ele>132.32</ele>
        <time>2016-04-21T09:30:39Z</time>
      </trkpt>
      <trkpt lat="43.21037" lon="5.48797">
        <ele>130.88</ele>
        <time>2016-04-21T09:30:49Z</time>
      </trkpt>
      <trkpt lat="43.21041" lon="5.48801">
        <ele>129.92</ele>
        <time>2016-04-21T09:31:03Z</time>
      </trkpt>
      <trkpt lat="43.2104" lon="5.48803">
        <ele>129.92</ele>
        <time>2016-04-21T09:31:15Z</time>
      </trkpt>
      <trkpt lat="43.21041" lon="5.48804">
        <ele>130.4</ele>
        <time>2016-04-21T09:31:45Z</time>
      </trkpt>
      <trkpt lat="43.2104" lon="5.48806">
        <ele>130.4</ele>
        <time>2016-04-21T09:31:47Z</time>
      </trkpt>
      <trkpt lat="43.21035" lon="5.48812">
        <ele>131.84</ele>
        <time>2016-04-21T09:31:59Z</time>
      </trkpt>
      <trkpt lat="43.21019" lon="5.4885">
        <ele>131.36</ele>
        <time>2016-04-21T09:32:22Z</time>
      </trkpt>
      <trkpt lat="43.21013" lon="5.4886">
        <ele>130.88</ele>
        <time>2016-04-21T09:32:31Z</time>
      </trkpt>
      <trkpt lat="43.21002" lon="5.48874">
        <ele>130.4</ele>
        <time>2016-04-21T09:32:43Z</time>
      </trkpt>
      <trkpt lat="43.21001" lon="5.48887">
        <ele>129.92</ele>
        <time>2016-04-21T09:32:57Z</time>
      </trkpt>
      <trkpt lat="43.21011" lon="5.48909">
        <ele>130.4</ele>
        <time>2016-04-21T09:33:13Z</time>
      </trkpt>
      <trkpt lat="43.21015" lon="5.48916">
        <ele>130.4</ele>
        <time>2016-04-21T09:33:19Z</time>
      </trkpt>
      <trkpt lat="43.21018" lon="5.48922">
        <ele>129.92</ele>
        <time>2016-04-21T09:33:22Z</time>
      </trkpt>
      <trkpt lat="43.21022" lon="5.48935">
        <ele>128.95</ele>
        <time>2016-04-21T09:33:35Z</time>
      </trkpt>
      <trkpt lat="43.21007" lon="5.48944">
        <ele>127.99</ele>
        <time>2016-04-21T09:33:51Z</time>
      </trkpt>
      <trkpt lat="43.21006" lon="5.48944">
        <ele>127.99</ele>
        <time>2016-04-21T09:33:52Z</time>
      </trkpt>
      <trkpt lat="43.20992" lon="5.4894">
        <ele>126.07</ele>
        <time>2016-04-21T09:34:06Z</time>
      </trkpt>
      <trkpt lat="43.20991" lon="5.48939">
        <ele>125.11</ele>
        <time>2016-04-21T09:34:16Z</time>
      </trkpt>
      <trkpt lat="43.20986" lon="5.48933">
        <ele>120.78</ele>
        <time>2016-04-21T09:34:28Z</time>
      </trkpt>
      <trkpt lat="43.20981" lon="5.48932">
        <ele>119.34</ele>
        <time>2016-04-21T09:34:32Z</time>
      </trkpt>
      <trkpt lat="43.20961" lon="5.48929">
        <ele>114.53</ele>
        <time>2016-04-21T09:34:47Z</time>
      </trkpt>
      <trkpt lat="43.20955" lon="5.48944">
        <ele>111.65</ele>
        <time>2016-04-21T09:35:01Z</time>
      </trkpt>
      <trkpt lat="43.20954" lon="5.48947">
        <ele>111.17</ele>
        <time>2016-04-21T09:35:03Z</time>
      </trkpt>
      <trkpt lat="43.20945" lon="5.48972">
        <ele>110.69</ele>
        <time>2016-04-21T09:35:20Z</time>
      </trkpt>
      <trkpt lat="43.20942" lon="5.48992">
        <ele>108.77</ele>
        <time>2016-04-21T09:35:37Z</time>
      </trkpt>
      <trkpt lat="43.20936" lon="5.49012">
        <ele>107.81</ele>
        <time>2016-04-21T09:35:54Z</time>
      </trkpt>
      <trkpt lat="43.20929" lon="5.49019">
        <ele>107.32</ele>
        <time>2016-04-21T09:36:04Z</time>
      </trkpt>
      <trkpt lat="43.20914" lon="5.4902">
        <ele>105.4</ele>
        <time>2016-04-21T09:36:18Z</time>
      </trkpt>
      <trkpt lat="43.20899" lon="5.49012">
        <ele>103.48</ele>
        <time>2016-04-21T09:36:33Z</time>
      </trkpt>
      <trkpt lat="43.20889" lon="5.49007">
        <ele>100.11</ele>
        <time>2016-04-21T09:36:48Z</time>
      </trkpt>
      <trkpt lat="43.20884" lon="5.49013">
        <ele>97.23</ele>
        <time>2016-04-21T09:37:05Z</time>
      </trkpt>
      <trkpt lat="43.20887" lon="5.49032">
        <ele>96.27</ele>
        <time>2016-04-21T09:37:20Z</time>
      </trkpt>
      <trkpt lat="43.20891" lon="5.49043">
        <ele>97.23</ele>
        <time>2016-04-21T09:37:32Z</time>
      </trkpt>
      <trkpt lat="43.20892" lon="5.49061">
        <ele>97.71</ele>
        <time>2016-04-21T09:37:44Z</time>
      </trkpt>
      <trkpt lat="43.20893" lon="5.49082">
        <ele>96.75</ele>
        <time>2016-04-21T09:38:00Z</time>
      </trkpt>
      <trkpt lat="43.20882" lon="5.49102">
        <ele>98.19</ele>
        <time>2016-04-21T09:38:19Z</time>
      </trkpt>
      <trkpt lat="43.2088" lon="5.49103">
        <ele>97.71</ele>
        <time>2016-04-21T09:38:21Z</time>
      </trkpt>
      <trkpt lat="43.20873" lon="5.49109">
        <ele>97.71</ele>
        <time>2016-04-21T09:38:35Z</time>
      </trkpt>
      <trkpt lat="43.20864" lon="5.49115">
        <ele>91.46</ele>
        <time>2016-04-21T09:38:46Z</time>
      </trkpt>
      <trkpt lat="43.20854" lon="5.49123">
        <ele>86.66</ele>
        <time>2016-04-21T09:38:58Z</time>
      </trkpt>
      <trkpt lat="43.20852" lon="5.49126">
        <ele>85.21</ele>
        <time>2016-04-21T09:39:02Z</time>
      </trkpt>
      <trkpt lat="43.20839" lon="5.4913">
        <ele>78</ele>
        <time>2016-04-21T09:39:15Z</time>
      </trkpt>
      <trkpt lat="43.20827" lon="5.49119">
        <ele>79.93</ele>
        <time>2016-04-21T09:39:28Z</time>
      </trkpt>
      <trkpt lat="43.20824" lon="5.49117">
        <ele>80.89</ele>
        <time>2016-04-21T09:39:30Z</time>
      </trkpt>
      <trkpt lat="43.20817" lon="5.49113">
        <ele>83.29</ele>
        <time>2016-04-21T09:39:39Z</time>
      </trkpt>
      <trkpt lat="43.20815" lon="5.4911">
        <ele>84.73</ele>
        <time>2016-04-21T09:39:41Z</time>
      </trkpt>
      <trkpt lat="43.20807" lon="5.49107">
        <ele>84.73</ele>
        <time>2016-04-21T09:39:52Z</time>
      </trkpt>
      <trkpt lat="43.20791" lon="5.49116">
        <ele>82.81</ele>
        <time>2016-04-21T09:40:07Z</time>
      </trkpt>
      <trkpt lat="43.20783" lon="5.49126">
        <ele>81.37</ele>
        <time>2016-04-21T09:40:21Z</time>
      </trkpt>
      <trkpt lat="43.20772" lon="5.49136">
        <ele>79.45</ele>
        <time>2016-04-21T09:40:34Z</time>
      </trkpt>
      <trkpt lat="43.20758" lon="5.49136">
        <ele>77.52</ele>
        <time>2016-04-21T09:40:46Z</time>
      </trkpt>
      <trkpt lat="43.20746" lon="5.4913">
        <ele>80.41</ele>
        <time>2016-04-21T09:40:59Z</time>
      </trkpt>
      <trkpt lat="43.20741" lon="5.49134">
        <ele>81.37</ele>
        <time>2016-04-21T09:41:04Z</time>
      </trkpt>
      <trkpt lat="43.20731" lon="5.49139">
        <ele>79.45</ele>
        <time>2016-04-21T09:41:16Z</time>
      </trkpt>
      <trkpt lat="43.20723" lon="5.4915">
        <ele>79.93</ele>
        <time>2016-04-21T09:41:30Z</time>
      </trkpt>
      <trkpt lat="43.20711" lon="5.49161">
        <ele>78.48</ele>
        <time>2016-04-21T09:41:42Z</time>
      </trkpt>
      <trkpt lat="43.207" lon="5.49167">
        <ele>78</ele>
        <time>2016-04-21T09:41:52Z</time>
      </trkpt>
      <trkpt lat="43.20683" lon="5.49169">
        <ele>77.52</ele>
        <time>2016-04-21T09:42:05Z</time>
      </trkpt>
      <trkpt lat="43.20677" lon="5.49167">
        <ele>78.48</ele>
        <time>2016-04-21T09:42:17Z</time>
      </trkpt>
      <trkpt lat="43.20671" lon="5.49165">
        <ele>78.48</ele>
        <time>2016-04-21T09:42:30Z</time>
      </trkpt>
      <trkpt lat="43.20663" lon="5.49156">
        <ele>84.25</ele>
        <time>2016-04-21T09:42:43Z</time>
      </trkpt>
      <trkpt lat="43.20662" lon="5.49152">
        <ele>84.25</ele>
        <time>2016-04-21T09:42:54Z</time>
      </trkpt>
      <trkpt lat="43.20654" lon="5.49147">
        <ele>80.89</ele>
        <time>2016-04-21T09:43:06Z</time>
      </trkpt>
      <trkpt lat="43.20653" lon="5.49147">
        <ele>80.41</ele>
        <time>2016-04-21T09:43:07Z</time>
      </trkpt>
      <trkpt lat="43.2064" lon="5.49153">
        <ele>78</ele>
        <time>2016-04-21T09:43:20Z</time>
      </trkpt>
      <trkpt lat="43.20633" lon="5.49153">
        <ele>77.52</ele>
        <time>2016-04-21T09:43:28Z</time>
      </trkpt>
      <trkpt lat="43.20628" lon="5.49153">
        <ele>77.52</ele>
        <time>2016-04-21T09:43:33Z</time>
      </trkpt>
      <trkpt lat="43.20619" lon="5.49155">
        <ele>78.48</ele>
        <time>2016-04-21T09:43:45Z</time>
      </trkpt>
      <trkpt lat="43.20618" lon="5.49153">
        <ele>78.48</ele>
        <time>2016-04-21T09:43:46Z</time>
      </trkpt>
      <trkpt lat="43.20609" lon="5.49143">
        <ele>77.04</ele>
        <time>2016-04-21T09:43:58Z</time>
      </trkpt>
      <trkpt lat="43.20597" lon="5.49136">
        <ele>78</ele>
        <time>2016-04-21T09:44:12Z</time>
      </trkpt>
      <trkpt lat="43.20596" lon="5.4914">
        <ele>77.52</ele>
        <time>2016-04-21T09:44:25Z</time>
      </trkpt>
      <trkpt lat="43.20594" lon="5.49149">
        <ele>75.6</ele>
        <time>2016-04-21T09:44:43Z</time>
      </trkpt>
      <trkpt lat="43.20593" lon="5.49153">
        <ele>73.68</ele>
        <time>2016-04-21T09:44:55Z</time>
      </trkpt>
      <trkpt lat="43.20587" lon="5.49159">
        <ele>68.87</ele>
        <time>2016-04-21T09:45:08Z</time>
      </trkpt>
      <trkpt lat="43.2058" lon="5.49161">
        <ele>67.91</ele>
        <time>2016-04-21T09:45:23Z</time>
      </trkpt>
      <trkpt lat="43.20571" lon="5.49163">
        <ele>66.95</ele>
        <time>2016-04-21T09:45:39Z</time>
      </trkpt>
      <trkpt lat="43.20567" lon="5.49159">
        <ele>66.95</ele>
        <time>2016-04-21T09:45:51Z</time>
      </trkpt>
      <trkpt lat="43.20562" lon="5.49158">
        <ele>66.47</ele>
        <time>2016-04-21T09:46:05Z</time>
      </trkpt>
      <trkpt lat="43.20559" lon="5.49154">
        <ele>65.99</ele>
        <time>2016-04-21T09:46:19Z</time>
      </trkpt>
      <trkpt lat="43.20549" lon="5.49149">
        <ele>65.03</ele>
        <time>2016-04-21T09:46:35Z</time>
      </trkpt>
      <trkpt lat="43.20537" lon="5.49148">
        <ele>64.07</ele>
        <time>2016-04-21T09:46:51Z</time>
      </trkpt>
      <trkpt lat="43.20536" lon="5.49149">
        <ele>63.58</ele>
        <time>2016-04-21T09:46:55Z</time>
      </trkpt>
      <trkpt lat="43.20529" lon="5.49132">
        <ele>61.18</ele>
        <time>2016-04-21T09:47:01Z</time>
      </trkpt>
      <trkpt lat="43.20527" lon="5.49125">
        <ele>57.82</ele>
        <time>2016-04-21T09:47:16Z</time>
      </trkpt>
      <trkpt lat="43.20522" lon="5.49126">
        <ele>55.41</ele>
        <time>2016-04-21T09:47:32Z</time>
      </trkpt>
      <trkpt lat="43.20514" lon="5.49126">
        <ele>52.53</ele>
        <time>2016-04-21T09:47:41Z</time>
      </trkpt>
      <trkpt lat="43.20505" lon="5.49123">
        <ele>49.16</ele>
        <time>2016-04-21T09:47:49Z</time>
      </trkpt>
      <trkpt lat="43.20501" lon="5.49125">
        <ele>47.24</ele>
        <time>2016-04-21T09:47:59Z</time>
      </trkpt>
      <trkpt lat="43.20491" lon="5.49126">
        <ele>43.4</ele>
        <time>2016-04-21T09:48:13Z</time>
      </trkpt>
      <trkpt lat="43.20482" lon="5.49125">
        <ele>40.51</ele>
        <time>2016-04-21T09:48:26Z</time>
      </trkpt>
      <trkpt lat="43.20472" lon="5.49123">
        <ele>36.67</ele>
        <time>2016-04-21T09:48:40Z</time>
      </trkpt>
      <trkpt lat="43.20468" lon="5.49129">
        <ele>36.19</ele>
        <time>2016-04-21T09:49:04Z</time>
      </trkpt>
      <trkpt lat="43.20456" lon="5.49135">
        <ele>36.19</ele>
        <time>2016-04-21T09:49:13Z</time>
      </trkpt>
      <trkpt lat="43.2045" lon="5.49152">
        <ele>35.71</ele>
        <time>2016-04-21T09:49:24Z</time>
      </trkpt>
      <trkpt lat="43.20442" lon="5.49164">
        <ele>34.74</ele>
        <time>2016-04-21T09:49:37Z</time>
      </trkpt>
      <trkpt lat="43.20435" lon="5.49171">
        <ele>33.78</ele>
        <time>2016-04-21T09:49:52Z</time>
      </trkpt>
      <trkpt lat="43.20428" lon="5.49171">
        <ele>33.3</ele>
        <time>2016-04-21T09:50:08Z</time>
      </trkpt>
      <trkpt lat="43.20426" lon="5.49167">
        <ele>31.38</ele>
        <time>2016-04-21T09:50:23Z</time>
      </trkpt>
      <trkpt lat="43.20421" lon="5.49166">
        <ele>28.5</ele>
        <time>2016-04-21T09:50:42Z</time>
      </trkpt>
      <trkpt lat="43.20417" lon="5.49167">
        <ele>28.02</ele>
        <time>2016-04-21T09:51:05Z</time>
      </trkpt>
      <trkpt lat="43.20403" lon="5.49172">
        <ele>26.57</ele>
        <time>2016-04-21T09:51:27Z</time>
      </trkpt>
      <trkpt lat="43.20413" lon="5.49185">
        <ele>26.57</ele>
        <time>2016-04-21T09:54:07Z</time>
      </trkpt>
      <trkpt lat="43.2041" lon="5.4919">
        <ele>26.09</ele>
        <time>2016-04-21T09:54:26Z</time>
      </trkpt>
      <trkpt lat="43.20407" lon="5.49196">
        <ele>26.09</ele>
        <time>2016-04-21T09:54:42Z</time>
      </trkpt>
      <trkpt lat="43.20409" lon="5.49192">
        <ele>28.5</ele>
        <time>2016-04-21T09:55:05Z</time>
      </trkpt>
      <trkpt lat="43.20405" lon="5.49191">
        <ele>37.15</ele>
        <time>2016-04-21T09:56:08Z</time>
      </trkpt>
      <trkpt lat="43.20408" lon="5.49191">
        <ele>42.92</ele>
        <time>2016-04-21T09:56:31Z</time>
      </trkpt>
      <trkpt lat="43.20405" lon="5.49193">
        <ele>43.4</ele>
        <time>2016-04-21T09:56:50Z</time>
      </trkpt>
      <trkpt lat="43.20414" lon="5.49179">
        <ele>40.99</ele>
        <time>2016-04-21T09:57:06Z</time>
      </trkpt>
      <trkpt lat="43.2042" lon="5.49177">
        <ele>38.11</ele>
        <time>2016-04-21T09:57:34Z</time>
      </trkpt>
      <trkpt lat="43.20421" lon="5.49174">
        <ele>38.59</ele>
        <time>2016-04-21T09:58:04Z</time>
      </trkpt>
      <trkpt lat="43.20433" lon="5.49166">
        <ele>36.67</ele>
        <time>2016-04-21T09:58:29Z</time>
      </trkpt>
      <trkpt lat="43.20444" lon="5.49152">
        <ele>36.67</ele>
        <time>2016-04-21T09:58:45Z</time>
      </trkpt>
      <trkpt lat="43.20443" lon="5.49148">
        <ele>38.11</ele>
        <time>2016-04-21T09:59:03Z</time>
      </trkpt>
      <trkpt lat="43.20447" lon="5.4914">
        <ele>38.59</ele>
        <time>2016-04-21T09:59:18Z</time>
      </trkpt>
      <trkpt lat="43.2045" lon="5.49125">
        <ele>39.55</ele>
        <time>2016-04-21T09:59:36Z</time>
      </trkpt>
      <trkpt lat="43.2045" lon="5.49123">
        <ele>39.07</ele>
        <time>2016-04-21T09:59:37Z</time>
      </trkpt>
      <trkpt lat="43.20452" lon="5.49115">
        <ele>40.03</ele>
        <time>2016-04-21T09:59:55Z</time>
      </trkpt>
      <trkpt lat="43.20455" lon="5.49116">
        <ele>40.03</ele>
        <time>2016-04-21T10:00:21Z</time>
      </trkpt>
      <trkpt lat="43.20475" lon="5.49118">
        <ele>43.4</ele>
        <time>2016-04-21T10:00:36Z</time>
      </trkpt>
      <trkpt lat="43.20496" lon="5.49119">
        <ele>43.88</ele>
        <time>2016-04-21T10:00:49Z</time>
      </trkpt>
      <trkpt lat="43.20507" lon="5.49123">
        <ele>46.28</ele>
        <time>2016-04-21T10:01:02Z</time>
      </trkpt>
      <trkpt lat="43.20512" lon="5.49124">
        <ele>47.72</ele>
        <time>2016-04-21T10:01:15Z</time>
      </trkpt>
      <trkpt lat="43.20515" lon="5.49123">
        <ele>48.2</ele>
        <time>2016-04-21T10:01:30Z</time>
      </trkpt>
      <trkpt lat="43.20516" lon="5.49122">
        <ele>49.16</ele>
        <time>2016-04-21T10:02:31Z</time>
      </trkpt>
      <trkpt lat="43.20518" lon="5.49118">
        <ele>49.65</ele>
        <time>2016-04-21T10:03:24Z</time>
      </trkpt>
      <trkpt lat="43.20519" lon="5.49113">
        <ele>49.65</ele>
        <time>2016-04-21T10:03:33Z</time>
      </trkpt>
      <trkpt lat="43.20525" lon="5.49108">
        <ele>48.68</ele>
        <time>2016-04-21T10:03:46Z</time>
      </trkpt>
      <trkpt lat="43.20527" lon="5.49101">
        <ele>48.68</ele>
        <time>2016-04-21T10:04:01Z</time>
      </trkpt>
      <trkpt lat="43.20527" lon="5.49095">
        <ele>50.61</ele>
        <time>2016-04-21T10:04:15Z</time>
      </trkpt>
      <trkpt lat="43.20528" lon="5.49088">
        <ele>51.57</ele>
        <time>2016-04-21T10:04:26Z</time>
      </trkpt>
      <trkpt lat="43.20527" lon="5.49086">
        <ele>52.05</ele>
        <time>2016-04-21T10:04:45Z</time>
      </trkpt>
      <trkpt lat="43.20525" lon="5.49082">
        <ele>56.37</ele>
        <time>2016-04-21T10:04:56Z</time>
      </trkpt>
      <trkpt lat="43.20522" lon="5.49078">
        <ele>58.78</ele>
        <time>2016-04-21T10:05:07Z</time>
      </trkpt>
      <trkpt lat="43.2052" lon="5.49075">
        <ele>60.22</ele>
        <time>2016-04-21T10:05:22Z</time>
      </trkpt>
      <trkpt lat="43.20521" lon="5.49073">
        <ele>61.66</ele>
        <time>2016-04-21T10:06:17Z</time>
      </trkpt>
      <trkpt lat="43.20523" lon="5.49067">
        <ele>64.55</ele>
        <time>2016-04-21T10:06:47Z</time>
      </trkpt>
      <trkpt lat="43.20525" lon="5.49059">
        <ele>65.99</ele>
        <time>2016-04-21T10:07:00Z</time>
      </trkpt>
      <trkpt lat="43.2052" lon="5.49055">
        <ele>68.39</ele>
        <time>2016-04-21T10:07:13Z</time>
      </trkpt>
      <trkpt lat="43.2052" lon="5.49052">
        <ele>66.95</ele>
        <time>2016-04-21T10:07:27Z</time>
      </trkpt>
      <trkpt lat="43.20515" lon="5.49046">
        <ele>65.99</ele>
        <time>2016-04-21T10:07:39Z</time>
      </trkpt>
      <trkpt lat="43.20516" lon="5.49044">
        <ele>66.47</ele>
        <time>2016-04-21T10:07:46Z</time>
      </trkpt>
      <trkpt lat="43.20515" lon="5.49039">
        <ele>68.39</ele>
        <time>2016-04-21T10:07:57Z</time>
      </trkpt>
      <trkpt lat="43.20515" lon="5.49033">
        <ele>69.35</ele>
        <time>2016-04-21T10:08:10Z</time>
      </trkpt>
      <trkpt lat="43.20515" lon="5.49028">
        <ele>70.31</ele>
        <time>2016-04-21T10:08:22Z</time>
      </trkpt>
      <trkpt lat="43.20514" lon="5.49026">
        <ele>70.31</ele>
        <time>2016-04-21T10:08:34Z</time>
      </trkpt>
      <trkpt lat="43.20513" lon="5.49016">
        <ele>70.31</ele>
        <time>2016-04-21T10:08:47Z</time>
      </trkpt>
      <trkpt lat="43.20512" lon="5.4901">
        <ele>72.24</ele>
        <time>2016-04-21T10:08:57Z</time>
      </trkpt>
      <trkpt lat="43.20513" lon="5.49009">
        <ele>72.24</ele>
        <time>2016-04-21T10:09:00Z</time>
      </trkpt>
      <trkpt lat="43.20512" lon="5.49002">
        <ele>73.2</ele>
        <time>2016-04-21T10:09:12Z</time>
      </trkpt>
      <trkpt lat="43.2051" lon="5.48995">
        <ele>75.12</ele>
        <time>2016-04-21T10:09:24Z</time>
      </trkpt>
      <trkpt lat="43.20508" lon="5.48991">
        <ele>77.04</ele>
        <time>2016-04-21T10:09:35Z</time>
      </trkpt>
      <trkpt lat="43.2051" lon="5.48983">
        <ele>79.93</ele>
        <time>2016-04-21T10:09:49Z</time>
      </trkpt>
      <trkpt lat="43.20513" lon="5.48978">
        <ele>81.85</ele>
        <time>2016-04-21T10:10:01Z</time>
      </trkpt>
      <trkpt lat="43.20514" lon="5.48976">
        <ele>83.77</ele>
        <time>2016-04-21T10:10:13Z</time>
      </trkpt>
      <trkpt lat="43.20511" lon="5.48972">
        <ele>83.29</ele>
        <time>2016-04-21T10:10:24Z</time>
      </trkpt>
      <trkpt lat="43.20512" lon="5.48963">
        <ele>85.69</ele>
        <time>2016-04-21T10:10:36Z</time>
      </trkpt>
      <trkpt lat="43.2051" lon="5.48962">
        <ele>86.18</ele>
        <time>2016-04-21T10:10:51Z</time>
      </trkpt>
      <trkpt lat="43.20509" lon="5.4896">
        <ele>87.62</ele>
        <time>2016-04-21T10:13:21Z</time>
      </trkpt>
      <trkpt lat="43.2051" lon="5.48958">
        <ele>88.58</ele>
        <time>2016-04-21T10:13:52Z</time>
      </trkpt>
      <trkpt lat="43.20513" lon="5.48948">
        <ele>90.5</ele>
        <time>2016-04-21T10:14:07Z</time>
      </trkpt>
      <trkpt lat="43.20511" lon="5.48938">
        <ele>96.75</ele>
        <time>2016-04-21T10:14:19Z</time>
      </trkpt>
      <trkpt lat="43.20507" lon="5.48941">
        <ele>99.15</ele>
        <time>2016-04-21T10:14:34Z</time>
      </trkpt>
      <trkpt lat="43.20501" lon="5.48946">
        <ele>100.6</ele>
        <time>2016-04-21T10:14:48Z</time>
      </trkpt>
      <trkpt lat="43.20498" lon="5.48948">
        <ele>101.56</ele>
        <time>2016-04-21T10:15:01Z</time>
      </trkpt>
      <trkpt lat="43.20497" lon="5.4895">
        <ele>101.08</ele>
        <time>2016-04-21T10:15:14Z</time>
      </trkpt>
      <trkpt lat="43.20487" lon="5.48959">
        <ele>100.11</ele>
        <time>2016-04-21T10:15:26Z</time>
      </trkpt>
      <trkpt lat="43.20478" lon="5.48958">
        <ele>102.52</ele>
        <time>2016-04-21T10:15:37Z</time>
      </trkpt>
      <trkpt lat="43.20477" lon="5.48956">
        <ele>104.44</ele>
        <time>2016-04-21T10:15:53Z</time>
      </trkpt>
      <trkpt lat="43.20479" lon="5.48959">
        <ele>106.36</ele>
        <time>2016-04-21T10:16:23Z</time>
      </trkpt>
      <trkpt lat="43.20477" lon="5.48965">
        <ele>105.88</ele>
        <time>2016-04-21T10:16:36Z</time>
      </trkpt>
      <trkpt lat="43.20476" lon="5.48965">
        <ele>105.88</ele>
        <time>2016-04-21T10:16:49Z</time>
      </trkpt>
      <trkpt lat="43.20476" lon="5.48965">
        <ele>105.4</ele>
        <time>2016-04-21T10:17:04Z</time>
      </trkpt>
      <trkpt lat="43.20475" lon="5.48966">
        <ele>105.4</ele>
        <time>2016-04-21T10:17:23Z</time>
      </trkpt>
      <trkpt lat="43.20477" lon="5.48967">
        <ele>107.32</ele>
        <time>2016-04-21T10:17:41Z</time>
      </trkpt>
      <trkpt lat="43.20476" lon="5.48966">
        <ele>107.81</ele>
        <time>2016-04-21T10:17:56Z</time>
      </trkpt>
      <trkpt lat="43.20475" lon="5.4897">
        <ele>108.77</ele>
        <time>2016-04-21T10:18:40Z</time>
      </trkpt>
      <trkpt lat="43.20475" lon="5.48976">
        <ele>109.73</ele>
        <time>2016-04-21T10:18:50Z</time>
      </trkpt>
      <trkpt lat="43.20474" lon="5.48976">
        <ele>112.13</ele>
        <time>2016-04-21T10:19:07Z</time>
      </trkpt>
      <trkpt lat="43.20475" lon="5.48975">
        <ele>111.65</ele>
        <time>2016-04-21T10:19:29Z</time>
      </trkpt>
      <trkpt lat="43.20475" lon="5.48975">
        <ele>111.65</ele>
        <time>2016-04-21T10:20:08Z</time>
      </trkpt>
      <trkpt lat="43.20477" lon="5.48971">
        <ele>111.65</ele>
        <time>2016-04-21T10:20:47Z</time>
      </trkpt>
      <trkpt lat="43.20478" lon="5.48964">
        <ele>112.61</ele>
        <time>2016-04-21T10:21:04Z</time>
      </trkpt>
      <trkpt lat="43.20478" lon="5.48959">
        <ele>112.13</ele>
        <time>2016-04-21T10:21:33Z</time>
      </trkpt>
      <trkpt lat="43.2048" lon="5.48957">
        <ele>111.65</ele>
        <time>2016-04-21T10:22:16Z</time>
      </trkpt>
      <trkpt lat="43.20483" lon="5.48955">
        <ele>111.17</ele>
        <time>2016-04-21T10:22:20Z</time>
      </trkpt>
      <trkpt lat="43.20484" lon="5.48951">
        <ele>112.13</ele>
        <time>2016-04-21T10:22:31Z</time>
      </trkpt>
      <trkpt lat="43.20483" lon="5.48945">
        <ele>113.57</ele>
        <time>2016-04-21T10:22:46Z</time>
      </trkpt>
      <trkpt lat="43.20483" lon="5.48944">
        <ele>114.05</ele>
        <time>2016-04-21T10:23:10Z</time>
      </trkpt>
      <trkpt lat="43.2048" lon="5.48942">
        <ele>114.05</ele>
        <time>2016-04-21T10:23:13Z</time>
      </trkpt>
      <trkpt lat="43.20479" lon="5.48937">
        <ele>114.05</ele>
        <time>2016-04-21T10:23:26Z</time>
      </trkpt>
      <trkpt lat="43.20482" lon="5.48928">
        <ele>114.53</ele>
        <time>2016-04-21T10:23:37Z</time>
      </trkpt>
      <trkpt lat="43.20481" lon="5.48922">
        <ele>117.9</ele>
        <time>2016-04-21T10:23:49Z</time>
      </trkpt>
      <trkpt lat="43.20481" lon="5.48919">
        <ele>118.86</ele>
        <time>2016-04-21T10:24:06Z</time>
      </trkpt>
      <trkpt lat="43.20483" lon="5.48917">
        <ele>120.78</ele>
        <time>2016-04-21T10:24:19Z</time>
      </trkpt>
      <trkpt lat="43.20483" lon="5.48917">
        <ele>120.78</ele>
        <time>2016-04-21T10:25:13Z</time>
      </trkpt>
      <trkpt lat="43.20484" lon="5.48916">
        <ele>120.78</ele>
        <time>2016-04-21T10:25:41Z</time>
      </trkpt>
      <trkpt lat="43.20483" lon="5.48909">
        <ele>122.22</ele>
        <time>2016-04-21T10:25:55Z</time>
      </trkpt>
      <trkpt lat="43.20481" lon="5.48903">
        <ele>124.15</ele>
        <time>2016-04-21T10:26:09Z</time>
      </trkpt>
      <trkpt lat="43.20482" lon="5.48899">
        <ele>126.55</ele>
        <time>2016-04-21T10:26:32Z</time>
      </trkpt>
      <trkpt lat="43.20481" lon="5.48897">
        <ele>127.99</ele>
        <time>2016-04-21T10:26:43Z</time>
      </trkpt>
      <trkpt lat="43.20481" lon="5.48897">
        <ele>127.99</ele>
        <time>2016-04-21T10:27:00Z</time>
      </trkpt>
      <trkpt lat="43.20475" lon="5.48892">
        <ele>130.4</ele>
        <time>2016-04-21T10:27:15Z</time>
      </trkpt>
      <trkpt lat="43.2047" lon="5.48889">
        <ele>135.2</ele>
        <time>2016-04-21T10:27:33Z</time>
      </trkpt>
      <trkpt lat="43.20469" lon="5.48885">
        <ele>137.13</ele>
        <time>2016-04-21T10:27:50Z</time>
      </trkpt>
      <trkpt lat="43.20468" lon="5.48883">
        <ele>138.09</ele>
        <time>2016-04-21T10:28:09Z</time>
      </trkpt>
      <trkpt lat="43.2047" lon="5.48881">
        <ele>140.97</ele>
        <time>2016-04-21T10:28:27Z</time>
      </trkpt>
      <trkpt lat="43.20468" lon="5.48878">
        <ele>142.41</ele>
        <time>2016-04-21T10:28:40Z</time>
      </trkpt>
      <trkpt lat="43.2047" lon="5.48875">
        <ele>145.78</ele>
        <time>2016-04-21T10:28:54Z</time>
      </trkpt>
      <trkpt lat="43.20471" lon="5.48875">
        <ele>146.26</ele>
        <time>2016-04-21T10:28:57Z</time>
      </trkpt>
      <trkpt lat="43.20472" lon="5.48871">
        <ele>148.66</ele>
        <time>2016-04-21T10:29:09Z</time>
      </trkpt>
      <trkpt lat="43.2047" lon="5.48871">
        <ele>149.14</ele>
        <time>2016-04-21T10:29:15Z</time>
      </trkpt>
      <trkpt lat="43.2046" lon="5.48867">
        <ele>154.43</ele>
        <time>2016-04-21T10:29:28Z</time>
      </trkpt>
      <trkpt lat="43.20458" lon="5.48866">
        <ele>156.35</ele>
        <time>2016-04-21T10:29:40Z</time>
      </trkpt>
      <trkpt lat="43.2046" lon="5.48861">
        <ele>161.16</ele>
        <time>2016-04-21T10:29:53Z</time>
      </trkpt>
      <trkpt lat="43.20465" lon="5.48857">
        <ele>163.08</ele>
        <time>2016-04-21T10:30:00Z</time>
      </trkpt>
      <trkpt lat="43.20467" lon="5.48855">
        <ele>164.04</ele>
        <time>2016-04-21T10:30:02Z</time>
      </trkpt>
      <trkpt lat="43.20468" lon="5.48854">
        <ele>165.48</ele>
        <time>2016-04-21T10:30:05Z</time>
      </trkpt>
      <trkpt lat="43.20468" lon="5.48849">
        <ele>165.48</ele>
        <time>2016-04-21T10:30:10Z</time>
      </trkpt>
      <trkpt lat="43.20467" lon="5.48848">
        <ele>166.45</ele>
        <time>2016-04-21T10:30:31Z</time>
      </trkpt>
      <trkpt lat="43.20468" lon="5.48848">
        <ele>166.45</ele>
        <time>2016-04-21T10:31:00Z</time>
      </trkpt>
      <trkpt lat="43.20472" lon="5.48849">
        <ele>165.96</ele>
        <time>2016-04-21T10:31:09Z</time>
      </trkpt>
      <trkpt lat="43.20474" lon="5.48846">
        <ele>165</ele>
        <time>2016-04-21T10:31:20Z</time>
      </trkpt>
      <trkpt lat="43.20476" lon="5.4884">
        <ele>165</ele>
        <time>2016-04-21T10:31:30Z</time>
      </trkpt>
      <trkpt lat="43.20477" lon="5.48836">
        <ele>165.96</ele>
        <time>2016-04-21T10:31:39Z</time>
      </trkpt>
      <trkpt lat="43.2048" lon="5.48833">
        <ele>165.48</ele>
        <time>2016-04-21T10:31:58Z</time>
      </trkpt>
      <trkpt lat="43.20482" lon="5.48831">
        <ele>165.96</ele>
        <time>2016-04-21T10:32:00Z</time>
      </trkpt>
      <trkpt lat="43.20485" lon="5.48825">
        <ele>166.45</ele>
        <time>2016-04-21T10:32:15Z</time>
      </trkpt>
      <trkpt lat="43.20485" lon="5.48825">
        <ele>166.45</ele>
        <time>2016-04-21T10:32:32Z</time>
      </trkpt>
      <trkpt lat="43.20492" lon="5.48816">
        <ele>166.45</ele>
        <time>2016-04-21T10:32:43Z</time>
      </trkpt>
      <trkpt lat="43.20494" lon="5.4881">
        <ele>166.45</ele>
        <time>2016-04-21T10:32:54Z</time>
      </trkpt>
      <trkpt lat="43.20496" lon="5.48804">
        <ele>167.89</ele>
        <time>2016-04-21T10:33:07Z</time>
      </trkpt>
      <trkpt lat="43.20497" lon="5.48799">
        <ele>169.81</ele>
        <time>2016-04-21T10:33:53Z</time>
      </trkpt>
      <trkpt lat="43.20495" lon="5.48792">
        <ele>172.69</ele>
        <time>2016-04-21T10:34:06Z</time>
      </trkpt>
      <trkpt lat="43.20495" lon="5.48786">
        <ele>174.62</ele>
        <time>2016-04-21T10:34:20Z</time>
      </trkpt>
      <trkpt lat="43.20495" lon="5.48783">
        <ele>176.06</ele>
        <time>2016-04-21T10:34:43Z</time>
      </trkpt>
      <trkpt lat="43.20497" lon="5.4878">
        <ele>177.02</ele>
        <time>2016-04-21T10:35:06Z</time>
      </trkpt>
      <trkpt lat="43.20498" lon="5.48775">
        <ele>177.98</ele>
        <time>2016-04-21T10:35:34Z</time>
      </trkpt>
      <trkpt lat="43.20496" lon="5.48769">
        <ele>180.87</ele>
        <time>2016-04-21T10:35:47Z</time>
      </trkpt>
      <trkpt lat="43.20497" lon="5.48763">
        <ele>185.19</ele>
        <time>2016-04-21T10:36:00Z</time>
      </trkpt>
      <trkpt lat="43.20494" lon="5.48757">
        <ele>186.63</ele>
        <time>2016-04-21T10:36:12Z</time>
      </trkpt>
      <trkpt lat="43.20493" lon="5.48755">
        <ele>187.11</ele>
        <time>2016-04-21T10:36:30Z</time>
      </trkpt>
      <trkpt lat="43.20496" lon="5.48751">
        <ele>188.56</ele>
        <time>2016-04-21T10:36:47Z</time>
      </trkpt>
      <trkpt lat="43.20498" lon="5.48743">
        <ele>190</ele>
        <time>2016-04-21T10:36:58Z</time>
      </trkpt>
      <trkpt lat="43.20499" lon="5.48738">
        <ele>192.88</ele>
        <time>2016-04-21T10:37:14Z</time>
      </trkpt>
      <trkpt lat="43.205" lon="5.48737">
        <ele>193.36</ele>
        <time>2016-04-21T10:37:33Z</time>
      </trkpt>
      <trkpt lat="43.20501" lon="5.4873">
        <ele>193.84</ele>
        <time>2016-04-21T10:38:06Z</time>
      </trkpt>
      <trkpt lat="43.20504" lon="5.48721">
        <ele>196.73</ele>
        <time>2016-04-21T10:38:18Z</time>
      </trkpt>
      <trkpt lat="43.20504" lon="5.48717">
        <ele>198.17</ele>
        <time>2016-04-21T10:38:27Z</time>
      </trkpt>
      <trkpt lat="43.20502" lon="5.48712">
        <ele>200.09</ele>
        <time>2016-04-21T10:38:41Z</time>
      </trkpt>
      <trkpt lat="43.205" lon="5.48708">
        <ele>201.53</ele>
        <time>2016-04-21T10:38:56Z</time>
      </trkpt>
      <trkpt lat="43.205" lon="5.48708">
        <ele>202.01</ele>
        <time>2016-04-21T10:39:13Z</time>
      </trkpt>
      <trkpt lat="43.20501" lon="5.48707">
        <ele>202.01</ele>
        <time>2016-04-21T10:39:28Z</time>
      </trkpt>
      <trkpt lat="43.20503" lon="5.48705">
        <ele>201.53</ele>
        <time>2016-04-21T10:39:32Z</time>
      </trkpt>
      <trkpt lat="43.20504" lon="5.48704">
        <ele>202.01</ele>
        <time>2016-04-21T10:39:38Z</time>
      </trkpt>
      <trkpt lat="43.20506" lon="5.48701">
        <ele>202.49</ele>
        <time>2016-04-21T10:39:41Z</time>
      </trkpt>
      <trkpt lat="43.20508" lon="5.48692">
        <ele>202.98</ele>
        <time>2016-04-21T10:39:51Z</time>
      </trkpt>
      <trkpt lat="43.2051" lon="5.48683">
        <ele>203.94</ele>
        <time>2016-04-21T10:40:03Z</time>
      </trkpt>
      <trkpt lat="43.20511" lon="5.48676">
        <ele>206.82</ele>
        <time>2016-04-21T10:40:15Z</time>
      </trkpt>
      <trkpt lat="43.20513" lon="5.48671">
        <ele>207.78</ele>
        <time>2016-04-21T10:40:20Z</time>
      </trkpt>
      <trkpt lat="43.20519" lon="5.48662">
        <ele>210.67</ele>
        <time>2016-04-21T10:40:31Z</time>
      </trkpt>
      <trkpt lat="43.2052" lon="5.48661">
        <ele>210.67</ele>
        <time>2016-04-21T10:40:32Z</time>
      </trkpt>
      <trkpt lat="43.20521" lon="5.48654">
        <ele>212.59</ele>
        <time>2016-04-21T10:40:46Z</time>
      </trkpt>
      <trkpt lat="43.20522" lon="5.48652">
        <ele>212.59</ele>
        <time>2016-04-21T10:42:36Z</time>
      </trkpt>
      <trkpt lat="43.20534" lon="5.48638">
        <ele>211.15</ele>
        <time>2016-04-21T10:42:51Z</time>
      </trkpt>
      <trkpt lat="43.20537" lon="5.48627">
        <ele>215.47</ele>
        <time>2016-04-21T10:43:02Z</time>
      </trkpt>
      <trkpt lat="43.2054" lon="5.48618">
        <ele>216.91</ele>
        <time>2016-04-21T10:43:16Z</time>
      </trkpt>
      <trkpt lat="43.20539" lon="5.48613">
        <ele>216.43</ele>
        <time>2016-04-21T10:43:28Z</time>
      </trkpt>
      <trkpt lat="43.20542" lon="5.48604">
        <ele>217.88</ele>
        <time>2016-04-21T10:43:41Z</time>
      </trkpt>
      <trkpt lat="43.20543" lon="5.48601">
        <ele>217.88</ele>
        <time>2016-04-21T10:43:44Z</time>
      </trkpt>
      <trkpt lat="43.20545" lon="5.48594">
        <ele>217.4</ele>
        <time>2016-04-21T10:43:52Z</time>
      </trkpt>
      <trkpt lat="43.20549" lon="5.48586">
        <ele>216.43</ele>
        <time>2016-04-21T10:44:03Z</time>
      </trkpt>
      <trkpt lat="43.2055" lon="5.48582">
        <ele>216.91</ele>
        <time>2016-04-21T10:44:14Z</time>
      </trkpt>
      <trkpt lat="43.20557" lon="5.48571">
        <ele>218.36</ele>
        <time>2016-04-21T10:44:27Z</time>
      </trkpt>
      <trkpt lat="43.20559" lon="5.4856">
        <ele>218.36</ele>
        <time>2016-04-21T10:44:39Z</time>
      </trkpt>
      <trkpt lat="43.20558" lon="5.48554">
        <ele>220.28</ele>
        <time>2016-04-21T10:44:50Z</time>
      </trkpt>
      <trkpt lat="43.20559" lon="5.48551">
        <ele>220.76</ele>
        <time>2016-04-21T10:46:04Z</time>
      </trkpt>
      <trkpt lat="43.20563" lon="5.48542">
        <ele>221.72</ele>
        <time>2016-04-21T10:46:15Z</time>
      </trkpt>
      <trkpt lat="43.20563" lon="5.48541">
        <ele>221.72</ele>
        <time>2016-04-21T10:46:16Z</time>
      </trkpt>
      <trkpt lat="43.20563" lon="5.48528">
        <ele>223.16</ele>
        <time>2016-04-21T10:46:27Z</time>
      </trkpt>
      <trkpt lat="43.20566" lon="5.48516">
        <ele>223.64</ele>
        <time>2016-04-21T10:46:38Z</time>
      </trkpt>
      <trkpt lat="43.20566" lon="5.48508">
        <ele>225.09</ele>
        <time>2016-04-21T10:46:47Z</time>
      </trkpt>
      <trkpt lat="43.20563" lon="5.48502">
        <ele>226.05</ele>
        <time>2016-04-21T10:46:59Z</time>
      </trkpt>
      <trkpt lat="43.20564" lon="5.48497">
        <ele>227.97</ele>
        <time>2016-04-21T10:47:17Z</time>
      </trkpt>
      <trkpt lat="43.20563" lon="5.48489">
        <ele>229.89</ele>
        <time>2016-04-21T10:47:29Z</time>
      </trkpt>
      <trkpt lat="43.20565" lon="5.48487">
        <ele>230.37</ele>
        <time>2016-04-21T10:47:54Z</time>
      </trkpt>
      <trkpt lat="43.20568" lon="5.48478">
        <ele>231.81</ele>
        <time>2016-04-21T10:48:03Z</time>
      </trkpt>
      <trkpt lat="43.20573" lon="5.48477">
        <ele>231.33</ele>
        <time>2016-04-21T10:48:55Z</time>
      </trkpt>
      <trkpt lat="43.20582" lon="5.48471">
        <ele>227.97</ele>
        <time>2016-04-21T10:49:08Z</time>
      </trkpt>
      <trkpt lat="43.20586" lon="5.48463">
        <ele>228.93</ele>
        <time>2016-04-21T10:49:20Z</time>
      </trkpt>
      <trkpt lat="43.20591" lon="5.48458">
        <ele>227.01</ele>
        <time>2016-04-21T10:49:41Z</time>
      </trkpt>
      <trkpt lat="43.20597" lon="5.48454">
        <ele>225.57</ele>
        <time>2016-04-21T10:50:14Z</time>
      </trkpt>
      <trkpt lat="43.20598" lon="5.48453">
        <ele>225.09</ele>
        <time>2016-04-21T10:50:16Z</time>
      </trkpt>
      <trkpt lat="43.20602" lon="5.48449">
        <ele>225.09</ele>
        <time>2016-04-21T10:50:22Z</time>
      </trkpt>
      <trkpt lat="43.20607" lon="5.48444">
        <ele>225.09</ele>
        <time>2016-04-21T10:50:33Z</time>
      </trkpt>
      <trkpt lat="43.20611" lon="5.48438">
        <ele>224.12</ele>
        <time>2016-04-21T10:50:39Z</time>
      </trkpt>
      <trkpt lat="43.2062" lon="5.48429">
        <ele>221.24</ele>
        <time>2016-04-21T10:50:52Z</time>
      </trkpt>
      <trkpt lat="43.20625" lon="5.4842">
        <ele>221.24</ele>
        <time>2016-04-21T10:51:04Z</time>
      </trkpt>
      <trkpt lat="43.20629" lon="5.48412">
        <ele>219.8</ele>
        <time>2016-04-21T10:51:15Z</time>
      </trkpt>
      <trkpt lat="43.20632" lon="5.48412">
        <ele>219.32</ele>
        <time>2016-04-21T10:51:46Z</time>
      </trkpt>
      <trkpt lat="43.20633" lon="5.48412">
        <ele>218.84</ele>
        <time>2016-04-21T10:51:59Z</time>
      </trkpt>
      <trkpt lat="43.20639" lon="5.48406">
        <ele>217.88</ele>
        <time>2016-04-21T10:52:10Z</time>
      </trkpt>
      <trkpt lat="43.20644" lon="5.48398">
        <ele>219.32</ele>
        <time>2016-04-21T10:52:22Z</time>
      </trkpt>
      <trkpt lat="43.20652" lon="5.48395">
        <ele>219.32</ele>
        <time>2016-04-21T10:52:33Z</time>
      </trkpt>
      <trkpt lat="43.20655" lon="5.48393">
        <ele>218.84</ele>
        <time>2016-04-21T10:52:38Z</time>
      </trkpt>
      <trkpt lat="43.20658" lon="5.48386">
        <ele>218.84</ele>
        <time>2016-04-21T10:52:43Z</time>
      </trkpt>
      <trkpt lat="43.20662" lon="5.4838">
        <ele>217.88</ele>
        <time>2016-04-21T10:52:56Z</time>
      </trkpt>
      <trkpt lat="43.20666" lon="5.48381">
        <ele>217.4</ele>
        <time>2016-04-21T10:53:28Z</time>
      </trkpt>
      <trkpt lat="43.2067" lon="5.48379">
        <ele>217.4</ele>
        <time>2016-04-21T10:53:33Z</time>
      </trkpt>
      <trkpt lat="43.20678" lon="5.4838">
        <ele>217.4</ele>
        <time>2016-04-21T10:53:42Z</time>
      </trkpt>
      <trkpt lat="43.20679" lon="5.48377">
        <ele>216.91</ele>
        <time>2016-04-21T10:54:03Z</time>
      </trkpt>
      <trkpt lat="43.20683" lon="5.48377">
        <ele>216.43</ele>
        <time>2016-04-21T10:54:19Z</time>
      </trkpt>
      <trkpt lat="43.2069" lon="5.48367">
        <ele>216.91</ele>
        <time>2016-04-21T10:54:29Z</time>
      </trkpt>
      <trkpt lat="43.207" lon="5.48354">
        <ele>218.84</ele>
        <time>2016-04-21T10:54:43Z</time>
      </trkpt>
      <trkpt lat="43.20705" lon="5.48349">
        <ele>219.32</ele>
        <time>2016-04-21T10:54:50Z</time>
      </trkpt>
      <trkpt lat="43.20706" lon="5.48342">
        <ele>219.8</ele>
        <time>2016-04-21T10:55:00Z</time>
      </trkpt>
      <trkpt lat="43.20704" lon="5.48336">
        <ele>220.76</ele>
        <time>2016-04-21T10:55:16Z</time>
      </trkpt>
      <trkpt lat="43.20707" lon="5.48335">
        <ele>220.28</ele>
        <time>2016-04-21T10:55:26Z</time>
      </trkpt>
      <trkpt lat="43.20717" lon="5.48333">
        <ele>218.84</ele>
        <time>2016-04-21T10:55:38Z</time>
      </trkpt>
      <trkpt lat="43.20718" lon="5.4833">
        <ele>219.32</ele>
        <time>2016-04-21T10:55:42Z</time>
      </trkpt>
      <trkpt lat="43.20719" lon="5.4832">
        <ele>221.24</ele>
        <time>2016-04-21T10:55:50Z</time>
      </trkpt>
      <trkpt lat="43.20722" lon="5.48314">
        <ele>221.72</ele>
        <time>2016-04-21T10:55:54Z</time>
      </trkpt>
      <trkpt lat="43.20726" lon="5.483">
        <ele>219.8</ele>
        <time>2016-04-21T10:56:03Z</time>
      </trkpt>
      <trkpt lat="43.2073" lon="5.48285">
        <ele>219.8</ele>
        <time>2016-04-21T10:56:14Z</time>
      </trkpt>
      <trkpt lat="43.2073" lon="5.48284">
        <ele>219.8</ele>
        <time>2016-04-21T10:56:19Z</time>
      </trkpt>
      <trkpt lat="43.20729" lon="5.48288">
        <ele>219.32</ele>
        <time>2016-04-21T10:56:22Z</time>
      </trkpt>
      <trkpt lat="43.20727" lon="5.48298">
        <ele>219.32</ele>
        <time>2016-04-21T10:56:29Z</time>
      </trkpt>
      <trkpt lat="43.20722" lon="5.48311">
        <ele>218.84</ele>
        <time>2016-04-21T10:56:40Z</time>
      </trkpt>
      <trkpt lat="43.20717" lon="5.48325">
        <ele>217.4</ele>
        <time>2016-04-21T10:56:49Z</time>
      </trkpt>
      <trkpt lat="43.20717" lon="5.48333">
        <ele>217.4</ele>
        <time>2016-04-21T10:56:54Z</time>
      </trkpt>
      <trkpt lat="43.20711" lon="5.48339">
        <ele>217.88</ele>
        <time>2016-04-21T10:57:02Z</time>
      </trkpt>
      <trkpt lat="43.20703" lon="5.48351">
        <ele>218.84</ele>
        <time>2016-04-21T10:57:13Z</time>
      </trkpt>
      <trkpt lat="43.20701" lon="5.48352">
        <ele>218.36</ele>
        <time>2016-04-21T10:57:15Z</time>
      </trkpt>
      <trkpt lat="43.20699" lon="5.48354">
        <ele>217.88</ele>
        <time>2016-04-21T10:57:17Z</time>
      </trkpt>
      <trkpt lat="43.20694" lon="5.4836">
        <ele>217.4</ele>
        <time>2016-04-21T10:57:23Z</time>
      </trkpt>
      <trkpt lat="43.20689" lon="5.48365">
        <ele>216.91</ele>
        <time>2016-04-21T10:57:29Z</time>
      </trkpt>
      <trkpt lat="43.20686" lon="5.48372">
        <ele>215.95</ele>
        <time>2016-04-21T10:57:37Z</time>
      </trkpt>
      <trkpt lat="43.20681" lon="5.48377">
        <ele>216.43</ele>
        <time>2016-04-21T10:57:43Z</time>
      </trkpt>
      <trkpt lat="43.20677" lon="5.48374">
        <ele>216.43</ele>
        <time>2016-04-21T10:57:58Z</time>
      </trkpt>
      <trkpt lat="43.20677" lon="5.48375">
        <ele>216.43</ele>
        <time>2016-04-21T10:59:24Z</time>
      </trkpt>
      <trkpt lat="43.20681" lon="5.48376">
        <ele>219.8</ele>
        <time>2016-04-21T11:20:13Z</time>
      </trkpt>
      <trkpt lat="43.20686" lon="5.48372">
        <ele>220.28</ele>
        <time>2016-04-21T11:20:21Z</time>
      </trkpt>
      <trkpt lat="43.20691" lon="5.48364">
        <ele>221.24</ele>
        <time>2016-04-21T11:20:31Z</time>
      </trkpt>
      <trkpt lat="43.20699" lon="5.48355">
        <ele>221.24</ele>
        <time>2016-04-21T11:20:41Z</time>
      </trkpt>
      <trkpt lat="43.20706" lon="5.48344">
        <ele>221.24</ele>
        <time>2016-04-21T11:20:53Z</time>
      </trkpt>
      <trkpt lat="43.20709" lon="5.48341">
        <ele>220.76</ele>
        <time>2016-04-21T11:20:57Z</time>
      </trkpt>
      <trkpt lat="43.20713" lon="5.48338">
        <ele>220.76</ele>
        <time>2016-04-21T11:21:02Z</time>
      </trkpt>
      <trkpt lat="43.20717" lon="5.48334">
        <ele>220.76</ele>
        <time>2016-04-21T11:21:07Z</time>
      </trkpt>
      <trkpt lat="43.2072" lon="5.48317">
        <ele>218.36</ele>
        <time>2016-04-21T11:21:18Z</time>
      </trkpt>
      <trkpt lat="43.20726" lon="5.48304">
        <ele>216.91</ele>
        <time>2016-04-21T11:21:32Z</time>
      </trkpt>
      <trkpt lat="43.20728" lon="5.4829">
        <ele>214.99</ele>
        <time>2016-04-21T11:21:44Z</time>
      </trkpt>
      <trkpt lat="43.20728" lon="5.48288">
        <ele>215.47</ele>
        <time>2016-04-21T11:21:50Z</time>
      </trkpt>
      <trkpt lat="43.20731" lon="5.48282">
        <ele>215.95</ele>
        <time>2016-04-21T11:21:55Z</time>
      </trkpt>
      <trkpt lat="43.20732" lon="5.48267">
        <ele>216.91</ele>
        <time>2016-04-21T11:22:06Z</time>
      </trkpt>
      <trkpt lat="43.2073" lon="5.48258">
        <ele>218.36</ele>
        <time>2016-04-21T11:22:14Z</time>
      </trkpt>
      <trkpt lat="43.20727" lon="5.48243">
        <ele>219.8</ele>
        <time>2016-04-21T11:22:24Z</time>
      </trkpt>
      <trkpt lat="43.20723" lon="5.48231">
        <ele>221.24</ele>
        <time>2016-04-21T11:22:36Z</time>
      </trkpt>
      <trkpt lat="43.2072" lon="5.48216">
        <ele>223.64</ele>
        <time>2016-04-21T11:22:48Z</time>
      </trkpt>
      <trkpt lat="43.20717" lon="5.48203">
        <ele>224.61</ele>
        <time>2016-04-21T11:22:59Z</time>
      </trkpt>
      <trkpt lat="43.20717" lon="5.48203">
        <ele>225.09</ele>
        <time>2016-04-21T11:23:03Z</time>
      </trkpt>
      <trkpt lat="43.20716" lon="5.48183">
        <ele>226.05</ele>
        <time>2016-04-21T11:23:17Z</time>
      </trkpt>
      <trkpt lat="43.20717" lon="5.48167">
        <ele>227.97</ele>
        <time>2016-04-21T11:23:30Z</time>
      </trkpt>
      <trkpt lat="43.20717" lon="5.48165">
        <ele>227.97</ele>
        <time>2016-04-21T11:23:31Z</time>
      </trkpt>
      <trkpt lat="43.20709" lon="5.48143">
        <ele>229.89</ele>
        <time>2016-04-21T11:23:45Z</time>
      </trkpt>
      <trkpt lat="43.20709" lon="5.48142">
        <ele>229.41</ele>
        <time>2016-04-21T11:23:56Z</time>
      </trkpt>
      <trkpt lat="43.20711" lon="5.48148">
        <ele>229.89</ele>
        <time>2016-04-21T11:24:01Z</time>
      </trkpt>
      <trkpt lat="43.20713" lon="5.48151">
        <ele>229.89</ele>
        <time>2016-04-21T11:24:08Z</time>
      </trkpt>
      <trkpt lat="43.20721" lon="5.48164">
        <ele>229.89</ele>
        <time>2016-04-21T11:24:22Z</time>
      </trkpt>
      <trkpt lat="43.2072" lon="5.48163">
        <ele>230.37</ele>
        <time>2016-04-21T11:24:29Z</time>
      </trkpt>
      <trkpt lat="43.20716" lon="5.4815">
        <ele>229.89</ele>
        <time>2016-04-21T11:24:43Z</time>
      </trkpt>
      <trkpt lat="43.20717" lon="5.48144">
        <ele>227.49</ele>
        <time>2016-04-21T11:24:48Z</time>
      </trkpt>
      <trkpt lat="43.20718" lon="5.48127">
        <ele>222.68</ele>
        <time>2016-04-21T11:25:03Z</time>
      </trkpt>
      <trkpt lat="43.20721" lon="5.48111">
        <ele>222.68</ele>
        <time>2016-04-21T11:25:15Z</time>
      </trkpt>
      <trkpt lat="43.20728" lon="5.48103">
        <ele>218.84</ele>
        <time>2016-04-21T11:25:28Z</time>
      </trkpt>
      <trkpt lat="43.20732" lon="5.48099">
        <ele>216.43</ele>
        <time>2016-04-21T11:25:35Z</time>
      </trkpt>
      <trkpt lat="43.20737" lon="5.48097">
        <ele>214.99</ele>
        <time>2016-04-21T11:25:48Z</time>
      </trkpt>
      <trkpt lat="43.20739" lon="5.48096">
        <ele>214.03</ele>
        <time>2016-04-21T11:25:58Z</time>
      </trkpt>
      <trkpt lat="43.20744" lon="5.48096">
        <ele>213.07</ele>
        <time>2016-04-21T11:26:08Z</time>
      </trkpt>
      <trkpt lat="43.20747" lon="5.48091">
        <ele>211.15</ele>
        <time>2016-04-21T11:26:22Z</time>
      </trkpt>
      <trkpt lat="43.20752" lon="5.4809">
        <ele>210.19</ele>
        <time>2016-04-21T11:26:40Z</time>
      </trkpt>
      <trkpt lat="43.20755" lon="5.48087">
        <ele>206.82</ele>
        <time>2016-04-21T11:26:54Z</time>
      </trkpt>
      <trkpt lat="43.20759" lon="5.48077">
        <ele>205.38</ele>
        <time>2016-04-21T11:27:08Z</time>
      </trkpt>
      <trkpt lat="43.20761" lon="5.48076">
        <ele>203.46</ele>
        <time>2016-04-21T11:27:23Z</time>
      </trkpt>
      <trkpt lat="43.20762" lon="5.48074">
        <ele>202.49</ele>
        <time>2016-04-21T11:27:27Z</time>
      </trkpt>
      <trkpt lat="43.20764" lon="5.48066">
        <ele>198.65</ele>
        <time>2016-04-21T11:27:39Z</time>
      </trkpt>
      <trkpt lat="43.20764" lon="5.48066">
        <ele>198.65</ele>
        <time>2016-04-21T11:27:51Z</time>
      </trkpt>
      <trkpt lat="43.20764" lon="5.48066">
        <ele>198.65</ele>
        <time>2016-04-21T11:28:04Z</time>
      </trkpt>
      <trkpt lat="43.20765" lon="5.48059">
        <ele>195.77</ele>
        <time>2016-04-21T11:28:18Z</time>
      </trkpt>
      <trkpt lat="43.20778" lon="5.48051">
        <ele>192.4</ele>
        <time>2016-04-21T11:28:32Z</time>
      </trkpt>
      <trkpt lat="43.20784" lon="5.4805">
        <ele>188.08</ele>
        <time>2016-04-21T11:28:46Z</time>
      </trkpt>
      <trkpt lat="43.20788" lon="5.4803">
        <ele>181.83</ele>
        <time>2016-04-21T11:29:02Z</time>
      </trkpt>
      <trkpt lat="43.20792" lon="5.4803">
        <ele>178.94</ele>
        <time>2016-04-21T11:29:08Z</time>
      </trkpt>
      <trkpt lat="43.20805" lon="5.48037">
        <ele>175.1</ele>
        <time>2016-04-21T11:29:22Z</time>
      </trkpt>
      <trkpt lat="43.20811" lon="5.48041">
        <ele>174.62</ele>
        <time>2016-04-21T11:29:28Z</time>
      </trkpt>
      <trkpt lat="43.20815" lon="5.48054">
        <ele>173.66</ele>
        <time>2016-04-21T11:29:40Z</time>
      </trkpt>
      <trkpt lat="43.20817" lon="5.48065">
        <ele>176.06</ele>
        <time>2016-04-21T11:29:52Z</time>
      </trkpt>
      <trkpt lat="43.20817" lon="5.4807">
        <ele>178.46</ele>
        <time>2016-04-21T11:29:56Z</time>
      </trkpt>
      <trkpt lat="43.20816" lon="5.48081">
        <ele>183.27</ele>
        <time>2016-04-21T11:30:08Z</time>
      </trkpt>
      <trkpt lat="43.20813" lon="5.48093">
        <ele>185.19</ele>
        <time>2016-04-21T11:30:19Z</time>
      </trkpt>
      <trkpt lat="43.20813" lon="5.48094">
        <ele>185.19</ele>
        <time>2016-04-21T11:30:20Z</time>
      </trkpt>
      <trkpt lat="43.20812" lon="5.48102">
        <ele>186.63</ele>
        <time>2016-04-21T11:30:26Z</time>
      </trkpt>
      <trkpt lat="43.20814" lon="5.4811">
        <ele>186.63</ele>
        <time>2016-04-21T11:30:30Z</time>
      </trkpt>
      <trkpt lat="43.2082" lon="5.48113">
        <ele>189.04</ele>
        <time>2016-04-21T11:30:34Z</time>
      </trkpt>
      <trkpt lat="43.20823" lon="5.48115">
        <ele>190.96</ele>
        <time>2016-04-21T11:30:38Z</time>
      </trkpt>
      <trkpt lat="43.20836" lon="5.48128">
        <ele>190.96</ele>
        <time>2016-04-21T11:30:52Z</time>
      </trkpt>
      <trkpt lat="43.20844" lon="5.48139">
        <ele>192.88</ele>
        <time>2016-04-21T11:31:02Z</time>
      </trkpt>
      <trkpt lat="43.20847" lon="5.48141">
        <ele>192.88</ele>
        <time>2016-04-21T11:31:05Z</time>
      </trkpt>
      <trkpt lat="43.20856" lon="5.48147">
        <ele>193.84</ele>
        <time>2016-04-21T11:31:14Z</time>
      </trkpt>
      <trkpt lat="43.2086" lon="5.48149">
        <ele>195.28</ele>
        <time>2016-04-21T11:31:18Z</time>
      </trkpt>
      <trkpt lat="43.20866" lon="5.48158">
        <ele>196.73</ele>
        <time>2016-04-21T11:31:26Z</time>
      </trkpt>
      <trkpt lat="43.20872" lon="5.48168">
        <ele>197.21</ele>
        <time>2016-04-21T11:31:35Z</time>
      </trkpt>
      <trkpt lat="43.2088" lon="5.4818">
        <ele>196.73</ele>
        <time>2016-04-21T11:31:46Z</time>
      </trkpt>
      <trkpt lat="43.2088" lon="5.4818">
        <ele>196.73</ele>
        <time>2016-04-21T11:31:47Z</time>
      </trkpt>
      <trkpt lat="43.20886" lon="5.48191">
        <ele>196.25</ele>
        <time>2016-04-21T11:31:58Z</time>
      </trkpt>
      <trkpt lat="43.20893" lon="5.48201">
        <ele>197.21</ele>
        <time>2016-04-21T11:32:10Z</time>
      </trkpt>
      <trkpt lat="43.20899" lon="5.48215">
        <ele>194.32</ele>
        <time>2016-04-21T11:32:21Z</time>
      </trkpt>
      <trkpt lat="43.20906" lon="5.4823">
        <ele>194.32</ele>
        <time>2016-04-21T11:32:32Z</time>
      </trkpt>
      <trkpt lat="43.20911" lon="5.48236">
        <ele>194.32</ele>
        <time>2016-04-21T11:32:38Z</time>
      </trkpt>
      <trkpt lat="43.2093" lon="5.4824">
        <ele>194.32</ele>
        <time>2016-04-21T11:32:55Z</time>
      </trkpt>
      <trkpt lat="43.20944" lon="5.48223">
        <ele>194.8</ele>
        <time>2016-04-21T11:33:10Z</time>
      </trkpt>
      <trkpt lat="43.20953" lon="5.48205">
        <ele>197.69</ele>
        <time>2016-04-21T11:33:24Z</time>
      </trkpt>
      <trkpt lat="43.20959" lon="5.48187">
        <ele>197.21</ele>
        <time>2016-04-21T11:33:40Z</time>
      </trkpt>
      <trkpt lat="43.20968" lon="5.48171">
        <ele>198.17</ele>
        <time>2016-04-21T11:33:52Z</time>
      </trkpt>
      <trkpt lat="43.20971" lon="5.48157">
        <ele>195.77</ele>
        <time>2016-04-21T11:34:07Z</time>
      </trkpt>
      <trkpt lat="43.20974" lon="5.48133">
        <ele>194.8</ele>
        <time>2016-04-21T11:34:24Z</time>
      </trkpt>
      <trkpt lat="43.20976" lon="5.48111">
        <ele>196.25</ele>
        <time>2016-04-21T11:34:40Z</time>
      </trkpt>
      <trkpt lat="43.20974" lon="5.48097">
        <ele>194.8</ele>
        <time>2016-04-21T11:34:53Z</time>
      </trkpt>
      <trkpt lat="43.20982" lon="5.48091">
        <ele>190.96</ele>
        <time>2016-04-21T11:35:13Z</time>
      </trkpt>
      <trkpt lat="43.2099" lon="5.48115">
        <ele>190.48</ele>
        <time>2016-04-21T11:35:32Z</time>
      </trkpt>
      <trkpt lat="43.20997" lon="5.48134">
        <ele>190.48</ele>
        <time>2016-04-21T11:35:52Z</time>
      </trkpt>
      <trkpt lat="43.21003" lon="5.48159">
        <ele>189.04</ele>
        <time>2016-04-21T11:36:13Z</time>
      </trkpt>
      <trkpt lat="43.21014" lon="5.48178">
        <ele>190.48</ele>
        <time>2016-04-21T11:36:34Z</time>
      </trkpt>
      <trkpt lat="43.21016" lon="5.4819">
        <ele>190</ele>
        <time>2016-04-21T11:36:47Z</time>
      </trkpt>
      <trkpt lat="43.21015" lon="5.48198">
        <ele>208.74</ele>
        <time>2016-04-21T11:36:53Z</time>
      </trkpt>
      <trkpt lat="43.21016" lon="5.48212">
        <ele>214.03</ele>
        <time>2016-04-21T11:37:05Z</time>
      </trkpt>
      <trkpt lat="43.21016" lon="5.48226">
        <ele>215.95</ele>
        <time>2016-04-21T11:37:15Z</time>
      </trkpt>
      <trkpt lat="43.21017" lon="5.48231">
        <ele>215.95</ele>
        <time>2016-04-21T11:37:19Z</time>
      </trkpt>
      <trkpt lat="43.21018" lon="5.48236">
        <ele>215.95</ele>
        <time>2016-04-21T11:37:22Z</time>
      </trkpt>
      <trkpt lat="43.21019" lon="5.48249">
        <ele>215.95</ele>
        <time>2016-04-21T11:37:34Z</time>
      </trkpt>
      <trkpt lat="43.21021" lon="5.48257">
        <ele>216.91</ele>
        <time>2016-04-21T11:37:40Z</time>
      </trkpt>
      <trkpt lat="43.21023" lon="5.48271">
        <ele>217.4</ele>
        <time>2016-04-21T11:37:52Z</time>
      </trkpt>
      <trkpt lat="43.21023" lon="5.48288">
        <ele>216.91</ele>
        <time>2016-04-21T11:38:03Z</time>
      </trkpt>
      <trkpt lat="43.21024" lon="5.483">
        <ele>218.84</ele>
        <time>2016-04-21T11:38:16Z</time>
      </trkpt>
      <trkpt lat="43.21024" lon="5.48315">
        <ele>222.2</ele>
        <time>2016-04-21T11:38:27Z</time>
      </trkpt>
      <trkpt lat="43.21023" lon="5.48328">
        <ele>223.64</ele>
        <time>2016-04-21T11:38:38Z</time>
      </trkpt>
      <trkpt lat="43.21022" lon="5.48342">
        <ele>227.49</ele>
        <time>2016-04-21T11:38:49Z</time>
      </trkpt>
      <trkpt lat="43.21021" lon="5.48354">
        <ele>229.89</ele>
        <time>2016-04-21T11:39:00Z</time>
      </trkpt>
      <trkpt lat="43.21022" lon="5.48368">
        <ele>230.37</ele>
        <time>2016-04-21T11:39:13Z</time>
      </trkpt>
      <trkpt lat="43.21022" lon="5.48379">
        <ele>232.3</ele>
        <time>2016-04-21T11:39:21Z</time>
      </trkpt>
      <trkpt lat="43.21024" lon="5.48384">
        <ele>233.26</ele>
        <time>2016-04-21T11:39:25Z</time>
      </trkpt>
      <trkpt lat="43.2103" lon="5.484">
        <ele>236.14</ele>
        <time>2016-04-21T11:39:38Z</time>
      </trkpt>
      <trkpt lat="43.21034" lon="5.48411">
        <ele>236.14</ele>
        <time>2016-04-21T11:39:50Z</time>
      </trkpt>
      <trkpt lat="43.21041" lon="5.48427">
        <ele>238.54</ele>
        <time>2016-04-21T11:40:01Z</time>
      </trkpt>
      <trkpt lat="43.21041" lon="5.48446">
        <ele>239.02</ele>
        <time>2016-04-21T11:40:13Z</time>
      </trkpt>
      <trkpt lat="43.2104" lon="5.48466">
        <ele>237.1</ele>
        <time>2016-04-21T11:40:26Z</time>
      </trkpt>
      <trkpt lat="43.21037" lon="5.48477">
        <ele>235.18</ele>
        <time>2016-04-21T11:40:34Z</time>
      </trkpt>
      <trkpt lat="43.21033" lon="5.48485">
        <ele>233.26</ele>
        <time>2016-04-21T11:40:41Z</time>
      </trkpt>
      <trkpt lat="43.21032" lon="5.48493">
        <ele>232.3</ele>
        <time>2016-04-21T11:40:45Z</time>
      </trkpt>
      <trkpt lat="43.21025" lon="5.48514">
        <ele>231.81</ele>
        <time>2016-04-21T11:41:00Z</time>
      </trkpt>
      <trkpt lat="43.21024" lon="5.48515">
        <ele>231.33</ele>
        <time>2016-04-21T11:41:01Z</time>
      </trkpt>
      <trkpt lat="43.21022" lon="5.48519">
        <ele>231.33</ele>
        <time>2016-04-21T11:41:04Z</time>
      </trkpt>
      <trkpt lat="43.2102" lon="5.48524">
        <ele>231.81</ele>
        <time>2016-04-21T11:41:07Z</time>
      </trkpt>
      <trkpt lat="43.21019" lon="5.48527">
        <ele>231.33</ele>
        <time>2016-04-21T11:41:09Z</time>
      </trkpt>
      <trkpt lat="43.21008" lon="5.48542">
        <ele>227.49</ele>
        <time>2016-04-21T11:41:23Z</time>
      </trkpt>
      <trkpt lat="43.21003" lon="5.48546">
        <ele>226.05</ele>
        <time>2016-04-21T11:41:30Z</time>
      </trkpt>
      <trkpt lat="43.20994" lon="5.48559">
        <ele>224.12</ele>
        <time>2016-04-21T11:41:42Z</time>
      </trkpt>
      <trkpt lat="43.20985" lon="5.48571">
        <ele>220.76</ele>
        <time>2016-04-21T11:41:54Z</time>
      </trkpt>
      <trkpt lat="43.20981" lon="5.48583">
        <ele>216.91</ele>
        <time>2016-04-21T11:42:05Z</time>
      </trkpt>
      <trkpt lat="43.20976" lon="5.48596">
        <ele>214.99</ele>
        <time>2016-04-21T11:42:15Z</time>
      </trkpt>
      <trkpt lat="43.20972" lon="5.48604">
        <ele>213.55</ele>
        <time>2016-04-21T11:42:20Z</time>
      </trkpt>
      <trkpt lat="43.20973" lon="5.48611">
        <ele>212.11</ele>
        <time>2016-04-21T11:42:26Z</time>
      </trkpt>
      <trkpt lat="43.20972" lon="5.48614">
        <ele>212.11</ele>
        <time>2016-04-21T11:42:28Z</time>
      </trkpt>
      <trkpt lat="43.20972" lon="5.48622">
        <ele>212.11</ele>
        <time>2016-04-21T11:42:34Z</time>
      </trkpt>
      <trkpt lat="43.20967" lon="5.48638">
        <ele>211.63</ele>
        <time>2016-04-21T11:42:47Z</time>
      </trkpt>
      <trkpt lat="43.20964" lon="5.48652">
        <ele>209.22</ele>
        <time>2016-04-21T11:42:56Z</time>
      </trkpt>
      <trkpt lat="43.2096" lon="5.4866">
        <ele>205.86</ele>
        <time>2016-04-21T11:43:03Z</time>
      </trkpt>
      <trkpt lat="43.20961" lon="5.48664">
        <ele>204.42</ele>
        <time>2016-04-21T11:43:06Z</time>
      </trkpt>
      <trkpt lat="43.20958" lon="5.4868">
        <ele>202.01</ele>
        <time>2016-04-21T11:43:17Z</time>
      </trkpt>
      <trkpt lat="43.20956" lon="5.48685">
        <ele>202.01</ele>
        <time>2016-04-21T11:43:21Z</time>
      </trkpt>
      <trkpt lat="43.20956" lon="5.48706">
        <ele>199.61</ele>
        <time>2016-04-21T11:43:37Z</time>
      </trkpt>
      <trkpt lat="43.20956" lon="5.4872">
        <ele>198.17</ele>
        <time>2016-04-21T11:43:48Z</time>
      </trkpt>
      <trkpt lat="43.20957" lon="5.48734">
        <ele>197.21</ele>
        <time>2016-04-21T11:44:00Z</time>
      </trkpt>
      <trkpt lat="43.20955" lon="5.48753">
        <ele>195.77</ele>
        <time>2016-04-21T11:44:16Z</time>
      </trkpt>
      <trkpt lat="43.2095" lon="5.48768">
        <ele>193.36</ele>
        <time>2016-04-21T11:44:31Z</time>
      </trkpt>
      <trkpt lat="43.20952" lon="5.48772">
        <ele>192.88</ele>
        <time>2016-04-21T11:44:36Z</time>
      </trkpt>
      <trkpt lat="43.20949" lon="5.48789">
        <ele>190.48</ele>
        <time>2016-04-21T11:44:50Z</time>
      </trkpt>
      <trkpt lat="43.2095" lon="5.48792">
        <ele>190.48</ele>
        <time>2016-04-21T11:44:52Z</time>
      </trkpt>
      <trkpt lat="43.20948" lon="5.488">
        <ele>187.11</ele>
        <time>2016-04-21T11:45:02Z</time>
      </trkpt>
      <trkpt lat="43.20949" lon="5.4881">
        <ele>185.67</ele>
        <time>2016-04-21T11:45:12Z</time>
      </trkpt>
      <trkpt lat="43.2095" lon="5.48817">
        <ele>184.71</ele>
        <time>2016-04-21T11:45:19Z</time>
      </trkpt>
      <trkpt lat="43.20949" lon="5.48835">
        <ele>180.38</ele>
        <time>2016-04-21T11:45:33Z</time>
      </trkpt>
      <trkpt lat="43.20947" lon="5.48842">
        <ele>179.42</ele>
        <time>2016-04-21T11:45:42Z</time>
      </trkpt>
      <trkpt lat="43.20942" lon="5.48855">
        <ele>177.98</ele>
        <time>2016-04-21T11:45:55Z</time>
      </trkpt>
      <trkpt lat="43.2095" lon="5.48857">
        <ele>175.58</ele>
        <time>2016-04-21T11:46:08Z</time>
      </trkpt>
      <trkpt lat="43.20951" lon="5.48856">
        <ele>175.58</ele>
        <time>2016-04-21T11:46:26Z</time>
      </trkpt>
      <trkpt lat="43.20953" lon="5.48853">
        <ele>174.14</ele>
        <time>2016-04-21T11:47:52Z</time>
      </trkpt>
      <trkpt lat="43.20962" lon="5.48846">
        <ele>169.81</ele>
        <time>2016-04-21T11:48:05Z</time>
      </trkpt>
      <trkpt lat="43.20971" lon="5.4884">
        <ele>165</ele>
        <time>2016-04-21T11:48:19Z</time>
      </trkpt>
      <trkpt lat="43.2098" lon="5.4883">
        <ele>160.2</ele>
        <time>2016-04-21T11:48:31Z</time>
      </trkpt>
      <trkpt lat="43.20987" lon="5.48825">
        <ele>156.35</ele>
        <time>2016-04-21T11:48:44Z</time>
      </trkpt>
      <trkpt lat="43.20993" lon="5.48814">
        <ele>152.51</ele>
        <time>2016-04-21T11:48:59Z</time>
      </trkpt>
      <trkpt lat="43.20999" lon="5.48802">
        <ele>149.62</ele>
        <time>2016-04-21T11:49:12Z</time>
      </trkpt>
      <trkpt lat="43.21007" lon="5.48793">
        <ele>146.26</ele>
        <time>2016-04-21T11:49:26Z</time>
      </trkpt>
      <trkpt lat="43.21017" lon="5.48782">
        <ele>145.78</ele>
        <time>2016-04-21T11:49:40Z</time>
      </trkpt>
      <trkpt lat="43.21019" lon="5.4878">
        <ele>145.3</ele>
        <time>2016-04-21T11:49:42Z</time>
      </trkpt>
      <trkpt lat="43.21025" lon="5.48776">
        <ele>142.89</ele>
        <time>2016-04-21T11:49:50Z</time>
      </trkpt>
      <trkpt lat="43.21033" lon="5.48769">
        <ele>135.2</ele>
        <time>2016-04-21T11:50:04Z</time>
      </trkpt>
      <trkpt lat="43.21033" lon="5.48769">
        <ele>135.2</ele>
        <time>2016-04-21T11:50:08Z</time>
      </trkpt>
      <trkpt lat="43.21044" lon="5.48765">
        <ele>129.92</ele>
        <time>2016-04-21T11:50:17Z</time>
      </trkpt>
      <trkpt lat="43.21053" lon="5.48768">
        <ele>127.51</ele>
        <time>2016-04-21T11:50:22Z</time>
      </trkpt>
      <trkpt lat="43.2106" lon="5.48768">
        <ele>123.67</ele>
        <time>2016-04-21T11:50:30Z</time>
      </trkpt>
      <trkpt lat="43.21072" lon="5.48773">
        <ele>117.9</ele>
        <time>2016-04-21T11:50:42Z</time>
      </trkpt>
      <trkpt lat="43.21077" lon="5.48773">
        <ele>115.5</ele>
        <time>2016-04-21T11:50:46Z</time>
      </trkpt>
      <trkpt lat="43.2108" lon="5.48776">
        <ele>113.57</ele>
        <time>2016-04-21T11:50:50Z</time>
      </trkpt>
      <trkpt lat="43.21084" lon="5.48781">
        <ele>112.61</ele>
        <time>2016-04-21T11:50:54Z</time>
      </trkpt>
      <trkpt lat="43.21096" lon="5.48783">
        <ele>125.59</ele>
        <time>2016-04-21T11:51:07Z</time>
      </trkpt>
      <trkpt lat="43.21107" lon="5.48789">
        <ele>127.03</ele>
        <time>2016-04-21T11:51:20Z</time>
      </trkpt>
      <trkpt lat="43.21108" lon="5.48789">
        <ele>127.51</ele>
        <time>2016-04-21T11:51:52Z</time>
      </trkpt>
      <trkpt lat="43.21106" lon="5.48794">
        <ele>127.99</ele>
        <time>2016-04-21T11:52:00Z</time>
      </trkpt>
      <trkpt lat="43.21105" lon="5.48798">
        <ele>129.43</ele>
        <time>2016-04-21T11:52:17Z</time>
      </trkpt>
      <trkpt lat="43.21099" lon="5.48801">
        <ele>129.92</ele>
        <time>2016-04-21T11:52:41Z</time>
      </trkpt>
      <trkpt lat="43.21093" lon="5.48805">
        <ele>130.88</ele>
        <time>2016-04-21T11:52:47Z</time>
      </trkpt>
      <trkpt lat="43.21085" lon="5.4881">
        <ele>131.84</ele>
        <time>2016-04-21T11:52:54Z</time>
      </trkpt>
      <trkpt lat="43.21082" lon="5.48817">
        <ele>132.8</ele>
        <time>2016-04-21T11:53:00Z</time>
      </trkpt>
      <trkpt lat="43.21073" lon="5.48828">
        <ele>133.28</ele>
        <time>2016-04-21T11:53:11Z</time>
      </trkpt>
      <trkpt lat="43.2107" lon="5.48831">
        <ele>133.76</ele>
        <time>2016-04-21T11:53:15Z</time>
      </trkpt>
      <trkpt lat="43.21062" lon="5.48838">
        <ele>136.16</ele>
        <time>2016-04-21T11:53:25Z</time>
      </trkpt>
      <trkpt lat="43.21059" lon="5.48838">
        <ele>136.64</ele>
        <time>2016-04-21T11:53:29Z</time>
      </trkpt>
      <trkpt lat="43.21052" lon="5.48849">
        <ele>136.16</ele>
        <time>2016-04-21T11:53:42Z</time>
      </trkpt>
      <trkpt lat="43.21051" lon="5.48852">
        <ele>136.16</ele>
        <time>2016-04-21T11:53:45Z</time>
      </trkpt>
      <trkpt lat="43.2105" lon="5.48857">
        <ele>137.13</ele>
        <time>2016-04-21T11:53:51Z</time>
      </trkpt>
      <trkpt lat="43.21048" lon="5.48859">
        <ele>137.61</ele>
        <time>2016-04-21T11:53:53Z</time>
      </trkpt>
      <trkpt lat="43.21047" lon="5.48869">
        <ele>137.61</ele>
        <time>2016-04-21T11:54:02Z</time>
      </trkpt>
      <trkpt lat="43.21048" lon="5.48874">
        <ele>137.13</ele>
        <time>2016-04-21T11:54:09Z</time>
      </trkpt>
      <trkpt lat="43.21057" lon="5.48885">
        <ele>140.01</ele>
        <time>2016-04-21T11:54:20Z</time>
      </trkpt>
      <trkpt lat="43.21063" lon="5.48888">
        <ele>141.93</ele>
        <time>2016-04-21T11:54:32Z</time>
      </trkpt>
      <trkpt lat="43.21071" lon="5.48893">
        <ele>144.82</ele>
        <time>2016-04-21T11:54:48Z</time>
      </trkpt>
      <trkpt lat="43.21071" lon="5.48893">
        <ele>144.82</ele>
        <time>2016-04-21T11:54:50Z</time>
      </trkpt>
      <trkpt lat="43.21072" lon="5.48896">
        <ele>145.3</ele>
        <time>2016-04-21T11:54:52Z</time>
      </trkpt>
      <trkpt lat="43.21072" lon="5.48901">
        <ele>147.22</ele>
        <time>2016-04-21T11:54:58Z</time>
      </trkpt>
      <trkpt lat="43.21073" lon="5.48909">
        <ele>149.62</ele>
        <time>2016-04-21T11:55:05Z</time>
      </trkpt>
      <trkpt lat="43.21072" lon="5.48916">
        <ele>151.06</ele>
        <time>2016-04-21T11:55:10Z</time>
      </trkpt>
      <trkpt lat="43.21072" lon="5.48928">
        <ele>152.99</ele>
        <time>2016-04-21T11:55:20Z</time>
      </trkpt>
      <trkpt lat="43.21072" lon="5.48937">
        <ele>153.95</ele>
        <time>2016-04-21T11:55:26Z</time>
      </trkpt>
      <trkpt lat="43.21071" lon="5.48945">
        <ele>154.43</ele>
        <time>2016-04-21T11:55:31Z</time>
      </trkpt>
      <trkpt lat="43.21063" lon="5.48965">
        <ele>156.83</ele>
        <time>2016-04-21T11:55:44Z</time>
      </trkpt>
      <trkpt lat="43.21058" lon="5.48976">
        <ele>159.24</ele>
        <time>2016-04-21T11:55:53Z</time>
      </trkpt>
      <trkpt lat="43.21052" lon="5.4899">
        <ele>160.68</ele>
        <time>2016-04-21T11:56:05Z</time>
      </trkpt>
      <trkpt lat="43.21051" lon="5.48991">
        <ele>160.68</ele>
        <time>2016-04-21T11:56:06Z</time>
      </trkpt>
      <trkpt lat="43.21048" lon="5.49">
        <ele>161.64</ele>
        <time>2016-04-21T11:56:14Z</time>
      </trkpt>
      <trkpt lat="43.2104" lon="5.49011">
        <ele>162.6</ele>
        <time>2016-04-21T11:56:25Z</time>
      </trkpt>
      <trkpt lat="43.21031" lon="5.49018">
        <ele>165</ele>
        <time>2016-04-21T11:56:35Z</time>
      </trkpt>
      <trkpt lat="43.21029" lon="5.49021">
        <ele>165.48</ele>
        <time>2016-04-21T11:56:38Z</time>
      </trkpt>
      <trkpt lat="43.21026" lon="5.49027">
        <ele>166.45</ele>
        <time>2016-04-21T11:56:44Z</time>
      </trkpt>
      <trkpt lat="43.21023" lon="5.4904">
        <ele>166.93</ele>
        <time>2016-04-21T11:56:55Z</time>
      </trkpt>
      <trkpt lat="43.21022" lon="5.49054">
        <ele>168.85</ele>
        <time>2016-04-21T11:57:05Z</time>
      </trkpt>
      <trkpt lat="43.2102" lon="5.49069">
        <ele>171.25</ele>
        <time>2016-04-21T11:57:15Z</time>
      </trkpt>
      <trkpt lat="43.21019" lon="5.49074">
        <ele>172.69</ele>
        <time>2016-04-21T11:57:19Z</time>
      </trkpt>
      <trkpt lat="43.21016" lon="5.4909">
        <ele>172.69</ele>
        <time>2016-04-21T11:57:31Z</time>
      </trkpt>
      <trkpt lat="43.2101" lon="5.49103">
        <ele>174.62</ele>
        <time>2016-04-21T11:57:43Z</time>
      </trkpt>
      <trkpt lat="43.21008" lon="5.49111">
        <ele>174.62</ele>
        <time>2016-04-21T11:57:50Z</time>
      </trkpt>
      <trkpt lat="43.21006" lon="5.49117">
        <ele>175.1</ele>
        <time>2016-04-21T11:57:54Z</time>
      </trkpt>
      <trkpt lat="43.21007" lon="5.4913">
        <ele>175.58</ele>
        <time>2016-04-21T11:58:04Z</time>
      </trkpt>
      <trkpt lat="43.21012" lon="5.49133">
        <ele>175.58</ele>
        <time>2016-04-21T11:58:10Z</time>
      </trkpt>
      <trkpt lat="43.21022" lon="5.4913">
        <ele>175.58</ele>
        <time>2016-04-21T11:58:22Z</time>
      </trkpt>
      <trkpt lat="43.21035" lon="5.49124">
        <ele>173.17</ele>
        <time>2016-04-21T11:58:35Z</time>
      </trkpt>
      <trkpt lat="43.21042" lon="5.49119">
        <ele>170.29</ele>
        <time>2016-04-21T11:58:47Z</time>
      </trkpt>
      <trkpt lat="43.21042" lon="5.49117">
        <ele>170.29</ele>
        <time>2016-04-21T11:59:02Z</time>
      </trkpt>
      <trkpt lat="43.2105" lon="5.49115">
        <ele>168.85</ele>
        <time>2016-04-21T11:59:24Z</time>
      </trkpt>
      <trkpt lat="43.21059" lon="5.49114">
        <ele>168.37</ele>
        <time>2016-04-21T11:59:38Z</time>
      </trkpt>
      <trkpt lat="43.2107" lon="5.4911">
        <ele>166.93</ele>
        <time>2016-04-21T11:59:58Z</time>
      </trkpt>
      <trkpt lat="43.21087" lon="5.49109">
        <ele>166.45</ele>
        <time>2016-04-21T12:00:14Z</time>
      </trkpt>
      <trkpt lat="43.21107" lon="5.49108">
        <ele>165</ele>
        <time>2016-04-21T12:00:29Z</time>
      </trkpt>
      <trkpt lat="43.21119" lon="5.49107">
        <ele>164.04</ele>
        <time>2016-04-21T12:00:41Z</time>
      </trkpt>
      <trkpt lat="43.21134" lon="5.49104">
        <ele>160.68</ele>
        <time>2016-04-21T12:00:56Z</time>
      </trkpt>
      <trkpt lat="43.21136" lon="5.4911">
        <ele>159.24</ele>
        <time>2016-04-21T12:01:02Z</time>
      </trkpt>
      <trkpt lat="43.21132" lon="5.49122">
        <ele>157.31</ele>
        <time>2016-04-21T12:01:14Z</time>
      </trkpt>
      <trkpt lat="43.21123" lon="5.49136">
        <ele>157.79</ele>
        <time>2016-04-21T12:01:27Z</time>
      </trkpt>
      <trkpt lat="43.21116" lon="5.49146">
        <ele>154.91</ele>
        <time>2016-04-21T12:01:38Z</time>
      </trkpt>
      <trkpt lat="43.21105" lon="5.49161">
        <ele>149.14</ele>
        <time>2016-04-21T12:01:55Z</time>
      </trkpt>
      <trkpt lat="43.21087" lon="5.49179">
        <ele>142.89</ele>
        <time>2016-04-21T12:02:12Z</time>
      </trkpt>
      <trkpt lat="43.21075" lon="5.49195">
        <ele>139.05</ele>
        <time>2016-04-21T12:02:29Z</time>
      </trkpt>
      <trkpt lat="43.21065" lon="5.49209">
        <ele>133.28</ele>
        <time>2016-04-21T12:02:45Z</time>
      </trkpt>
      <trkpt lat="43.21065" lon="5.4923">
        <ele>127.99</ele>
        <time>2016-04-21T12:03:02Z</time>
      </trkpt>
      <trkpt lat="43.2107" lon="5.49254">
        <ele>126.55</ele>
        <time>2016-04-21T12:03:18Z</time>
      </trkpt>
      <trkpt lat="43.21074" lon="5.49269">
        <ele>124.63</ele>
        <time>2016-04-21T12:03:31Z</time>
      </trkpt>
      <trkpt lat="43.2108" lon="5.49291">
        <ele>123.19</ele>
        <time>2016-04-21T12:03:46Z</time>
      </trkpt>
      <trkpt lat="43.21084" lon="5.49314">
        <ele>121.26</ele>
        <time>2016-04-21T12:04:03Z</time>
      </trkpt>
      <trkpt lat="43.21084" lon="5.49316">
        <ele>120.78</ele>
        <time>2016-04-21T12:04:04Z</time>
      </trkpt>
      <trkpt lat="43.2109" lon="5.49341">
        <ele>122.22</ele>
        <time>2016-04-21T12:04:21Z</time>
      </trkpt>
      <trkpt lat="43.21096" lon="5.49363">
        <ele>120.3</ele>
        <time>2016-04-21T12:04:37Z</time>
      </trkpt>
      <trkpt lat="43.21107" lon="5.49387">
        <ele>116.46</ele>
        <time>2016-04-21T12:04:56Z</time>
      </trkpt>
      <trkpt lat="43.21116" lon="5.49406">
        <ele>110.69</ele>
        <time>2016-04-21T12:05:15Z</time>
      </trkpt>
      <trkpt lat="43.2112" lon="5.49437">
        <ele>106.36</ele>
        <time>2016-04-21T12:05:36Z</time>
      </trkpt>
      <trkpt lat="43.21119" lon="5.4944">
        <ele>106.84</ele>
        <time>2016-04-21T12:05:38Z</time>
      </trkpt>
      <trkpt lat="43.21121" lon="5.49456">
        <ele>107.81</ele>
        <time>2016-04-21T12:05:50Z</time>
      </trkpt>
      <trkpt lat="43.21123" lon="5.49468">
        <ele>103.48</ele>
        <time>2016-04-21T12:06:04Z</time>
      </trkpt>
      <trkpt lat="43.21119" lon="5.49489">
        <ele>95.31</ele>
        <time>2016-04-21T12:06:22Z</time>
      </trkpt>
      <trkpt lat="43.21116" lon="5.49504">
        <ele>96.27</ele>
        <time>2016-04-21T12:06:34Z</time>
      </trkpt>
      <trkpt lat="43.21113" lon="5.4952">
        <ele>97.71</ele>
        <time>2016-04-21T12:06:47Z</time>
      </trkpt>
      <trkpt lat="43.21115" lon="5.49539">
        <ele>93.87</ele>
        <time>2016-04-21T12:07:01Z</time>
      </trkpt>
      <trkpt lat="43.21123" lon="5.49554">
        <ele>92.9</ele>
        <time>2016-04-21T12:07:16Z</time>
      </trkpt>
      <trkpt lat="43.21135" lon="5.49567">
        <ele>86.18</ele>
        <time>2016-04-21T12:07:33Z</time>
      </trkpt>
      <trkpt lat="43.21135" lon="5.49584">
        <ele>80.89</ele>
        <time>2016-04-21T12:07:50Z</time>
      </trkpt>
      <trkpt lat="43.2113" lon="5.49606">
        <ele>77.04</ele>
        <time>2016-04-21T12:08:08Z</time>
      </trkpt>
      <trkpt lat="43.21129" lon="5.49624">
        <ele>75.12</ele>
        <time>2016-04-21T12:08:22Z</time>
      </trkpt>
      <trkpt lat="43.21132" lon="5.49636">
        <ele>74.16</ele>
        <time>2016-04-21T12:08:37Z</time>
      </trkpt>
      <trkpt lat="43.21145" lon="5.49652">
        <ele>77.52</ele>
        <time>2016-04-21T12:08:50Z</time>
      </trkpt>
      <trkpt lat="43.21156" lon="5.49661">
        <ele>74.16</ele>
        <time>2016-04-21T12:09:03Z</time>
      </trkpt>
      <trkpt lat="43.21164" lon="5.49667">
        <ele>73.68</ele>
        <time>2016-04-21T12:09:16Z</time>
      </trkpt>
      <trkpt lat="43.21167" lon="5.49673">
        <ele>73.68</ele>
        <time>2016-04-21T12:09:29Z</time>
      </trkpt>
      <trkpt lat="43.21166" lon="5.49674">
        <ele>73.68</ele>
        <time>2016-04-21T12:09:41Z</time>
      </trkpt>
      <trkpt lat="43.21156" lon="5.49681">
        <ele>74.64</ele>
        <time>2016-04-21T12:09:51Z</time>
      </trkpt>
      <trkpt lat="43.21149" lon="5.49685">
        <ele>75.12</ele>
        <time>2016-04-21T12:09:57Z</time>
      </trkpt>
      <trkpt lat="43.21143" lon="5.49703">
        <ele>77.52</ele>
        <time>2016-04-21T12:10:09Z</time>
      </trkpt>
      <trkpt lat="43.2114" lon="5.49709">
        <ele>78.48</ele>
        <time>2016-04-21T12:10:24Z</time>
      </trkpt>
      <trkpt lat="43.21138" lon="5.49715">
        <ele>81.85</ele>
        <time>2016-04-21T12:10:57Z</time>
      </trkpt>
      <trkpt lat="43.21147" lon="5.4972">
        <ele>83.29</ele>
        <time>2016-04-21T12:11:11Z</time>
      </trkpt>
      <trkpt lat="43.2116" lon="5.4973">
        <ele>82.33</ele>
        <time>2016-04-21T12:11:26Z</time>
      </trkpt>
      <trkpt lat="43.21174" lon="5.49741">
        <ele>80.89</ele>
        <time>2016-04-21T12:11:43Z</time>
      </trkpt>
      <trkpt lat="43.21175" lon="5.49749">
        <ele>81.85</ele>
        <time>2016-04-21T12:11:58Z</time>
      </trkpt>
      <trkpt lat="43.21165" lon="5.49762">
        <ele>81.37</ele>
        <time>2016-04-21T12:12:10Z</time>
      </trkpt>
      <trkpt lat="43.21159" lon="5.49773">
        <ele>80.41</ele>
        <time>2016-04-21T12:12:24Z</time>
      </trkpt>
      <trkpt lat="43.21149" lon="5.49779">
        <ele>80.89</ele>
        <time>2016-04-21T12:12:37Z</time>
      </trkpt>
      <trkpt lat="43.21139" lon="5.49788">
        <ele>80.89</ele>
        <time>2016-04-21T12:12:54Z</time>
      </trkpt>
      <trkpt lat="43.21139" lon="5.4981">
        <ele>80.89</ele>
        <time>2016-04-21T12:13:08Z</time>
      </trkpt>
      <trkpt lat="43.21139" lon="5.49816">
        <ele>80.89</ele>
        <time>2016-04-21T12:13:13Z</time>
      </trkpt>
      <trkpt lat="43.21143" lon="5.49831">
        <ele>81.37</ele>
        <time>2016-04-21T12:13:26Z</time>
      </trkpt>
      <trkpt lat="43.21144" lon="5.4984">
        <ele>78.48</ele>
        <time>2016-04-21T12:13:39Z</time>
      </trkpt>
      <trkpt lat="43.21143" lon="5.49841">
        <ele>78</ele>
        <time>2016-04-21T12:14:01Z</time>
      </trkpt>
      <trkpt lat="43.21147" lon="5.49849">
        <ele>77.52</ele>
        <time>2016-04-21T12:14:17Z</time>
      </trkpt>
      <trkpt lat="43.21159" lon="5.49857">
        <ele>78.97</ele>
        <time>2016-04-21T12:14:37Z</time>
      </trkpt>
      <trkpt lat="43.21172" lon="5.49858">
        <ele>79.45</ele>
        <time>2016-04-21T12:14:57Z</time>
      </trkpt>
      <trkpt lat="43.21178" lon="5.49863">
        <ele>79.93</ele>
        <time>2016-04-21T12:15:04Z</time>
      </trkpt>
      <trkpt lat="43.21185" lon="5.49869">
        <ele>79.93</ele>
        <time>2016-04-21T12:15:13Z</time>
      </trkpt>
      <trkpt lat="43.21191" lon="5.49873">
        <ele>77.52</ele>
        <time>2016-04-21T12:15:21Z</time>
      </trkpt>
      <trkpt lat="43.21193" lon="5.49885">
        <ele>76.08</ele>
        <time>2016-04-21T12:15:34Z</time>
      </trkpt>
      <trkpt lat="43.21198" lon="5.49907">
        <ele>78</ele>
        <time>2016-04-21T12:15:47Z</time>
      </trkpt>
      <trkpt lat="43.21205" lon="5.4992">
        <ele>78.97</ele>
        <time>2016-04-21T12:16:02Z</time>
      </trkpt>
      <trkpt lat="43.21211" lon="5.49928">
        <ele>78.97</ele>
        <time>2016-04-21T12:16:17Z</time>
      </trkpt>
      <trkpt lat="43.21214" lon="5.49934">
        <ele>78</ele>
        <time>2016-04-21T12:16:28Z</time>
      </trkpt>
      <trkpt lat="43.2122" lon="5.49944">
        <ele>76.08</ele>
        <time>2016-04-21T12:16:40Z</time>
      </trkpt>
      <trkpt lat="43.21223" lon="5.49956">
        <ele>73.68</ele>
        <time>2016-04-21T12:16:51Z</time>
      </trkpt>
      <trkpt lat="43.21232" lon="5.49972">
        <ele>69.83</ele>
        <time>2016-04-21T12:17:04Z</time>
      </trkpt>
      <trkpt lat="43.21234" lon="5.49977">
        <ele>65.99</ele>
        <time>2016-04-21T12:17:21Z</time>
      </trkpt>
      <trkpt lat="43.21256" lon="5.50002">
        <ele>64.07</ele>
        <time>2016-04-21T12:17:38Z</time>
      </trkpt>
      <trkpt lat="43.21269" lon="5.49994">
        <ele>62.14</ele>
        <time>2016-04-21T12:17:53Z</time>
      </trkpt>
      <trkpt lat="43.21277" lon="5.49995">
        <ele>60.7</ele>
        <time>2016-04-21T12:18:13Z</time>
      </trkpt>
      <trkpt lat="43.21295" lon="5.5003">
        <ele>61.18</ele>
        <time>2016-04-21T12:18:29Z</time>
      </trkpt>
      <trkpt lat="43.21304" lon="5.50038">
        <ele>62.14</ele>
        <time>2016-04-21T12:18:45Z</time>
      </trkpt>
      <trkpt lat="43.21309" lon="5.50043">
        <ele>62.62</ele>
        <time>2016-04-21T12:19:00Z</time>
      </trkpt>
      <trkpt lat="43.2133" lon="5.50064">
        <ele>69.35</ele>
        <time>2016-04-21T12:19:17Z</time>
      </trkpt>
      <trkpt lat="43.21338" lon="5.50062">
        <ele>69.83</ele>
        <time>2016-04-21T12:19:30Z</time>
      </trkpt>
      <trkpt lat="43.21352" lon="5.5001">
        <ele>89.06</ele>
        <time>2016-04-21T12:19:43Z</time>
      </trkpt>
      <trkpt lat="43.21356" lon="5.50001">
        <ele>90.98</ele>
        <time>2016-04-21T12:19:55Z</time>
      </trkpt>
      <trkpt lat="43.21362" lon="5.49993">
        <ele>90.98</ele>
        <time>2016-04-21T12:20:10Z</time>
      </trkpt>
      <trkpt lat="43.2137" lon="5.49981">
        <ele>90.02</ele>
        <time>2016-04-21T12:20:25Z</time>
      </trkpt>
      <trkpt lat="43.21386" lon="5.49979">
        <ele>89.06</ele>
        <time>2016-04-21T12:20:40Z</time>
      </trkpt>
      <trkpt lat="43.21402" lon="5.49988">
        <ele>91.46</ele>
        <time>2016-04-21T12:20:52Z</time>
      </trkpt>
      <trkpt lat="43.2141" lon="5.50001">
        <ele>89.06</ele>
        <time>2016-04-21T12:21:06Z</time>
      </trkpt>
      <trkpt lat="43.21411" lon="5.50008">
        <ele>88.1</ele>
        <time>2016-04-21T12:21:19Z</time>
      </trkpt>
      <trkpt lat="43.2141" lon="5.50026">
        <ele>89.06</ele>
        <time>2016-04-21T12:21:32Z</time>
      </trkpt>
      <trkpt lat="43.21408" lon="5.5004">
        <ele>90.5</ele>
        <time>2016-04-21T12:21:44Z</time>
      </trkpt>
      <trkpt lat="43.21406" lon="5.50053">
        <ele>90.5</ele>
        <time>2016-04-21T12:21:58Z</time>
      </trkpt>
      <trkpt lat="43.214" lon="5.5007">
        <ele>92.42</ele>
        <time>2016-04-21T12:22:12Z</time>
      </trkpt>
      <trkpt lat="43.21394" lon="5.50079">
        <ele>93.39</ele>
        <time>2016-04-21T12:22:24Z</time>
      </trkpt>
      <trkpt lat="43.21392" lon="5.5008">
        <ele>94.35</ele>
        <time>2016-04-21T12:22:26Z</time>
      </trkpt>
      <trkpt lat="43.21385" lon="5.50092">
        <ele>98.67</ele>
        <time>2016-04-21T12:22:33Z</time>
      </trkpt>
      <trkpt lat="43.21379" lon="5.50104">
        <ele>103.48</ele>
        <time>2016-04-21T12:22:44Z</time>
      </trkpt>
      <trkpt lat="43.21382" lon="5.50112">
        <ele>103.48</ele>
        <time>2016-04-21T12:22:52Z</time>
      </trkpt>
      <trkpt lat="43.21387" lon="5.50123">
        <ele>104.44</ele>
        <time>2016-04-21T12:23:02Z</time>
      </trkpt>
      <trkpt lat="43.21392" lon="5.5013">
        <ele>104.44</ele>
        <time>2016-04-21T12:23:12Z</time>
      </trkpt>
      <trkpt lat="43.21393" lon="5.50132">
        <ele>104.44</ele>
        <time>2016-04-21T12:23:14Z</time>
      </trkpt>
      <trkpt lat="43.214" lon="5.5014">
        <ele>101.08</ele>
        <time>2016-04-21T12:23:24Z</time>
      </trkpt>
      <trkpt lat="43.21401" lon="5.50143">
        <ele>101.56</ele>
        <time>2016-04-21T12:23:28Z</time>
      </trkpt>
      <trkpt lat="43.21405" lon="5.50153">
        <ele>102.04</ele>
        <time>2016-04-21T12:23:43Z</time>
      </trkpt>
      <trkpt lat="43.21405" lon="5.50153">
        <ele>102.04</ele>
        <time>2016-04-21T12:25:42Z</time>
      </trkpt>
      <trkpt lat="43.21405" lon="5.50153">
        <ele>101.56</ele>
        <time>2016-04-21T12:27:54Z</time>
      </trkpt>
      <trkpt lat="43.21404" lon="5.50153">
        <ele>102.04</ele>
        <time>2016-04-21T12:29:10Z</time>
      </trkpt>
      <trkpt lat="43.21401" lon="5.5016">
        <ele>102.52</ele>
        <time>2016-04-21T12:29:41Z</time>
      </trkpt>
      <trkpt lat="43.21408" lon="5.50163">
        <ele>105.88</ele>
        <time>2016-04-21T12:29:54Z</time>
      </trkpt>
      <trkpt lat="43.2142" lon="5.50167">
        <ele>102.04</ele>
        <time>2016-04-21T12:30:05Z</time>
      </trkpt>
      <trkpt lat="43.2143" lon="5.50172">
        <ele>99.15</ele>
        <time>2016-04-21T12:30:18Z</time>
      </trkpt>
      <trkpt lat="43.21442" lon="5.50167">
        <ele>95.79</ele>
        <time>2016-04-21T12:30:32Z</time>
      </trkpt>
      <trkpt lat="43.2146" lon="5.50155">
        <ele>95.79</ele>
        <time>2016-04-21T12:30:49Z</time>
      </trkpt>
      <trkpt lat="43.21462" lon="5.50153">
        <ele>95.79</ele>
        <time>2016-04-21T12:30:51Z</time>
      </trkpt>
      <trkpt lat="43.21479" lon="5.50131">
        <ele>96.27</ele>
        <time>2016-04-21T12:31:08Z</time>
      </trkpt>
      <trkpt lat="43.21489" lon="5.50128">
        <ele>96.75</ele>
        <time>2016-04-21T12:31:26Z</time>
      </trkpt>
      <trkpt lat="43.21497" lon="5.5014">
        <ele>103</ele>
        <time>2016-04-21T12:31:36Z</time>
      </trkpt>
      <trkpt lat="43.215" lon="5.50153">
        <ele>105.4</ele>
        <time>2016-04-21T12:31:48Z</time>
      </trkpt>
      <trkpt lat="43.21502" lon="5.50157">
        <ele>104.92</ele>
        <time>2016-04-21T12:31:53Z</time>
      </trkpt>
      <trkpt lat="43.21505" lon="5.50168">
        <ele>104.92</ele>
        <time>2016-04-21T12:32:03Z</time>
      </trkpt>
      <trkpt lat="43.21508" lon="5.50181">
        <ele>103</ele>
        <time>2016-04-21T12:32:13Z</time>
      </trkpt>
      <trkpt lat="43.21518" lon="5.50195">
        <ele>102.04</ele>
        <time>2016-04-21T12:32:29Z</time>
      </trkpt>
      <trkpt lat="43.21522" lon="5.50194">
        <ele>102.04</ele>
        <time>2016-04-21T12:32:35Z</time>
      </trkpt>
      <trkpt lat="43.21529" lon="5.50189">
        <ele>102.04</ele>
        <time>2016-04-21T12:32:41Z</time>
      </trkpt>
      <trkpt lat="43.21543" lon="5.50174">
        <ele>103.96</ele>
        <time>2016-04-21T12:32:55Z</time>
      </trkpt>
      <trkpt lat="43.21552" lon="5.50171">
        <ele>106.84</ele>
        <time>2016-04-21T12:33:14Z</time>
      </trkpt>
      <trkpt lat="43.21557" lon="5.50169">
        <ele>108.29</ele>
        <time>2016-04-21T12:33:19Z</time>
      </trkpt>
      <trkpt lat="43.21567" lon="5.50171">
        <ele>109.25</ele>
        <time>2016-04-21T12:33:32Z</time>
      </trkpt>
      <trkpt lat="43.21577" lon="5.50177">
        <ele>110.21</ele>
        <time>2016-04-21T12:33:45Z</time>
      </trkpt>
      <trkpt lat="43.21588" lon="5.50175">
        <ele>109.73</ele>
        <time>2016-04-21T12:33:55Z</time>
      </trkpt>
      <trkpt lat="43.21589" lon="5.50175">
        <ele>110.21</ele>
        <time>2016-04-21T12:33:57Z</time>
      </trkpt>
      <trkpt lat="43.21599" lon="5.50182">
        <ele>108.29</ele>
        <time>2016-04-21T12:34:11Z</time>
      </trkpt>
      <trkpt lat="43.216" lon="5.50186">
        <ele>108.29</ele>
        <time>2016-04-21T12:34:14Z</time>
      </trkpt>
      <trkpt lat="43.21604" lon="5.5019">
        <ele>109.73</ele>
        <time>2016-04-21T12:34:20Z</time>
      </trkpt>
      <trkpt lat="43.21603" lon="5.50207">
        <ele>109.25</ele>
        <time>2016-04-21T12:34:31Z</time>
      </trkpt>
      <trkpt lat="43.21601" lon="5.50213">
        <ele>109.25</ele>
        <time>2016-04-21T12:34:35Z</time>
      </trkpt>
      <trkpt lat="43.21599" lon="5.50225">
        <ele>109.25</ele>
        <time>2016-04-21T12:34:45Z</time>
      </trkpt>
      <trkpt lat="43.21597" lon="5.50246">
        <ele>110.69</ele>
        <time>2016-04-21T12:35:00Z</time>
      </trkpt>
      <trkpt lat="43.21597" lon="5.50264">
        <ele>109.73</ele>
        <time>2016-04-21T12:35:14Z</time>
      </trkpt>
      <trkpt lat="43.21596" lon="5.50275">
        <ele>111.17</ele>
        <time>2016-04-21T12:35:26Z</time>
      </trkpt>
      <trkpt lat="43.21593" lon="5.50282">
        <ele>112.61</ele>
        <time>2016-04-21T12:35:30Z</time>
      </trkpt>
      <trkpt lat="43.21577" lon="5.50298">
        <ele>117.9</ele>
        <time>2016-04-21T12:35:46Z</time>
      </trkpt>
      <trkpt lat="43.21574" lon="5.50327">
        <ele>123.19</ele>
        <time>2016-04-21T12:36:01Z</time>
      </trkpt>
      <trkpt lat="43.21576" lon="5.50336">
        <ele>125.11</ele>
        <time>2016-04-21T12:36:07Z</time>
      </trkpt>
      <trkpt lat="43.21579" lon="5.50342">
        <ele>126.07</ele>
        <time>2016-04-21T12:36:12Z</time>
      </trkpt>
      <trkpt lat="43.2158" lon="5.50345">
        <ele>127.03</ele>
        <time>2016-04-21T12:36:14Z</time>
      </trkpt>
      <trkpt lat="43.21586" lon="5.50351">
        <ele>129.92</ele>
        <time>2016-04-21T12:36:19Z</time>
      </trkpt>
      <trkpt lat="43.21588" lon="5.50352">
        <ele>130.4</ele>
        <time>2016-04-21T12:36:21Z</time>
      </trkpt>
      <trkpt lat="43.21591" lon="5.50364">
        <ele>131.84</ele>
        <time>2016-04-21T12:36:34Z</time>
      </trkpt>
      <trkpt lat="43.21593" lon="5.50374">
        <ele>132.8</ele>
        <time>2016-04-21T12:36:46Z</time>
      </trkpt>
      <trkpt lat="43.21598" lon="5.50378">
        <ele>132.32</ele>
        <time>2016-04-21T12:37:07Z</time>
      </trkpt>
      <trkpt lat="43.21605" lon="5.50385">
        <ele>130.88</ele>
        <time>2016-04-21T12:37:14Z</time>
      </trkpt>
      <trkpt lat="43.21618" lon="5.50396">
        <ele>134.72</ele>
        <time>2016-04-21T12:37:28Z</time>
      </trkpt>
      <trkpt lat="43.21624" lon="5.50395">
        <ele>138.09</ele>
        <time>2016-04-21T12:37:42Z</time>
      </trkpt>
      <trkpt lat="43.2163" lon="5.50392">
        <ele>137.61</ele>
        <time>2016-04-21T12:37:52Z</time>
      </trkpt>
      <trkpt lat="43.21642" lon="5.50385">
        <ele>137.13</ele>
        <time>2016-04-21T12:38:05Z</time>
      </trkpt>
      <trkpt lat="43.21647" lon="5.50384">
        <ele>137.61</ele>
        <time>2016-04-21T12:38:12Z</time>
      </trkpt>
      <trkpt lat="43.2166" lon="5.50386">
        <ele>137.61</ele>
        <time>2016-04-21T12:38:24Z</time>
      </trkpt>
      <trkpt lat="43.21668" lon="5.50396">
        <ele>137.13</ele>
        <time>2016-04-21T12:38:34Z</time>
      </trkpt>
      <trkpt lat="43.21669" lon="5.50397">
        <ele>137.13</ele>
        <time>2016-04-21T12:38:35Z</time>
      </trkpt>
      <trkpt lat="43.21668" lon="5.50414">
        <ele>138.09</ele>
        <time>2016-04-21T12:38:47Z</time>
      </trkpt>
      <trkpt lat="43.21671" lon="5.50424">
        <ele>138.57</ele>
        <time>2016-04-21T12:38:57Z</time>
      </trkpt>
      <trkpt lat="43.21673" lon="5.50434">
        <ele>139.53</ele>
        <time>2016-04-21T12:39:04Z</time>
      </trkpt>
      <trkpt lat="43.21678" lon="5.50445">
        <ele>140.97</ele>
        <time>2016-04-21T12:39:15Z</time>
      </trkpt>
      <trkpt lat="43.21682" lon="5.50447">
        <ele>142.89</ele>
        <time>2016-04-21T12:39:22Z</time>
      </trkpt>
      <trkpt lat="43.21692" lon="5.50446">
        <ele>145.3</ele>
        <time>2016-04-21T12:39:34Z</time>
      </trkpt>
      <trkpt lat="43.21702" lon="5.50445">
        <ele>147.22</ele>
        <time>2016-04-21T12:39:47Z</time>
      </trkpt>
      <trkpt lat="43.21703" lon="5.50446">
        <ele>147.22</ele>
        <time>2016-04-21T12:39:48Z</time>
      </trkpt>
      <trkpt lat="43.21709" lon="5.50455">
        <ele>151.54</ele>
        <time>2016-04-21T12:40:00Z</time>
      </trkpt>
      <trkpt lat="43.21713" lon="5.50464">
        <ele>152.99</ele>
        <time>2016-04-21T12:40:08Z</time>
      </trkpt>
      <trkpt lat="43.21716" lon="5.50469">
        <ele>153.47</ele>
        <time>2016-04-21T12:40:13Z</time>
      </trkpt>
      <trkpt lat="43.21724" lon="5.50472">
        <ele>153.95</ele>
        <time>2016-04-21T12:40:23Z</time>
      </trkpt>
      <trkpt lat="43.21727" lon="5.50473">
        <ele>154.43</ele>
        <time>2016-04-21T12:40:26Z</time>
      </trkpt>
      <trkpt lat="43.21737" lon="5.50474">
        <ele>153.47</ele>
        <time>2016-04-21T12:40:37Z</time>
      </trkpt>
      <trkpt lat="43.21739" lon="5.50474">
        <ele>152.99</ele>
        <time>2016-04-21T12:40:40Z</time>
      </trkpt>
      <trkpt lat="43.21745" lon="5.50481">
        <ele>152.51</ele>
        <time>2016-04-21T12:40:47Z</time>
      </trkpt>
      <trkpt lat="43.21752" lon="5.505">
        <ele>153.95</ele>
        <time>2016-04-21T12:41:01Z</time>
      </trkpt>
      <trkpt lat="43.21754" lon="5.50506">
        <ele>153.95</ele>
        <time>2016-04-21T12:41:06Z</time>
      </trkpt>
      <trkpt lat="43.2176" lon="5.50517">
        <ele>153.47</ele>
        <time>2016-04-21T12:41:15Z</time>
      </trkpt>
      <trkpt lat="43.21764" lon="5.5052">
        <ele>153.47</ele>
        <time>2016-04-21T12:41:19Z</time>
      </trkpt>
      <trkpt lat="43.21768" lon="5.50533">
        <ele>157.79</ele>
        <time>2016-04-21T12:41:31Z</time>
      </trkpt>
      <trkpt lat="43.2177" lon="5.50535">
        <ele>158.27</ele>
        <time>2016-04-21T12:41:34Z</time>
      </trkpt>
      <trkpt lat="43.2178" lon="5.50547">
        <ele>158.27</ele>
        <time>2016-04-21T12:41:46Z</time>
      </trkpt>
      <trkpt lat="43.2179" lon="5.5056">
        <ele>159.72</ele>
        <time>2016-04-21T12:42:00Z</time>
      </trkpt>
      <trkpt lat="43.21796" lon="5.50576">
        <ele>160.2</ele>
        <time>2016-04-21T12:42:13Z</time>
      </trkpt>
      <trkpt lat="43.21797" lon="5.50577">
        <ele>159.72</ele>
        <time>2016-04-21T12:42:15Z</time>
      </trkpt>
      <trkpt lat="43.21796" lon="5.50586">
        <ele>158.75</ele>
        <time>2016-04-21T12:42:22Z</time>
      </trkpt>
      <trkpt lat="43.21795" lon="5.50593">
        <ele>158.75</ele>
        <time>2016-04-21T12:42:28Z</time>
      </trkpt>
      <trkpt lat="43.21795" lon="5.50613">
        <ele>162.6</ele>
        <time>2016-04-21T12:42:41Z</time>
      </trkpt>
      <trkpt lat="43.21801" lon="5.50627">
        <ele>161.16</ele>
        <time>2016-04-21T12:42:54Z</time>
      </trkpt>
      <trkpt lat="43.21803" lon="5.50629">
        <ele>160.68</ele>
        <time>2016-04-21T12:43:06Z</time>
      </trkpt>
      <trkpt lat="43.21807" lon="5.50632">
        <ele>160.68</ele>
        <time>2016-04-21T12:43:18Z</time>
      </trkpt>
      <trkpt lat="43.2182" lon="5.50648">
        <ele>157.31</ele>
        <time>2016-04-21T12:43:33Z</time>
      </trkpt>
      <trkpt lat="43.2182" lon="5.50649">
        <ele>156.83</ele>
        <time>2016-04-21T12:43:34Z</time>
      </trkpt>
      <trkpt lat="43.21825" lon="5.50649">
        <ele>155.87</ele>
        <time>2016-04-21T12:43:38Z</time>
      </trkpt>
      <trkpt lat="43.21845" lon="5.50648">
        <ele>151.06</ele>
        <time>2016-04-21T12:43:53Z</time>
      </trkpt>
      <trkpt lat="43.21852" lon="5.50646">
        <ele>148.66</ele>
        <time>2016-04-21T12:44:00Z</time>
      </trkpt>
      <trkpt lat="43.21856" lon="5.50661">
        <ele>151.06</ele>
        <time>2016-04-21T12:44:13Z</time>
      </trkpt>
      <trkpt lat="43.21853" lon="5.50664">
        <ele>152.99</ele>
        <time>2016-04-21T12:44:17Z</time>
      </trkpt>
      <trkpt lat="43.21839" lon="5.50673">
        <ele>160.2</ele>
        <time>2016-04-21T12:44:30Z</time>
      </trkpt>
      <trkpt lat="43.21831" lon="5.50681">
        <ele>165</ele>
        <time>2016-04-21T12:44:44Z</time>
      </trkpt>
      <trkpt lat="43.2182" lon="5.50686">
        <ele>168.37</ele>
        <time>2016-04-21T12:44:59Z</time>
      </trkpt>
      <trkpt lat="43.21815" lon="5.50683">
        <ele>169.33</ele>
        <time>2016-04-21T12:45:11Z</time>
      </trkpt>
      <trkpt lat="43.21807" lon="5.50684">
        <ele>171.73</ele>
        <time>2016-04-21T12:45:21Z</time>
      </trkpt>
      <trkpt lat="43.21805" lon="5.50691">
        <ele>172.69</ele>
        <time>2016-04-21T12:45:26Z</time>
      </trkpt>
      <trkpt lat="43.21805" lon="5.50705">
        <ele>174.14</ele>
        <time>2016-04-21T12:45:37Z</time>
      </trkpt>
      <trkpt lat="43.21805" lon="5.5071">
        <ele>175.1</ele>
        <time>2016-04-21T12:45:42Z</time>
      </trkpt>
      <trkpt lat="43.21806" lon="5.5072">
        <ele>177.02</ele>
        <time>2016-04-21T12:45:53Z</time>
      </trkpt>
      <trkpt lat="43.21807" lon="5.50724">
        <ele>177.02</ele>
        <time>2016-04-21T12:45:57Z</time>
      </trkpt>
      <trkpt lat="43.21802" lon="5.50739">
        <ele>176.54</ele>
        <time>2016-04-21T12:46:09Z</time>
      </trkpt>
      <trkpt lat="43.21801" lon="5.5074">
        <ele>176.54</ele>
        <time>2016-04-21T12:46:11Z</time>
      </trkpt>
      <trkpt lat="43.21796" lon="5.50745">
        <ele>177.02</ele>
        <time>2016-04-21T12:46:19Z</time>
      </trkpt>
      <trkpt lat="43.21785" lon="5.5075">
        <ele>179.42</ele>
        <time>2016-04-21T12:46:31Z</time>
      </trkpt>
      <trkpt lat="43.21776" lon="5.50761">
        <ele>182.79</ele>
        <time>2016-04-21T12:46:42Z</time>
      </trkpt>
      <trkpt lat="43.21766" lon="5.50777">
        <ele>184.23</ele>
        <time>2016-04-21T12:46:57Z</time>
      </trkpt>
      <trkpt lat="43.21754" lon="5.50794">
        <ele>186.15</ele>
        <time>2016-04-21T12:47:11Z</time>
      </trkpt>
      <trkpt lat="43.21749" lon="5.50801">
        <ele>184.71</ele>
        <time>2016-04-21T12:47:17Z</time>
      </trkpt>
      <trkpt lat="43.21738" lon="5.50813">
        <ele>181.83</ele>
        <time>2016-04-21T12:47:30Z</time>
      </trkpt>
      <trkpt lat="43.21732" lon="5.5082">
        <ele>180.87</ele>
        <time>2016-04-21T12:47:36Z</time>
      </trkpt>
      <trkpt lat="43.21729" lon="5.50823">
        <ele>180.87</ele>
        <time>2016-04-21T12:47:38Z</time>
      </trkpt>
      <trkpt lat="43.21722" lon="5.50837">
        <ele>181.83</ele>
        <time>2016-04-21T12:47:48Z</time>
      </trkpt>
      <trkpt lat="43.21714" lon="5.50853">
        <ele>182.31</ele>
        <time>2016-04-21T12:48:00Z</time>
      </trkpt>
      <trkpt lat="43.21705" lon="5.50866">
        <ele>180.87</ele>
        <time>2016-04-21T12:48:10Z</time>
      </trkpt>
      <trkpt lat="43.21701" lon="5.50872">
        <ele>180.38</ele>
        <time>2016-04-21T12:48:17Z</time>
      </trkpt>
      <trkpt lat="43.21699" lon="5.50877">
        <ele>179.42</ele>
        <time>2016-04-21T12:48:20Z</time>
      </trkpt>
      <trkpt lat="43.217" lon="5.50883">
        <ele>175.58</ele>
        <time>2016-04-21T12:48:26Z</time>
      </trkpt>
      <trkpt lat="43.21704" lon="5.50891">
        <ele>172.69</ele>
        <time>2016-04-21T12:48:31Z</time>
      </trkpt>
      <trkpt lat="43.21709" lon="5.50899">
        <ele>169.33</ele>
        <time>2016-04-21T12:48:37Z</time>
      </trkpt>
      <trkpt lat="43.2172" lon="5.50907">
        <ele>168.85</ele>
        <time>2016-04-21T12:48:49Z</time>
      </trkpt>
      <trkpt lat="43.2172" lon="5.50907">
        <ele>169.33</ele>
        <time>2016-04-21T12:48:50Z</time>
      </trkpt>
      <trkpt lat="43.21723" lon="5.50911">
        <ele>169.81</ele>
        <time>2016-04-21T12:49:14Z</time>
      </trkpt>
      <trkpt lat="43.21723" lon="5.50911">
        <ele>169.81</ele>
        <time>2016-04-21T12:49:34Z</time>
      </trkpt>
      <trkpt lat="43.21724" lon="5.50913">
        <ele>168.85</ele>
        <time>2016-04-21T12:50:21Z</time>
      </trkpt>
      <trkpt lat="43.21729" lon="5.50921">
        <ele>169.81</ele>
        <time>2016-04-21T12:50:27Z</time>
      </trkpt>
      <trkpt lat="43.21737" lon="5.50936">
        <ele>174.14</ele>
        <time>2016-04-21T12:50:37Z</time>
      </trkpt>
      <trkpt lat="43.21741" lon="5.50951">
        <ele>177.98</ele>
        <time>2016-04-21T12:50:45Z</time>
      </trkpt>
      <trkpt lat="43.21738" lon="5.50965">
        <ele>181.83</ele>
        <time>2016-04-21T12:50:58Z</time>
      </trkpt>
      <trkpt lat="43.21734" lon="5.50967">
        <ele>183.75</ele>
        <time>2016-04-21T12:51:11Z</time>
      </trkpt>
      <trkpt lat="43.21728" lon="5.50967">
        <ele>185.67</ele>
        <time>2016-04-21T12:51:22Z</time>
      </trkpt>
      <trkpt lat="43.21721" lon="5.50969">
        <ele>185.19</ele>
        <time>2016-04-21T12:51:29Z</time>
      </trkpt>
      <trkpt lat="43.21714" lon="5.50967">
        <ele>184.23</ele>
        <time>2016-04-21T12:51:34Z</time>
      </trkpt>
      <trkpt lat="43.21705" lon="5.50962">
        <ele>187.11</ele>
        <time>2016-04-21T12:51:45Z</time>
      </trkpt>
      <trkpt lat="43.21701" lon="5.50956">
        <ele>187.11</ele>
        <time>2016-04-21T12:51:56Z</time>
      </trkpt>
      <trkpt lat="43.217" lon="5.50956">
        <ele>187.11</ele>
        <time>2016-04-21T12:52:01Z</time>
      </trkpt>
      <trkpt lat="43.21694" lon="5.50957">
        <ele>185.19</ele>
        <time>2016-04-21T12:52:08Z</time>
      </trkpt>
      <trkpt lat="43.21686" lon="5.50954">
        <ele>185.67</ele>
        <time>2016-04-21T12:52:16Z</time>
      </trkpt>
      <trkpt lat="43.21679" lon="5.50954">
        <ele>185.67</ele>
        <time>2016-04-21T12:52:29Z</time>
      </trkpt>
      <trkpt lat="43.21676" lon="5.50957">
        <ele>184.23</ele>
        <time>2016-04-21T12:52:42Z</time>
      </trkpt>
      <trkpt lat="43.21672" lon="5.50963">
        <ele>183.27</ele>
        <time>2016-04-21T12:52:53Z</time>
      </trkpt>
      <trkpt lat="43.21671" lon="5.50969">
        <ele>183.27</ele>
        <time>2016-04-21T12:53:14Z</time>
      </trkpt>
      <trkpt lat="43.2167" lon="5.50969">
        <ele>183.27</ele>
        <time>2016-04-21T12:53:43Z</time>
      </trkpt>
      <trkpt lat="43.2167" lon="5.5097">
        <ele>183.27</ele>
        <time>2016-04-21T12:54:08Z</time>
      </trkpt>
      <trkpt lat="43.21672" lon="5.50969">
        <ele>183.27</ele>
        <time>2016-04-21T12:54:52Z</time>
      </trkpt>
      <trkpt lat="43.21672" lon="5.50968">
        <ele>182.79</ele>
        <time>2016-04-21T12:55:36Z</time>
      </trkpt>
      <trkpt lat="43.21676" lon="5.50964">
        <ele>182.31</ele>
        <time>2016-04-21T12:57:37Z</time>
      </trkpt>
      <trkpt lat="43.21685" lon="5.5096">
        <ele>182.79</ele>
        <time>2016-04-21T12:57:47Z</time>
      </trkpt>
      <trkpt lat="43.21698" lon="5.50965">
        <ele>182.31</ele>
        <time>2016-04-21T12:57:59Z</time>
      </trkpt>
      <trkpt lat="43.21712" lon="5.50973">
        <ele>182.31</ele>
        <time>2016-04-21T12:58:14Z</time>
      </trkpt>
      <trkpt lat="43.2172" lon="5.50971">
        <ele>186.15</ele>
        <time>2016-04-21T12:58:21Z</time>
      </trkpt>
      <trkpt lat="43.21733" lon="5.50969">
        <ele>188.56</ele>
        <time>2016-04-21T12:58:35Z</time>
      </trkpt>
      <trkpt lat="43.21736" lon="5.50968">
        <ele>189.04</ele>
        <time>2016-04-21T12:58:38Z</time>
      </trkpt>
      <trkpt lat="43.21743" lon="5.5097">
        <ele>189.04</ele>
        <time>2016-04-21T12:58:45Z</time>
      </trkpt>
      <trkpt lat="43.21757" lon="5.50978">
        <ele>189.04</ele>
        <time>2016-04-21T12:58:59Z</time>
      </trkpt>
      <trkpt lat="43.21758" lon="5.50977">
        <ele>189.52</ele>
        <time>2016-04-21T12:59:16Z</time>
      </trkpt>
      <trkpt lat="43.21767" lon="5.50981">
        <ele>190</ele>
        <time>2016-04-21T12:59:34Z</time>
      </trkpt>
      <trkpt lat="43.21777" lon="5.50988">
        <ele>189.52</ele>
        <time>2016-04-21T12:59:46Z</time>
      </trkpt>
      <trkpt lat="43.21789" lon="5.50993">
        <ele>190.48</ele>
        <time>2016-04-21T12:59:58Z</time>
      </trkpt>
      <trkpt lat="43.21799" lon="5.50996">
        <ele>190.96</ele>
        <time>2016-04-21T13:00:08Z</time>
      </trkpt>
      <trkpt lat="43.21809" lon="5.51">
        <ele>190.48</ele>
        <time>2016-04-21T13:00:17Z</time>
      </trkpt>
      <trkpt lat="43.21815" lon="5.51">
        <ele>191.44</ele>
        <time>2016-04-21T13:00:30Z</time>
      </trkpt>
      <trkpt lat="43.21823" lon="5.51005">
        <ele>192.88</ele>
        <time>2016-04-21T13:00:48Z</time>
      </trkpt>
      <trkpt lat="43.21836" lon="5.51012">
        <ele>193.84</ele>
        <time>2016-04-21T13:01:00Z</time>
      </trkpt>
      <trkpt lat="43.21846" lon="5.51016">
        <ele>195.28</ele>
        <time>2016-04-21T13:01:11Z</time>
      </trkpt>
      <trkpt lat="43.21857" lon="5.51022">
        <ele>198.17</ele>
        <time>2016-04-21T13:01:23Z</time>
      </trkpt>
      <trkpt lat="43.2187" lon="5.51028">
        <ele>199.13</ele>
        <time>2016-04-21T13:01:35Z</time>
      </trkpt>
      <trkpt lat="43.2188" lon="5.5103">
        <ele>201.05</ele>
        <time>2016-04-21T13:01:46Z</time>
      </trkpt>
      <trkpt lat="43.21882" lon="5.51031">
        <ele>201.05</ele>
        <time>2016-04-21T13:01:48Z</time>
      </trkpt>
      <trkpt lat="43.21897" lon="5.51037">
        <ele>201.05</ele>
        <time>2016-04-21T13:02:01Z</time>
      </trkpt>
      <trkpt lat="43.21903" lon="5.51039">
        <ele>200.57</ele>
        <time>2016-04-21T13:02:07Z</time>
      </trkpt>
      <trkpt lat="43.21914" lon="5.51045">
        <ele>201.05</ele>
        <time>2016-04-21T13:02:19Z</time>
      </trkpt>
      <trkpt lat="43.21924" lon="5.51051">
        <ele>201.05</ele>
        <time>2016-04-21T13:02:30Z</time>
      </trkpt>
      <trkpt lat="43.21937" lon="5.51057">
        <ele>199.61</ele>
        <time>2016-04-21T13:02:40Z</time>
      </trkpt>
      <trkpt lat="43.21945" lon="5.51064">
        <ele>200.57</ele>
        <time>2016-04-21T13:02:49Z</time>
      </trkpt>
      <trkpt lat="43.21953" lon="5.51068">
        <ele>201.05</ele>
        <time>2016-04-21T13:02:57Z</time>
      </trkpt>
      <trkpt lat="43.21961" lon="5.51073">
        <ele>202.01</ele>
        <time>2016-04-21T13:03:04Z</time>
      </trkpt>
      <trkpt lat="43.21974" lon="5.51082">
        <ele>201.53</ele>
        <time>2016-04-21T13:03:18Z</time>
      </trkpt>
      <trkpt lat="43.21977" lon="5.51084">
        <ele>201.53</ele>
        <time>2016-04-21T13:03:21Z</time>
      </trkpt>
      <trkpt lat="43.21986" lon="5.51092">
        <ele>201.53</ele>
        <time>2016-04-21T13:03:31Z</time>
      </trkpt>
      <trkpt lat="43.21995" lon="5.51098">
        <ele>202.98</ele>
        <time>2016-04-21T13:03:39Z</time>
      </trkpt>
      <trkpt lat="43.22009" lon="5.51106">
        <ele>201.53</ele>
        <time>2016-04-21T13:03:51Z</time>
      </trkpt>
      <trkpt lat="43.2201" lon="5.51107">
        <ele>201.53</ele>
        <time>2016-04-21T13:03:57Z</time>
      </trkpt>
      <trkpt lat="43.22012" lon="5.51111">
        <ele>201.05</ele>
        <time>2016-04-21T13:04:00Z</time>
      </trkpt>
      <trkpt lat="43.22017" lon="5.51115">
        <ele>202.01</ele>
        <time>2016-04-21T13:04:13Z</time>
      </trkpt>
      <trkpt lat="43.22024" lon="5.51123">
        <ele>203.46</ele>
        <time>2016-04-21T13:04:26Z</time>
      </trkpt>
      <trkpt lat="43.22025" lon="5.51126">
        <ele>203.94</ele>
        <time>2016-04-21T13:04:28Z</time>
      </trkpt>
      <trkpt lat="43.22036" lon="5.5114">
        <ele>204.9</ele>
        <time>2016-04-21T13:04:41Z</time>
      </trkpt>
      <trkpt lat="43.22037" lon="5.5114">
        <ele>205.38</ele>
        <time>2016-04-21T13:04:59Z</time>
      </trkpt>
      <trkpt lat="43.22041" lon="5.51141">
        <ele>206.34</ele>
        <time>2016-04-21T13:05:11Z</time>
      </trkpt>
      <trkpt lat="43.22053" lon="5.51155">
        <ele>207.78</ele>
        <time>2016-04-21T13:05:28Z</time>
      </trkpt>
      <trkpt lat="43.22061" lon="5.51164">
        <ele>207.3</ele>
        <time>2016-04-21T13:05:36Z</time>
      </trkpt>
      <trkpt lat="43.22062" lon="5.51167">
        <ele>207.3</ele>
        <time>2016-04-21T13:05:38Z</time>
      </trkpt>
      <trkpt lat="43.22073" lon="5.51179">
        <ele>206.34</ele>
        <time>2016-04-21T13:05:50Z</time>
      </trkpt>
      <trkpt lat="43.22082" lon="5.51188">
        <ele>206.34</ele>
        <time>2016-04-21T13:05:59Z</time>
      </trkpt>
      <trkpt lat="43.22086" lon="5.51191">
        <ele>206.82</ele>
        <time>2016-04-21T13:06:02Z</time>
      </trkpt>
      <trkpt lat="43.22098" lon="5.51202">
        <ele>207.3</ele>
        <time>2016-04-21T13:06:13Z</time>
      </trkpt>
      <trkpt lat="43.22111" lon="5.51206">
        <ele>208.74</ele>
        <time>2016-04-21T13:06:24Z</time>
      </trkpt>
      <trkpt lat="43.22131" lon="5.51214">
        <ele>209.7</ele>
        <time>2016-04-21T13:06:38Z</time>
      </trkpt>
      <trkpt lat="43.22148" lon="5.5121">
        <ele>209.22</ele>
        <time>2016-04-21T13:06:52Z</time>
      </trkpt>
      <trkpt lat="43.22156" lon="5.51207">
        <ele>208.74</ele>
        <time>2016-04-21T13:06:59Z</time>
      </trkpt>
      <trkpt lat="43.22161" lon="5.51204">
        <ele>208.74</ele>
        <time>2016-04-21T13:07:03Z</time>
      </trkpt>
      <trkpt lat="43.22181" lon="5.51202">
        <ele>209.7</ele>
        <time>2016-04-21T13:07:19Z</time>
      </trkpt>
      <trkpt lat="43.22201" lon="5.51198">
        <ele>209.7</ele>
        <time>2016-04-21T13:07:34Z</time>
      </trkpt>
      <trkpt lat="43.2222" lon="5.51188">
        <ele>210.19</ele>
        <time>2016-04-21T13:07:49Z</time>
      </trkpt>
      <trkpt lat="43.22232" lon="5.51175">
        <ele>206.82</ele>
        <time>2016-04-21T13:08:03Z</time>
      </trkpt>
      <trkpt lat="43.22246" lon="5.51157">
        <ele>209.7</ele>
        <time>2016-04-21T13:08:18Z</time>
      </trkpt>
      <trkpt lat="43.22254" lon="5.51142">
        <ele>210.67</ele>
        <time>2016-04-21T13:08:30Z</time>
      </trkpt>
      <trkpt lat="43.22263" lon="5.51119">
        <ele>210.67</ele>
        <time>2016-04-21T13:08:44Z</time>
      </trkpt>
      <trkpt lat="43.22265" lon="5.51111">
        <ele>211.63</ele>
        <time>2016-04-21T13:08:50Z</time>
      </trkpt>
      <trkpt lat="43.22271" lon="5.51094">
        <ele>213.55</ele>
        <time>2016-04-21T13:09:01Z</time>
      </trkpt>
      <trkpt lat="43.22272" lon="5.51088">
        <ele>213.55</ele>
        <time>2016-04-21T13:09:05Z</time>
      </trkpt>
      <trkpt lat="43.22278" lon="5.5107">
        <ele>213.55</ele>
        <time>2016-04-21T13:09:17Z</time>
      </trkpt>
      <trkpt lat="43.22283" lon="5.51052">
        <ele>214.99</ele>
        <time>2016-04-21T13:09:29Z</time>
      </trkpt>
      <trkpt lat="43.22292" lon="5.51033">
        <ele>215.95</ele>
        <time>2016-04-21T13:09:42Z</time>
      </trkpt>
      <trkpt lat="43.22296" lon="5.5103">
        <ele>214.99</ele>
        <time>2016-04-21T13:09:47Z</time>
      </trkpt>
      <trkpt lat="43.22295" lon="5.51023">
        <ele>214.99</ele>
        <time>2016-04-21T13:09:52Z</time>
      </trkpt>
      <trkpt lat="43.22296" lon="5.51001">
        <ele>216.91</ele>
        <time>2016-04-21T13:10:07Z</time>
      </trkpt>
      <trkpt lat="43.22292" lon="5.50972">
        <ele>217.88</ele>
        <time>2016-04-21T13:10:25Z</time>
      </trkpt>
      <trkpt lat="43.2229" lon="5.50966">
        <ele>217.4</ele>
        <time>2016-04-21T13:10:29Z</time>
      </trkpt>
      <trkpt lat="43.22286" lon="5.50941">
        <ele>215.47</ele>
        <time>2016-04-21T13:10:44Z</time>
      </trkpt>
      <trkpt lat="43.22286" lon="5.5094">
        <ele>215.47</ele>
        <time>2016-04-21T13:10:45Z</time>
      </trkpt>
      <trkpt lat="43.22287" lon="5.50931">
        <ele>214.99</ele>
        <time>2016-04-21T13:10:50Z</time>
      </trkpt>
      <trkpt lat="43.22296" lon="5.50922">
        <ele>214.03</ele>
        <time>2016-04-21T13:11:03Z</time>
      </trkpt>
      <trkpt lat="43.22311" lon="5.50912">
        <ele>214.51</ele>
        <time>2016-04-21T13:11:18Z</time>
      </trkpt>
      <trkpt lat="43.22324" lon="5.50902">
        <ele>216.43</ele>
        <time>2016-04-21T13:11:32Z</time>
      </trkpt>
      <trkpt lat="43.22325" lon="5.50902">
        <ele>216.43</ele>
        <time>2016-04-21T13:11:34Z</time>
      </trkpt>
      <trkpt lat="43.22328" lon="5.50901">
        <ele>216.91</ele>
        <time>2016-04-21T13:11:38Z</time>
      </trkpt>
      <trkpt lat="43.22338" lon="5.50896">
        <ele>219.8</ele>
        <time>2016-04-21T13:11:51Z</time>
      </trkpt>
      <trkpt lat="43.2235" lon="5.50886">
        <ele>221.72</ele>
        <time>2016-04-21T13:12:06Z</time>
      </trkpt>
      <trkpt lat="43.22358" lon="5.5088">
        <ele>221.72</ele>
        <time>2016-04-21T13:12:17Z</time>
      </trkpt>
      <trkpt lat="43.22368" lon="5.50871">
        <ele>223.16</ele>
        <time>2016-04-21T13:12:31Z</time>
      </trkpt>
      <trkpt lat="43.22371" lon="5.50865">
        <ele>224.61</ele>
        <time>2016-04-21T13:12:37Z</time>
      </trkpt>
      <trkpt lat="43.22374" lon="5.5086">
        <ele>225.57</ele>
        <time>2016-04-21T13:12:51Z</time>
      </trkpt>
      <trkpt lat="43.22376" lon="5.50855">
        <ele>226.53</ele>
        <time>2016-04-21T13:13:02Z</time>
      </trkpt>
      <trkpt lat="43.22382" lon="5.50846">
        <ele>228.93</ele>
        <time>2016-04-21T13:13:14Z</time>
      </trkpt>
      <trkpt lat="43.2239" lon="5.50835">
        <ele>229.89</ele>
        <time>2016-04-21T13:13:27Z</time>
      </trkpt>
      <trkpt lat="43.22392" lon="5.50833">
        <ele>230.37</ele>
        <time>2016-04-21T13:13:31Z</time>
      </trkpt>
      <trkpt lat="43.22401" lon="5.50823">
        <ele>231.33</ele>
        <time>2016-04-21T13:13:45Z</time>
      </trkpt>
      <trkpt lat="43.22402" lon="5.5082">
        <ele>231.33</ele>
        <time>2016-04-21T13:13:49Z</time>
      </trkpt>
      <trkpt lat="43.22404" lon="5.50814">
        <ele>231.81</ele>
        <time>2016-04-21T13:13:54Z</time>
      </trkpt>
      <trkpt lat="43.22409" lon="5.50798">
        <ele>233.26</ele>
        <time>2016-04-21T13:14:06Z</time>
      </trkpt>
      <trkpt lat="43.22415" lon="5.50782">
        <ele>234.7</ele>
        <time>2016-04-21T13:14:18Z</time>
      </trkpt>
      <trkpt lat="43.22426" lon="5.50769">
        <ele>237.58</ele>
        <time>2016-04-21T13:14:29Z</time>
      </trkpt>
      <trkpt lat="43.22439" lon="5.5076">
        <ele>239.02</ele>
        <time>2016-04-21T13:14:41Z</time>
      </trkpt>
      <trkpt lat="43.22451" lon="5.50752">
        <ele>239.99</ele>
        <time>2016-04-21T13:14:53Z</time>
      </trkpt>
      <trkpt lat="43.22457" lon="5.50736">
        <ele>239.51</ele>
        <time>2016-04-21T13:15:05Z</time>
      </trkpt>
      <trkpt lat="43.22457" lon="5.50734">
        <ele>239.51</ele>
        <time>2016-04-21T13:15:06Z</time>
      </trkpt>
      <trkpt lat="43.22457" lon="5.50728">
        <ele>239.02</ele>
        <time>2016-04-21T13:15:11Z</time>
      </trkpt>
      <trkpt lat="43.22455" lon="5.50707">
        <ele>238.54</ele>
        <time>2016-04-21T13:15:25Z</time>
      </trkpt>
      <trkpt lat="43.22455" lon="5.50702">
        <ele>238.54</ele>
        <time>2016-04-21T13:15:28Z</time>
      </trkpt>
      <trkpt lat="43.22452" lon="5.50681">
        <ele>240.47</ele>
        <time>2016-04-21T13:15:40Z</time>
      </trkpt>
      <trkpt lat="43.22447" lon="5.50664">
        <ele>241.43</ele>
        <time>2016-04-21T13:15:53Z</time>
      </trkpt>
      <trkpt lat="43.22442" lon="5.50644">
        <ele>241.91</ele>
        <time>2016-04-21T13:16:06Z</time>
      </trkpt>
      <trkpt lat="43.22441" lon="5.50643">
        <ele>241.91</ele>
        <time>2016-04-21T13:16:07Z</time>
      </trkpt>
      <trkpt lat="43.22435" lon="5.50625">
        <ele>242.39</ele>
        <time>2016-04-21T13:16:21Z</time>
      </trkpt>
      <trkpt lat="43.22431" lon="5.50607">
        <ele>243.83</ele>
        <time>2016-04-21T13:16:32Z</time>
      </trkpt>
      <trkpt lat="43.2243" lon="5.5059">
        <ele>242.87</ele>
        <time>2016-04-21T13:16:44Z</time>
      </trkpt>
      <trkpt lat="43.2243" lon="5.50587">
        <ele>242.87</ele>
        <time>2016-04-21T13:16:46Z</time>
      </trkpt>
      <trkpt lat="43.22432" lon="5.50569">
        <ele>242.87</ele>
        <time>2016-04-21T13:16:58Z</time>
      </trkpt>
      <trkpt lat="43.22434" lon="5.50561">
        <ele>243.83</ele>
        <time>2016-04-21T13:17:03Z</time>
      </trkpt>
      <trkpt lat="43.22439" lon="5.50548">
        <ele>244.79</ele>
        <time>2016-04-21T13:17:12Z</time>
      </trkpt>
      <trkpt lat="43.22453" lon="5.50533">
        <ele>247.2</ele>
        <time>2016-04-21T13:17:25Z</time>
      </trkpt>
      <trkpt lat="43.22465" lon="5.50523">
        <ele>247.2</ele>
        <time>2016-04-21T13:17:37Z</time>
      </trkpt>
      <trkpt lat="43.22469" lon="5.50519">
        <ele>247.2</ele>
        <time>2016-04-21T13:17:42Z</time>
      </trkpt>
      <trkpt lat="43.22481" lon="5.50511">
        <ele>246.23</ele>
        <time>2016-04-21T13:17:54Z</time>
      </trkpt>
      <trkpt lat="43.22489" lon="5.50507">
        <ele>246.72</ele>
        <time>2016-04-21T13:18:02Z</time>
      </trkpt>
      <trkpt lat="43.22491" lon="5.50505">
        <ele>246.72</ele>
        <time>2016-04-21T13:18:04Z</time>
      </trkpt>
      <trkpt lat="43.22504" lon="5.50495">
        <ele>247.2</ele>
        <time>2016-04-21T13:18:17Z</time>
      </trkpt>
      <trkpt lat="43.22516" lon="5.50486">
        <ele>248.16</ele>
        <time>2016-04-21T13:18:29Z</time>
      </trkpt>
      <trkpt lat="43.22518" lon="5.50484">
        <ele>248.64</ele>
        <time>2016-04-21T13:18:31Z</time>
      </trkpt>
      <trkpt lat="43.2253" lon="5.50477">
        <ele>250.56</ele>
        <time>2016-04-21T13:18:43Z</time>
      </trkpt>
      <trkpt lat="43.22543" lon="5.5047">
        <ele>250.56</ele>
        <time>2016-04-21T13:18:55Z</time>
      </trkpt>
      <trkpt lat="43.22555" lon="5.50465">
        <ele>252</ele>
        <time>2016-04-21T13:19:07Z</time>
      </trkpt>
      <trkpt lat="43.22569" lon="5.50463">
        <ele>252.48</ele>
        <time>2016-04-21T13:19:19Z</time>
      </trkpt>
      <trkpt lat="43.22582" lon="5.5046">
        <ele>253.93</ele>
        <time>2016-04-21T13:19:31Z</time>
      </trkpt>
      <trkpt lat="43.22583" lon="5.5046">
        <ele>254.41</ele>
        <time>2016-04-21T13:19:33Z</time>
      </trkpt>
      <trkpt lat="43.22593" lon="5.50457">
        <ele>254.41</ele>
        <time>2016-04-21T13:19:41Z</time>
      </trkpt>
      <trkpt lat="43.22607" lon="5.50456">
        <ele>255.85</ele>
        <time>2016-04-21T13:19:53Z</time>
      </trkpt>
      <trkpt lat="43.22622" lon="5.50453">
        <ele>255.85</ele>
        <time>2016-04-21T13:20:06Z</time>
      </trkpt>
      <trkpt lat="43.22637" lon="5.5045">
        <ele>255.37</ele>
        <time>2016-04-21T13:20:19Z</time>
      </trkpt>
      <trkpt lat="43.22643" lon="5.50449">
        <ele>255.85</ele>
        <time>2016-04-21T13:20:25Z</time>
      </trkpt>
      <trkpt lat="43.22657" lon="5.50445">
        <ele>253.93</ele>
        <time>2016-04-21T13:20:38Z</time>
      </trkpt>
      <trkpt lat="43.22668" lon="5.50442">
        <ele>253.93</ele>
        <time>2016-04-21T13:20:49Z</time>
      </trkpt>
      <trkpt lat="43.22682" lon="5.50441">
        <ele>253.93</ele>
        <time>2016-04-21T13:21:01Z</time>
      </trkpt>
      <trkpt lat="43.22689" lon="5.50438">
        <ele>253.44</ele>
        <time>2016-04-21T13:21:07Z</time>
      </trkpt>
      <trkpt lat="43.22702" lon="5.50433">
        <ele>250.08</ele>
        <time>2016-04-21T13:21:23Z</time>
      </trkpt>
      <trkpt lat="43.22716" lon="5.50423">
        <ele>257.29</ele>
        <time>2016-04-21T13:21:36Z</time>
      </trkpt>
    </trkseg>
  </trk>
</gpx>